[[{"header":{"parameterUnit":"m.s-1","parameterCategory":1,"la1":30.6,"la2":29.2853,"lo1":-89.7004,"lo2":-87.6739,"dy":0.0162,"dx":0.0183,"nx":112,"ny":82,"refTime":"2023-03-03T18:00:00:Z","depth":0,"parameterNumber":2,"parameterNumberName":"U-component_of_WINDS"},"data":[0.0,0.0,0.0,0.0,0.0,0.0,0.0,0.0,0.0,0.0,0.0,0.0,0.0,0.0,0.0,0.0,0.0,0.0,0.0,0.0,0.0,0.0,0.0,0.0,0.0,0.0,0.0,0.0,0.0,0.0,0.0,0.0,0.0,0.0,0.0,0.0,0.0,0.0,0.0,0.0,0.0,0.0,0.0,0.0,0.0,0.0,0.0,0.0,0.0,0.0,0.0,0.0,0.0,0.0,0.0,0.0,0.0,0.0,0.0,0.0,0.0,0.0,0.0,0.0,0.0,0.0,0.0,0.0,0.0,0.0,0.0,0.0,0.0,0.0,0.0,0.0,0.0,0.0,0.0,0.0,0.0,0.0,0.0,0.0,0.0,0.0,0.0,0.0,0.0,0.0,-3.3979,-3.4356,-3.4397,-3.4397,-3.4397,-3.5025,-3.5613,-3.604,0.0,0.0,0.0,0.0,0.0,0.0,0.0,0.0,0.0,0.0,0.0,0.0,0.0,0.0,0.0,0.0,0.0,0.0,0.0,0.0,0.0,0.0,0.0,0.0,0.0,0.0,0.0,0.0,0.0,0.0,0.0,0.0,0.0,0.0,0.0,0.0,0.0,0.0,0.0,0.0,0.0,0.0,0.0,0.0,0.0,0.0,0.0,0.0,0.0,0.0,0.0,0.0,0.0,0.0,0.0,0.0,0.0,0.0,0.0,0.0,0.0,0.0,0.0,0.0,0.0,0.0,0.0,0.0,0.0,0.0,0.0,0.0,0.0,0.0,0.0,0.0,0.0,0.0,0.0,0.0,0.0,0.0,0.0,0.0,0.0,0.0,0.0,0.0,0.0,0.0,0.0,0.0,0.0,0.0,0.0,0.0,0.0,0.0,0.0,0.0,0.0,0.0,0.0,0.0,-3.4314,-3.4397,-3.4397,-3.4397,-3.4397,-3.5365,-3.5944,-3.5841,0.0,0.0,0.0,0.0,0.0,0.0,0.0,0.0,0.0,0.0,0.0,0.0,0.0,0.0,0.0,0.0,0.0,0.0,0.0,0.0,0.0,0.0,0.0,0.0,0.0,0.0,0.0,0.0,0.0,0.0,0.0,0.0,0.0,0.0,0.0,0.0,0.0,0.0,0.0,0.0,0.0,0.0,0.0,0.0,0.0,0.0,0.0,0.0,0.0,0.0,0.0,0.0,0.0,0.0,0.0,0.0,0.0,0.0,0.0,0.0,0.0,0.0,0.0,0.0,0.0,0.0,0.0,0.0,0.0,0.0,0.0,0.0,0.0,0.0,0.0,0.0,0.0,0.0,0.0,0.0,0.0,0.0,0.0,0.0,0.0,0.0,0.0,0.0,0.0,0.0,0.0,0.0,0.0,0.0,0.0,0.0,0.0,0.0,0.0,0.0,0.0,0.0,0.0,-3.4921,-3.5114,-3.5114,-3.5494,-3.5561,-3.5155,-3.5847,-3.6158,-3.5841,-3.5671,0.0,0.0,0.0,0.0,0.0,0.0,0.0,0.0,0.0,0.0,0.0,0.0,0.0,0.0,0.0,0.0,0.0,0.0,0.0,0.0,0.0,0.0,0.0,0.0,0.0,0.0,0.0,0.0,0.0,0.0,0.0,0.0,0.0,0.0,0.0,0.0,0.0,0.0,0.0,0.0,0.0,0.0,0.0,0.0,0.0,0.0,0.0,0.0,0.0,0.0,0.0,0.0,0.0,0.0,0.0,0.0,0.0,0.0,0.0,0.0,0.0,0.0,0.0,0.0,0.0,0.0,0.0,0.0,0.0,0.0,0.0,0.0,0.0,0.0,0.0,0.0,0.0,0.0,0.0,0.0,0.0,0.0,0.0,0.0,0.0,0.0,0.0,0.0,0.0,0.0,0.0,0.0,0.0,0.0,0.0,0.0,0.0,0.0,0.0,0.0,0.0,0.0,-3.5073,-3.5629,-3.5426,-3.6122,-3.6267,-3.5467,-3.6018,-3.6226,-3.5828,-3.6232,0.0,0.0,0.0,0.0,0.0,0.0,0.0,0.0,0.0,0.0,0.0,0.0,0.0,0.0,0.0,0.0,0.0,0.0,0.0,0.0,0.0,0.0,0.0,0.0,0.0,0.0,0.0,0.0,0.0,0.0,0.0,0.0,0.0,0.0,0.0,0.0,0.0,0.0,0.0,0.0,0.0,0.0,0.0,0.0,0.0,0.0,0.0,0.0,0.0,0.0,0.0,0.0,0.0,0.0,0.0,0.0,0.0,0.0,0.0,0.0,0.0,0.0,0.0,0.0,0.0,0.0,0.0,0.0,0.0,0.0,0.0,0.0,0.0,0.0,0.0,0.0,0.0,0.0,0.0,0.0,0.0,0.0,0.0,0.0,0.0,0.0,0.0,0.0,0.0,0.0,0.0,0.0,0.0,0.0,0.0,0.0,0.0,0.0,0.0,0.0,0.0,0.0,-3.5155,-3.5386,-3.4592,-3.5264,-3.5426,-3.4551,-3.5489,-3.6027,-3.581,-3.6592,0.0,0.0,0.0,0.0,0.0,0.0,0.0,0.0,0.0,0.0,0.0,0.0,0.0,0.0,0.0,0.0,0.0,0.0,0.0,0.0,0.0,0.0,0.0,0.0,0.0,0.0,0.0,0.0,0.0,0.0,0.0,0.0,0.0,0.0,0.0,0.0,0.0,0.0,0.0,0.0,0.0,0.0,0.0,0.0,0.0,0.0,0.0,0.0,0.0,0.0,0.0,0.0,0.0,0.0,0.0,0.0,0.0,0.0,0.0,0.0,0.0,0.0,0.0,0.0,0.0,0.0,0.0,0.0,0.0,0.0,0.0,0.0,0.0,0.0,0.0,0.0,0.0,0.0,0.0,0.0,0.0,0.0,0.0,0.0,0.0,0.0,0.0,0.0,0.0,0.0,0.0,0.0,0.0,0.0,0.0,0.0,0.0,0.0,0.0,0.0,0.0,0.0,-3.5073,-3.5588,0.0,-3.5963,-3.6122,-3.5264,-3.546,-3.5581,-3.5537,0.0,0.0,0.0,0.0,0.0,0.0,0.0,0.0,0.0,0.0,0.0,0.0,0.0,0.0,0.0,0.0,0.0,0.0,0.0,0.0,0.0,0.0,0.0,0.0,0.0,0.0,0.0,0.0,0.0,0.0,0.0,0.0,0.0,0.0,0.0,0.0,0.0,0.0,0.0,0.0,0.0,0.0,0.0,0.0,0.0,0.0,0.0,0.0,0.0,0.0,0.0,0.0,0.0,0.0,0.0,0.0,0.0,0.0,0.0,0.0,0.0,0.0,0.0,0.0,0.0,0.0,0.0,0.0,0.0,0.0,0.0,0.0,0.0,0.0,0.0,0.0,0.0,0.0,0.0,0.0,0.0,0.0,0.0,0.0,0.0,0.0,0.0,0.0,0.0,0.0,0.0,0.0,0.0,0.0,0.0,0.0,0.0,0.0,0.0,0.0,0.0,0.0,-3.4273,-3.4937,-3.5494,0.0,-3.5909,-3.6029,-3.5128,-3.5055,-3.5136,-3.529,0.0,0.0,0.0,0.0,0.0,0.0,0.0,0.0,0.0,0.0,0.0,0.0,0.0,0.0,0.0,0.0,0.0,0.0,0.0,0.0,0.0,0.0,0.0,0.0,0.0,0.0,0.0,0.0,0.0,0.0,0.0,0.0,0.0,0.0,0.0,0.0,0.0,0.0,0.0,0.0,0.0,0.0,0.0,0.0,0.0,0.0,0.0,0.0,0.0,0.0,0.0,0.0,0.0,0.0,0.0,0.0,0.0,0.0,0.0,0.0,0.0,0.0,0.0,0.0,0.0,0.0,0.0,0.0,0.0,0.0,0.0,0.0,0.0,0.0,0.0,0.0,0.0,0.0,0.0,0.0,0.0,0.0,0.0,0.0,0.0,0.0,0.0,0.0,0.0,0.0,0.0,0.0,0.0,0.0,0.0,0.0,0.0,0.0,0.0,0.0,0.0,0.0,-3.4218,-3.48,-3.5006,-3.4189,-3.48,-3.4869,-3.3797,-3.4264,-3.4753,0.0,0.0,0.0,0.0,0.0,0.0,0.0,0.0,0.0,0.0,0.0,0.0,0.0,0.0,0.0,0.0,0.0,0.0,0.0,0.0,0.0,0.0,0.0,0.0,0.0,0.0,0.0,0.0,0.0,0.0,0.0,0.0,0.0,0.0,0.0,0.0,0.0,0.0,0.0,0.0,0.0,0.0,0.0,0.0,0.0,0.0,0.0,0.0,0.0,0.0,0.0,0.0,0.0,0.0,0.0,0.0,0.0,0.0,0.0,0.0,0.0,0.0,0.0,0.0,0.0,0.0,0.0,0.0,0.0,0.0,0.0,0.0,0.0,0.0,0.0,0.0,0.0,0.0,0.0,0.0,0.0,0.0,0.0,0.0,0.0,0.0,0.0,0.0,0.0,0.0,0.0,0.0,0.0,0.0,0.0,0.0,0.0,0.0,0.0,0.0,0.0,0.0,0.0,-3.3942,-3.4176,-3.4301,-3.3852,-3.4037,-3.4037,-3.3713,-3.4079,-3.452,-3.506,0.0,0.0,0.0,0.0,0.0,0.0,0.0,0.0,0.0,0.0,0.0,0.0,0.0,0.0,0.0,0.0,0.0,0.0,0.0,0.0,0.0,0.0,0.0,0.0,0.0,0.0,0.0,0.0,0.0,0.0,0.0,0.0,0.0,0.0,0.0,0.0,0.0,0.0,0.0,0.0,0.0,0.0,0.0,0.0,0.0,0.0,0.0,0.0,0.0,0.0,0.0,0.0,0.0,0.0,0.0,0.0,0.0,0.0,0.0,0.0,0.0,0.0,0.0,0.0,0.0,0.0,0.0,0.0,0.0,0.0,0.0,0.0,0.0,0.0,0.0,0.0,0.0,0.0,0.0,0.0,0.0,0.0,0.0,0.0,0.0,0.0,0.0,0.0,0.0,0.0,0.0,0.0,0.0,0.0,0.0,0.0,0.0,0.0,0.0,0.0,0.0,0.0,-3.4007,-3.3866,-3.3815,-3.3905,-3.3887,-3.3934,-3.4076,-3.4287,-3.4641,-3.5209,0.0,0.0,0.0,0.0,0.0,0.0,0.0,0.0,0.0,0.0,0.0,0.0,0.0,0.0,0.0,0.0,0.0,0.0,0.0,0.0,0.0,0.0,0.0,0.0,0.0,0.0,0.0,0.0,0.0,0.0,0.0,0.0,0.0,0.0,0.0,0.0,0.0,0.0,0.0,0.0,0.0,0.0,0.0,0.0,0.0,0.0,0.0,0.0,0.0,0.0,0.0,0.0,0.0,0.0,0.0,0.0,0.0,0.0,0.0,0.0,0.0,0.0,0.0,0.0,0.0,0.0,0.0,0.0,0.0,0.0,0.0,0.0,0.0,0.0,0.0,0.0,0.0,0.0,0.0,0.0,0.0,0.0,0.0,0.0,0.0,0.0,0.0,0.0,0.0,0.0,0.0,0.0,0.0,0.0,0.0,0.0,0.0,0.0,0.0,0.0,0.0,0.0,-3.4268,-3.383,-3.3728,-3.4141,-3.423,-3.4382,-3.4675,-3.4731,-3.4969,-3.547,0.0,0.0,0.0,0.0,0.0,0.0,0.0,0.0,0.0,0.0,0.0,0.0,0.0,0.0,0.0,0.0,0.0,0.0,0.0,0.0,0.0,0.0,0.0,0.0,0.0,0.0,0.0,0.0,0.0,0.0,0.0,0.0,0.0,0.0,0.0,0.0,0.0,0.0,0.0,0.0,0.0,0.0,0.0,0.0,0.0,0.0,0.0,0.0,0.0,0.0,0.0,0.0,0.0,0.0,0.0,0.0,0.0,0.0,0.0,0.0,-4.2425,0.0,0.0,0.0,0.0,0.0,0.0,0.0,0.0,0.0,0.0,0.0,0.0,0.0,0.0,0.0,0.0,0.0,0.0,0.0,0.0,0.0,0.0,0.0,0.0,0.0,0.0,0.0,0.0,0.0,0.0,0.0,0.0,0.0,0.0,0.0,0.0,0.0,0.0,0.0,0.0,0.0,-3.4268,-3.4527,-3.4528,-3.4023,-3.4331,-3.4632,-3.4713,-3.5069,-3.537,-3.5495,-3.5956,0.0,0.0,0.0,0.0,0.0,0.0,0.0,0.0,0.0,0.0,0.0,0.0,0.0,0.0,0.0,0.0,0.0,0.0,0.0,0.0,0.0,0.0,0.0,0.0,0.0,0.0,0.0,0.0,0.0,0.0,0.0,0.0,0.0,0.0,0.0,0.0,0.0,0.0,0.0,0.0,0.0,0.0,0.0,0.0,0.0,0.0,0.0,0.0,0.0,0.0,0.0,0.0,0.0,0.0,0.0,0.0,0.0,0.0,0.0,0.0,-4.2621,0.0,0.0,0.0,0.0,0.0,0.0,0.0,0.0,0.0,0.0,0.0,0.0,0.0,0.0,0.0,0.0,0.0,0.0,0.0,0.0,0.0,0.0,0.0,0.0,0.0,0.0,0.0,0.0,0.0,0.0,0.0,0.0,0.0,0.0,0.0,0.0,0.0,0.0,0.0,0.0,-3.4848,-3.4893,-3.4861,-3.4688,-3.4906,-3.5182,-3.5491,-3.5483,-3.5495,-3.5495,-3.5805,0.0,0.0,0.0,0.0,0.0,0.0,0.0,0.0,0.0,0.0,0.0,0.0,0.0,0.0,0.0,0.0,0.0,0.0,0.0,0.0,0.0,0.0,0.0,0.0,0.0,0.0,0.0,0.0,0.0,0.0,0.0,0.0,0.0,0.0,0.0,0.0,0.0,0.0,0.0,0.0,0.0,0.0,0.0,0.0,0.0,0.0,0.0,0.0,0.0,0.0,0.0,0.0,0.0,-4.2007,-4.1582,-4.1003,-4.1441,-4.1222,-4.0551,-4.172,-4.2001,-4.1648,-4.2217,0.0,0.0,0.0,0.0,0.0,0.0,0.0,0.0,0.0,0.0,0.0,0.0,0.0,0.0,0.0,0.0,0.0,0.0,0.0,0.0,0.0,0.0,0.0,0.0,-3.5469,-3.5145,0.0,0.0,0.0,0.0,0.0,0.0,0.0,0.0,0.0,0.0,0.0,0.0,-3.5382,-3.5132,-3.5064,-3.5194,-3.547,-3.5793,-3.6103,-3.5755,-3.5458,-3.5357,-3.5357,-3.5357,0.0,0.0,0.0,0.0,0.0,0.0,0.0,0.0,0.0,0.0,0.0,0.0,0.0,0.0,0.0,0.0,0.0,0.0,0.0,0.0,0.0,0.0,0.0,0.0,0.0,0.0,0.0,0.0,0.0,0.0,0.0,0.0,-4.6608,-4.7273,0.0,0.0,0.0,0.0,0.0,0.0,0.0,0.0,0.0,0.0,0.0,0.0,0.0,-4.4176,-4.4255,-4.274,-4.2379,-4.3108,-4.1832,-4.14,-4.164,-4.1182,-4.0773,-4.0505,-4.0689,0.0,-4.1617,-4.1684,0.0,0.0,0.0,0.0,0.0,0.0,0.0,0.0,0.0,0.0,0.0,0.0,0.0,0.0,0.0,0.0,0.0,0.0,0.0,0.0,0.0,0.0,-3.4541,-3.4607,-3.4567,-3.4541,0.0,-3.5172,-3.5721,-3.5721,-3.5146,0.0,0.0,0.0,0.0,0.0,0.0,0.0,-3.4951,-3.5604,-3.5629,-3.4261,-3.5391,-3.5893,-3.5014,-3.527,-3.5295,-3.4818,-3.4826,-3.4826,-3.4826,-3.4087,0.0,0.0,0.0,0.0,0.0,0.0,0.0,0.0,0.0,0.0,0.0,0.0,0.0,0.0,0.0,0.0,0.0,0.0,0.0,0.0,0.0,0.0,0.0,0.0,0.0,0.0,0.0,0.0,0.0,-4.5789,-4.599,-4.637,-4.5781,-4.562,0.0,0.0,0.0,0.0,0.0,0.0,0.0,0.0,0.0,-4.53,-4.4971,-4.4835,-4.4923,-4.3893,-4.3423,-4.341,-4.2412,-4.1753,-4.139,-4.112,-4.0814,-4.0489,-4.0489,-4.0674,-4.1001,-4.0997,-4.1166,-4.1397,0.0,0.0,0.0,0.0,-3.7323,-3.5677,-3.5606,-3.5466,0.0,-3.5185,0.0,0.0,0.0,0.0,0.0,0.0,0.0,0.0,0.0,0.0,-3.4397,-3.4397,-3.4397,-3.4397,-3.4397,-3.4718,-3.4955,0.0,-3.4319,-3.4083,-3.4054,0.0,0.0,0.0,0.0,-3.6229,-3.5705,-3.6103,-3.6128,-3.5353,-3.5977,-3.6044,-3.5207,-3.5082,-3.4931,-3.4693,-3.468,-3.468,-3.468,-3.4578,-3.4007,0.0,0.0,0.0,0.0,0.0,0.0,0.0,0.0,0.0,0.0,0.0,0.0,0.0,0.0,0.0,0.0,0.0,0.0,0.0,0.0,0.0,0.0,0.0,0.0,0.0,0.0,0.0,0.0,-4.5688,-4.5397,-4.5397,-4.5397,-4.5397,0.0,0.0,0.0,0.0,0.0,0.0,-4.5397,-4.5397,-4.5397,-4.5397,-4.5397,-4.5397,-4.5397,-4.4797,-4.4259,-4.3764,-4.2972,-4.2142,-4.1339,-4.1169,-4.0898,-4.0489,-4.0489,-4.0489,-4.0489,-4.0489,-4.0489,-4.0489,-4.0266,-3.9233,-3.7861,-3.7648,-3.6478,-3.4962,-3.488,-3.4701,-3.4481,-3.4439,0.0,-3.4397,-3.4397,0.0,0.0,0.0,0.0,-3.4397,-3.4397,-3.4397,-3.4397,-3.4397,-3.4397,-3.4397,-3.4397,-3.4356,-3.423,0.0,-3.3852,-3.3811,-3.3857,0.0,0.0,0.0,0.0,-3.6355,-3.6169,-3.6317,-3.6304,-3.6015,-3.6241,-3.6019,-3.5157,-3.4969,-3.4768,-3.4525,-3.4512,-3.4575,-3.4668,-3.4325,-3.3691,-3.2746,0.0,0.0,0.0,0.0,0.0,0.0,0.0,0.0,0.0,0.0,0.0,0.0,0.0,0.0,0.0,0.0,0.0,0.0,0.0,0.0,0.0,0.0,0.0,0.0,0.0,0.0,0.0,0.0,0.0,-4.5397,-4.5397,0.0,0.0,0.0,0.0,-4.5397,-4.5397,-4.5397,-4.5397,-4.5397,-4.5397,-4.5397,-4.5397,-4.5397,-4.5397,-4.4797,-4.4474,-4.4446,-4.3185,-4.2364,-4.1949,-4.1357,-4.0898,-4.0489,-4.0489,-4.0489,-4.0489,-4.0489,-4.0489,-4.042,-3.9657,-3.8855,-3.7988,-3.7232,-3.6282,-3.5358,-3.5154,-3.4962,-3.4756,-3.4481,-3.4397,-3.4397,-3.4397,-3.4397,0.0,0.0,-3.4397,-3.4397,-3.4397,-3.4397,-3.4397,-3.4397,-3.4397,-3.4397,-3.4397,-3.4243,-3.416,0.0,-3.4189,-3.3992,-3.3751,0.0,-3.5021,-3.4763,-3.568,-3.6169,-3.5608,-3.6044,-3.6015,-3.4914,-3.5742,-3.5764,-3.4123,-3.4868,-3.5019,-3.401,-3.3935,-3.4173,-3.47,-3.1979,-3.0871,-3.1757,-2.937,0.0,0.0,0.0,0.0,0.0,0.0,0.0,0.0,0.0,0.0,0.0,0.0,0.0,0.0,0.0,0.0,0.0,0.0,0.0,0.0,0.0,0.0,0.0,0.0,0.0,0.0,0.0,0.0,-4.5397,-4.5397,0.0,-4.5397,-4.5397,-4.5397,-4.5397,-4.5397,-4.5397,-4.5397,-4.5397,-4.5397,-4.5397,-4.5397,-4.5397,-4.5397,-4.5194,-4.4924,-4.4556,-4.3611,-4.2859,-4.2236,-4.1543,-4.1037,-4.0696,-4.0696,-4.0627,-4.0489,-4.0489,-4.0489,-4.042,-3.9621,-3.8818,-3.7988,-3.7179,-3.6163,-3.5195,-3.5127,-3.4867,-3.4535,-3.4439,-3.4397,-3.4397,-3.4397,-3.4397,-3.4397,-3.4397,-3.4397,-3.4397,-3.4397,-3.4397,-3.4397,-3.4397,-3.4698,-3.4972,-3.4972,-3.5204,-3.5262,-3.4812,-3.4237,-3.3883,-3.3997,-3.4622,-3.5122,-3.5203,-3.5881,-3.6329,-3.6094,-3.6292,-3.6254,-3.5818,-3.6179,-3.5981,-3.4994,-3.4944,-3.4956,-3.4919,-3.3954,-3.3512,-3.3811,-3.2406,-3.1329,-3.07,-3.009,-2.9468,0.0,0.0,0.0,0.0,0.0,0.0,0.0,0.0,0.0,0.0,0.0,0.0,0.0,0.0,0.0,0.0,0.0,0.0,0.0,0.0,0.0,0.0,0.0,0.0,0.0,0.0,-4.5476,-4.5476,-4.5423,-4.5397,-4.5397,-4.5397,-4.5397,-4.5397,-4.5397,-4.5397,-4.5397,-4.5397,-4.5397,-4.5397,-4.5656,-4.5793,-4.5793,-4.5571,-4.5185,-4.4608,-4.3682,-4.291,-4.2391,-4.1821,-4.1398,-4.114,-4.1086,-4.0843,-4.0489,-4.0489,-4.0489,-4.0385,-3.932,-3.8413,-3.7587,-3.6805,-3.5937,-3.5195,-3.5044,-3.4743,-3.4397,-3.4397,-3.4397,-3.4397,-3.4397,-3.4397,-3.4397,-3.4397,-3.4397,-3.4397,-3.4397,-3.4397,-3.4397,-3.4397,-3.4711,-3.5051,-3.526,-3.5387,-3.531,-3.4956,-3.4392,-3.3986,-3.3962,-3.4338,-3.483,-3.519,-3.5579,-3.599,-3.6355,-3.6194,-3.6157,-3.6392,-3.6405,-3.6144,-3.5545,-3.5378,-3.5203,-3.5006,-3.3985,-3.33,-3.3031,-3.2099,-3.1247,-3.0406,-3.0213,-2.9655,-2.8666,0.0,0.0,0.0,0.0,0.0,0.0,0.0,0.0,0.0,0.0,0.0,0.0,0.0,0.0,0.0,0.0,0.0,0.0,0.0,0.0,0.0,0.0,0.0,-4.5795,-4.5693,-4.5607,-4.5607,-4.5502,-4.5397,-4.5397,-4.5397,-4.5397,-4.5397,-4.5397,-4.5414,-4.5432,-4.5414,-4.5414,-4.5432,-4.6173,-4.6613,-4.6613,-4.5976,-4.5341,-4.4765,-4.3333,-4.2591,-4.2438,-4.2219,-4.198,-4.1806,-4.1692,-4.1217,-4.0566,-4.0566,-4.0516,-4.0327,-3.8723,-3.7625,-3.6858,-3.6017,-3.5562,-3.5318,-3.4921,-3.4618,-3.4397,-3.4397,-3.4397,-3.4397,-3.4397,-3.4397,-3.4397,-3.4397,-3.4397,-3.4397,-3.4397,-3.4397,-3.4397,-3.4397,-3.441,-3.458,-3.5168,-3.4699,-3.4309,-3.4809,-3.4753,-3.4369,-3.3568,-3.372,-3.411,-3.4618,-3.4718,0.0,-3.6267,-3.5893,-3.5768,-3.6329,-3.6405,-3.6144,-3.5545,-3.6031,-3.5658,-3.4125,-3.3922,-3.3422,-3.2434,-3.0896,-3.0286,-3.0821,-2.9544,-2.8635,-2.8196,0.0,0.0,0.0,0.0,0.0,0.0,0.0,0.0,0.0,0.0,0.0,0.0,0.0,0.0,0.0,0.0,0.0,0.0,0.0,0.0,0.0,0.0,-4.5897,-4.5821,-4.577,-4.5761,-4.5761,-4.5693,-4.5693,-4.5693,-4.5649,-4.5606,-4.5554,-4.5589,-4.5822,-4.6251,-4.5707,-4.5656,-4.6242,-4.6493,-4.6613,-4.6613,-4.6416,-4.6276,-4.6131,-4.4721,-4.3799,-4.3321,-4.2611,-4.2219,-4.2015,-4.1821,-4.1846,-4.2032,-4.2032,-4.1282,-3.9997,-3.8614,-3.7951,-3.7625,-3.6203,-3.548,-3.5154,-3.488,-3.4618,-3.4397,-3.4397,-3.4397,-3.4397,-3.4397,-3.4397,-3.4397,-3.4397,-3.4397,-3.4397,-3.4397,-3.4397,-3.4397,-3.4397,-3.4724,-3.5048,-3.5033,-3.5491,-3.576,-3.5175,-3.5309,-3.5213,-3.4172,-3.4256,-3.4675,-3.5194,-3.5655,0.0,-3.6367,-3.6279,-3.6044,-3.5805,-3.6119,-3.6144,-3.5545,-3.5001,-3.4483,-3.4088,-3.2243,-3.0927,-3.0367,-2.9471,-2.9008,-2.8963,-2.838,-2.7925,0.0,0.0,0.0,0.0,0.0,0.0,0.0,0.0,0.0,0.0,0.0,0.0,0.0,0.0,0.0,0.0,0.0,0.0,0.0,0.0,0.0,0.0,-4.5998,-4.6048,-4.5972,-4.5922,-4.5871,-4.5871,-4.5821,-4.5795,-4.5795,-4.576,-4.5727,-4.5693,-4.5988,-4.6307,-4.666,-4.6485,-4.6431,-4.6596,-4.7189,-4.7389,-4.7079,-4.7123,-4.7001,-4.671,-4.5302,-4.4302,-4.369,-4.3003,-4.2485,-4.2084,-4.1837,-4.1908,-4.2186,-4.2186,-4.1511,0.0,0.0,0.0,0.0,0.0,-3.544,-3.5086,-3.4962,-3.4701,-3.4397,-3.4397,-3.4397,-3.4397,-3.4397,-3.4397,-3.4397,-3.4397,-3.4397,-3.4397,-3.4397,-3.4397,-3.4397,-3.4397,-3.4588,-3.4829,-3.4878,-3.5079,-3.5173,-3.4813,-3.4762,0.0,-3.4136,-3.4249,-3.4487,-3.4756,-3.4926,-3.5198,-3.5617,-3.5479,-3.529,-3.5169,-3.5479,-3.5403,-3.465,-3.4044,0.0,0.0,0.0,-3.0144,-2.9432,-2.8627,0.0,0.0,0.0,-2.7192,-2.6854,0.0,0.0,0.0,-2.6714,-2.6556,0.0,0.0,0.0,0.0,0.0,0.0,0.0,0.0,0.0,0.0,0.0,0.0,0.0,0.0,0.0,0.0,-4.6122,-4.6196,-4.6196,-4.6147,-4.6097,-4.6023,-4.5922,-4.5846,-4.5846,-4.5846,-4.5846,-4.5821,-4.6352,-4.6724,-4.6784,0.0,0.0,0.0,0.0,-4.831,-4.781,-4.7858,-4.7555,-4.6891,-4.5554,-4.4521,-4.3797,-4.3416,-4.2895,-4.2318,-4.1979,-4.1863,-4.194,-4.194,-4.1626,-4.1044,-3.9594,-3.8006,-3.6429,-3.5913,-3.544,-3.5086,-3.5086,0.0,0.0,-3.4397,-3.4397,-3.4397,-3.4397,-3.4397,-3.4397,-3.4397,-3.4397,-3.4397,-3.4397,-3.4397,-3.4397,-3.4397,-3.4243,-3.4218,-3.468,-3.4093,-3.3652,-3.4172,-3.3732,-3.3395,-3.3822,-3.3897,-3.3922,-3.3985,-3.3583,-3.3621,-3.46,-3.4299,-3.4129,-3.4482,0.0,0.0,-3.3188,-3.305,-3.2392,-3.0894,-3.0717,-3.0217,-2.9196,-2.8161,-2.7562,-2.7462,-2.6981,-2.6487,-2.6052,-2.583,-2.5693,-2.5703,-2.6464,-2.667,0.0,0.0,0.0,0.0,0.0,0.0,0.0,0.0,0.0,0.0,0.0,0.0,0.0,0.0,0.0,-4.5998,-4.6122,-4.6196,-4.6196,-4.6501,-4.6578,-4.6196,-4.6147,-4.6122,-4.6122,-4.6122,-4.6073,-4.5972,-4.5977,-4.6239,-4.6776,-4.6184,-4.6345,-4.7431,-4.72,-4.7517,-4.8568,-4.8036,-4.7725,-4.7669,0.0,0.0,-4.4476,-4.4152,-4.3894,-4.3702,-4.3355,-4.3531,-4.4002,-4.4002,-4.2863,-4.0938,-3.8871,-3.7157,-3.5873,-3.575,-3.544,-3.5086,-3.5086,-3.4784,-3.4397,-3.4397,-3.4397,-3.4397,-3.4397,-3.4397,0.0,-3.4397,-3.4397,-3.4397,-3.4397,-3.4397,-3.4397,-3.4397,-3.4243,-3.4059,-3.3951,-3.3989,-3.4009,-3.3972,-3.4218,-3.4299,-3.396,-3.3897,-3.4048,-3.45,-3.4474,-3.4487,-3.4655,-3.4625,-3.4259,-3.3499,-3.3523,-3.3142,-3.2112,-3.1607,-3.1062,-3.0373,-2.9508,-2.8765,-2.8204,-2.7772,-2.7321,-2.6724,-2.6423,-2.6093,-2.5781,-2.5732,-2.5693,-2.5693,-2.5859,-2.5888,0.0,0.0,0.0,0.0,0.0,0.0,0.0,0.0,0.0,0.0,0.0,-4.5821,0.0,0.0,-4.6097,-4.6405,-4.6525,-4.6625,-4.6863,-4.6908,-4.6817,-4.6596,-4.6548,-4.6548,-4.6548,-4.6326,-4.6172,-4.6097,-4.6339,-4.663,-4.6899,-4.7086,-4.7358,-4.77,-4.7689,-4.8034,-4.8792,-4.843,-4.8297,-4.8383,-4.7648,-4.6585,-4.5245,-4.4519,-4.3987,-4.3593,-4.3262,-4.3464,-4.4057,-4.3518,-4.2446,-4.0862,-3.857,-3.7044,-3.6157,-3.6157,-3.5682,-3.5086,-3.5086,-3.4784,-3.4397,-3.4397,-3.4397,-3.4397,-3.4397,-3.4397,-3.4397,-3.4397,-3.4397,-3.4397,-3.4397,-3.4397,-3.4397,-3.4397,-3.4147,-3.3852,-3.3725,-3.3657,-3.3613,-3.3526,-3.3709,-3.3809,-3.3533,-3.3077,-3.3032,-3.3759,-3.3474,-3.3162,-3.3162,-3.2734,-3.2309,-3.1995,-3.203,-3.1623,-3.0645,-2.9856,-2.9515,-2.971,-2.9021,-2.8504,-2.8276,-2.7715,-2.7197,-2.6828,-2.6219,-2.6035,-2.6327,-2.6162,-2.6064,-2.6074,-2.6279,-2.6103,0.0,0.0,0.0,0.0,0.0,0.0,0.0,0.0,-4.643,-4.6377,-4.5985,-4.5713,-4.5813,-4.5943,-4.6204,-4.6678,-4.684,-4.7026,-4.7421,-4.7291,-4.716,-4.716,-4.7022,-4.6931,-4.7044,-4.6602,-4.6326,-4.6326,-4.6883,-4.7134,-4.7021,-4.8008,-4.8374,-4.7941,-4.8206,-4.8586,-4.9016,-4.8879,-4.8773,-4.8697,-4.8176,-4.716,-4.5782,-4.4815,-4.4081,-4.3483,-4.3154,-4.3294,-4.3712,-4.253,-4.1686,-4.0891,-3.8589,-3.726,-3.6592,-3.6469,-3.5885,-3.5154,-3.5127,-3.4825,-3.4481,-3.4397,-3.4397,-3.4397,-3.4397,-3.4397,-3.4397,-3.4397,-3.4397,-3.4397,-3.4397,-3.4397,-3.4397,-3.4397,-3.4063,-3.3755,-3.3713,-3.3398,-3.3154,-3.3124,-3.2939,-3.2797,-3.2797,-3.1989,-3.1669,-3.2667,-3.1945,-3.1347,-3.1347,-3.0678,-3.0262,-3.0487,-3.0453,-3.0068,-2.9206,-2.8435,-2.838,-2.9125,-2.899,-2.8804,-2.8618,-2.7781,-2.7251,-2.7101,-2.6192,-2.6025,-2.6768,-2.6514,-2.6387,-2.6396,-2.6816,-2.6602,-4.3889,-4.3889,-4.4029,-4.4665,-4.4929,-4.5022,0.0,0.0,-4.4907,-4.4216,-4.4662,-4.5172,-4.5214,-4.5758,-4.6196,-4.627,-4.6625,-4.6908,-4.6976,-4.765,-4.8132,-4.8132,-4.7417,-4.7049,-4.7485,-4.7093,-4.6817,-4.6817,-4.7072,-4.7142,-4.7021,-4.7029,-4.7553,-4.862,-4.751,-4.7838,-4.9855,-4.9154,-4.8537,-4.8015,-4.795,-4.7171,-4.5789,-4.5316,-4.5026,-4.4949,-4.456,-4.444,-4.438,-4.2859,-4.1809,-4.0931,-3.9247,-3.7758,-3.6537,-3.6008,-3.5616,-3.5358,-3.5154,-3.4962,-3.4714,-3.4481,-3.4397,-3.4397,-3.4397,-3.4397,-3.4397,-3.4397,-3.4397,-3.4397,-3.4397,-3.4397,-3.4397,-3.4397,-3.423,-3.3992,-3.3755,-3.3513,-3.3313,-3.3111,-3.2394,-3.1769,-3.1769,-3.0991,-3.0666,-3.1625,-3.0935,-3.0351,-3.0351,-3.026,-3.0045,-2.958,-2.9193,-2.8694,-2.8126,-2.8346,-2.8587,-2.868,-2.9415,-2.9477,-2.8649,-2.8086,-2.7623,-2.722,-2.6192,-2.5732,-2.583,-2.6221,-2.6387,-2.6396,-2.6816,-2.6768,-4.4273,-4.4391,0.0,0.0,-4.5373,-4.5269,-4.4844,-4.483,-4.4841,-4.4563,-4.4822,-4.5238,-4.5653,-4.5986,-4.6374,0.0,-4.6954,-4.7182,-4.7941,-4.7977,-4.8076,-4.8605,-4.8114,-4.7795,-4.7995,-4.7335,-4.6908,-4.6908,-4.6729,-4.6512,-4.6299,-4.6708,-4.7305,-4.8148,-4.7579,-4.8148,-4.9993,-4.9189,-4.8685,-4.8478,-4.7631,-4.6946,-4.634,-4.4835,-4.4023,-4.3769,-4.3528,-4.3433,-4.3328,-4.2138,-4.1183,-4.03,-3.879,-3.7522,-3.6564,-3.632,-3.5845,-3.5358,-3.5154,-3.4962,-3.4756,-3.4481,-3.4397,-3.4397,-3.4397,-3.4397,-3.4397,-3.4397,-3.4397,-3.4397,-3.4397,-3.4397,-3.4397,-3.4397,-3.4243,-3.4076,-3.3949,-3.3202,-3.2568,-3.2481,-3.1524,-3.0812,-3.0812,-2.9988,-2.9452,-2.9852,-2.9589,-2.9314,-2.9314,-2.8852,-2.8535,-2.854,-2.8365,-2.8246,-2.8286,-2.8017,-2.8048,-2.8587,-2.8721,-2.8568,-2.8037,-2.7884,-2.7683,-2.7342,-2.6763,-2.6728,-2.7226,-2.7168,-2.718,-2.72,-2.7568,-2.7539,-4.414,0.0,0.0,-4.5162,-4.5326,-4.5218,-4.4679,-4.4596,-4.4644,-4.474,-4.4957,-4.5273,-4.5793,-4.6056,-4.6453,-4.727,-4.7226,-4.7485,-4.8587,-4.8289,-4.8175,-4.882,-4.8642,-4.8476,-4.8476,-4.7754,-4.7226,-4.7093,-4.6862,-4.6562,-4.6202,-4.69,-4.7532,-4.8048,-4.801,-4.8665,-4.9993,-4.9441,-4.8951,-4.8578,-4.7389,-4.6602,-4.6128,-4.4205,-4.3149,-4.2793,-4.2659,-4.2602,-4.255,-4.1652,-4.0837,-3.9959,-3.8492,-3.7398,-3.6688,-3.662,-3.6143,-3.544,-3.5236,-3.5044,-3.4839,-3.4577,-3.4439,-3.4397,-3.4397,-3.4397,-3.4397,-3.4397,-3.4397,-3.4397,-3.4397,-3.4397,-3.4397,-3.4397,-3.4272,-3.416,-3.4034,-3.3202,-3.2326,-3.1989,-3.0979,-3.0125,-2.9852,-2.8945,-2.8315,-2.8315,-2.8315,-2.8315,-2.8315,-2.7715,-2.7423,-2.7707,-2.7738,-2.7872,-2.8214,-2.7748,-2.7665,-2.8204,-2.8162,-2.7963,-2.7776,-2.7793,-2.7712,-2.7578,-2.7214,-2.7324,-2.7939,-2.7754,-2.7718,-2.7728,-2.8096,-2.8125,0.0,0.0,-4.3413,-4.3691,-4.3861,-4.3907,-4.377,-4.3845,-4.3939,-4.3939,-4.4553,-4.5115,-4.5133,-4.5705,-4.635,-4.684,-4.7291,-4.7736,-4.8267,-4.8642,-4.8874,-4.8909,-4.8891,-4.8891,0.0,-4.8495,-4.8055,-4.7611,-4.7868,-4.7771,-4.7194,-4.7744,-4.8333,-4.8948,-4.8843,-4.9154,-4.9993,-4.9993,-4.9242,-4.7834,-4.7139,-4.6076,-4.4721,-4.3589,-4.3007,-4.2793,-4.2659,-4.2602,-4.2556,-4.1858,-4.1121,-4.0233,-3.8691,-3.7615,-3.6878,-3.6661,-3.6225,-3.5669,-3.548,-3.5277,-3.5044,-3.4839,-3.4618,-3.4397,-3.4397,-3.4397,-3.4397,-3.4397,-3.4397,-3.4397,-3.4397,-3.4397,-3.4397,-3.4397,-3.4397,-3.4272,-3.3797,-3.367,-3.3232,-3.1889,-3.0857,-2.9897,-2.8899,-2.7998,-2.7357,-2.7357,-2.7357,-2.7357,-2.7357,-2.7309,-2.7309,-2.733,-2.733,-2.733,-2.7351,-2.7665,-2.7728,-2.7372,-2.811,-2.8447,-2.8167,-2.7915,-2.7913,-2.8075,-2.7371,-2.7021,-2.7051,-2.7461,-2.7718,-2.7728,-2.8096,-2.8281,0.0,0.0,-4.417,-4.4799,-4.5208,-4.5294,-4.4732,-4.467,-4.4834,-4.5319,-4.5635,-4.609,-4.6938,-4.704,-4.7192,-4.7741,-4.7421,-4.7506,-4.855,-4.8587,-4.8605,-4.8874,-4.8909,0.0,0.0,0.0,0.0,-4.8075,-4.7309,-4.7074,-4.7632,-4.749,-4.7881,-4.9028,-4.8877,-4.9172,-4.9993,-5.0011,-4.9499,-4.8511,-4.6911,-4.4918,-4.2616,-4.2485,-4.2159,-4.165,-4.1337,-4.1494,-4.1878,-4.117,-4.0664,-4.024,-3.8699,-3.7625,-3.6847,-3.621,-3.5886,-3.5737,-3.5925,-3.5598,-3.5086,-3.488,-3.4618,-3.4397,-3.4397,-3.4397,-3.4397,-3.4397,-3.4397,-3.4397,-3.4397,-3.4397,-3.4397,-3.4397,-3.4397,-3.4314,-3.4021,-3.3318,-3.2389,-3.1134,-2.9977,-2.8899,-2.7951,-2.7489,-2.7309,-2.7309,-2.7309,-2.7309,-2.7309,-2.7309,-2.7309,-2.7309,-2.7309,-2.7309,-2.7309,-2.7396,-2.7417,-2.732,-2.76,-2.7523,-2.7096,-2.7221,-2.7192,-2.6958,-2.7278,-2.7441,-2.7451,-2.7871,-2.8086,-2.8086,-2.8223,-2.8291,0.0,-4.4518,-4.4974,-4.5658,-4.6023,-4.6074,-4.5607,-4.5501,-4.5712,-4.646,-4.6618,-4.697,-4.8048,-4.7928,-4.7826,-4.8345,-4.7853,-4.7756,-4.8767,-4.8678,-4.8605,-4.8874,-4.8909,-4.8909,0.0,0.0,0.0,-4.8288,-4.7456,-4.7249,-4.7933,-4.7495,-4.7823,-4.9139,-4.8923,-4.9172,-4.9993,-5.0011,-4.9393,-4.8138,-4.6286,-4.422,-4.1999,-4.2069,-4.1866,-4.1442,-4.1295,-4.154,-4.1909,-4.1201,-4.0873,-4.0652,-3.9038,-3.7978,-3.7236,-3.6591,-3.609,-3.5724,-3.5994,-3.564,-3.5086,-3.4962,-3.466,-3.4397,-3.4397,-3.4397,-3.4397,-3.4397,-3.4397,-3.4397,-3.4397,-3.4397,-3.4397,-3.4397,-3.4356,-3.423,-3.4021,-3.3018,-3.1821,-3.0643,-2.9486,-2.8398,-2.7441,-2.7309,-2.7309,-2.7309,-2.7309,-2.7309,-2.7309,-2.7309,-2.7309,-2.7309,-2.7309,-2.7309,-2.7309,-2.7309,-2.7309,-2.7309,-2.7309,-2.7191,-2.6873,-2.6999,-2.6973,-2.6752,-2.72,-2.7432,-2.7432,-2.7861,-2.8066,-2.8066,-2.8223,-2.8291,-4.4865,-4.5337,-4.5684,-4.6073,-4.6172,-4.6196,-4.6196,-4.6196,-4.6425,-4.7222,-4.7432,-4.7678,0.0,0.0,-4.8279,-4.8663,-4.8506,-4.8439,-4.8838,-4.8909,-4.8909,0.0,0.0,0.0,0.0,0.0,0.0,-4.8363,0.0,-4.8241,-4.8133,-4.7843,-4.8174,-4.9276,-4.9013,-4.9252,-4.9993,-5.0011,-4.8929,-4.6822,-4.5429,-4.4068,-4.2746,-4.2307,-4.2084,-4.2131,-4.2474,-4.2602,-4.2556,-4.1878,-4.1601,-4.1444,-3.9673,-3.8672,-3.8077,-3.7676,-3.6767,-3.5805,-3.5805,-3.5494,-3.5086,-3.5086,-3.4784,-3.4397,-3.4397,-3.4397,-3.4397,-3.4397,-3.4397,-3.4397,-3.4397,-3.4397,-3.4397,-3.4397,-3.4243,-3.4034,-3.3713,-3.276,-3.1625,-3.0351,-2.9314,-2.8362,-2.7441,-2.7309,-2.7309,-2.7309,-2.7309,-2.7309,-2.7309,-2.7309,-2.7309,-2.7309,-2.7309,-2.7309,-2.7309,-2.7309,-2.7309,-2.7309,-2.7309,-2.7363,-2.7454,-2.7218,-2.7162,-2.732,-2.7116,-2.6982,-2.6982,-2.7422,-2.7679,-2.7689,-2.8066,-2.8262,-4.4892,-4.5275,-4.5632,-4.5727,-4.5998,-4.6196,-4.6196,-4.6196,-4.6425,-4.7222,-4.7836,-4.8377,0.0,0.0,0.0,-4.9195,-4.8686,0.0,-4.8838,-4.8909,0.0,-4.8909,0.0,-4.8909,-4.8909,-4.8909,0.0,0.0,-4.8329,-4.8196,-4.8518,-4.8508,-4.8755,-4.9276,-4.955,-4.9804,-5.0011,-5.0011,-4.9201,-4.7588,-4.6191,-4.481,-4.3412,-4.2514,-4.2084,-4.2131,-4.2474,-4.2602,-4.2556,-4.1878,-4.1601,-4.1444,-3.9673,-3.8909,-3.8674,-3.78,-3.7296,-3.7025,-3.7025,-3.6194,-3.5086,-3.5086,-3.4784,-3.4397,-3.4397,-3.4397,-3.4397,-3.4397,-3.4397,-3.4397,-3.4397,-3.4397,-3.4397,-3.4397,-3.4356,-3.4008,-3.2877,-3.2444,-3.1601,-2.9486,-2.8305,-2.7584,-2.7357,-2.7309,-2.7309,-2.7309,-2.7309,-2.7309,-2.7309,-2.7309,-2.7309,-2.7309,-2.7309,-2.7309,-2.7309,-2.7309,-2.7309,-2.7309,-2.7309,-2.7218,-2.7064,-2.6812,-2.6562,-2.6418,-2.6526,-2.6543,-2.6543,-2.6973,-2.7178,-2.7197,-2.7627,-2.7822,-4.5152,-4.5407,-4.5606,-4.5606,-4.5905,-4.6196,-4.6196,-4.6196,-4.6425,-4.7222,-4.7994,0.0,0.0,0.0,0.0,0.0,0.0,0.0,-4.8874,-4.8909,-4.8909,0.0,-4.8909,0.0,-4.8909,-4.8909,-4.8909,0.0,-4.8586,-4.8731,-4.95,-4.8946,-4.9072,-5.0109,-4.9691,-4.9648,-5.0011,-5.0011,-4.9443,-4.8304,-4.6903,-4.5498,-4.4124,-4.3024,-4.2537,-4.2548,0.0,-4.3202,-4.3402,-4.2448,-4.2202,-4.2241,-3.9894,-3.9011,-3.8885,-3.7579,-3.6958,-3.6726,-3.6984,-3.622,-3.5153,-3.542,-3.5078,-3.4535,-3.4439,-3.4397,-3.4397,-3.4397,-3.4397,-3.4397,-3.4397,-3.4397,-3.4397,-3.4397,-3.4008,-3.3403,-3.2476,-3.1545,-3.0339,-2.8445,-2.7668,-2.7309,-2.7309,-2.7309,-2.7309,-2.7309,-2.7309,-2.7309,-2.7309,-2.7309,-2.7309,-2.7309,-2.7309,-2.7309,-2.7309,-2.7309,-2.7309,-2.7309,-2.7309,-2.7214,-2.7081,-2.6794,-2.6554,-2.6294,-2.6261,-2.6192,-2.6103,-2.6533,-2.6738,-2.6748,-2.7178,-2.7383,-4.558,-4.5684,-4.5684,-4.5684,-4.593,-4.6196,-4.6196,-4.6196,-4.6389,-4.7099,0.0,-4.8868,-5.0047,-5.007,-5.005,-5.0517,0.0,-4.8909,-4.8909,-4.8909,-4.8909,-4.8909,-4.8909,-4.8909,-4.8909,-4.8909,-4.8909,-4.8909,-4.9002,-4.9473,-5.0398,-4.9184,-4.924,-5.0982,-4.9681,-4.9275,-4.9993,-5.0011,-4.9696,-4.9023,-4.7504,-4.6157,-4.4951,-4.3769,-4.3239,-4.325,-4.3586,0.0,-4.4394,-4.3202,-4.3017,-4.3199,-4.0385,-3.9281,-3.9035,-3.7452,-3.647,-3.6035,-3.6551,-3.6087,-3.5354,-3.582,-3.5427,-3.4714,-3.4481,-3.4397,-3.4397,-3.4397,-3.4397,-3.4397,-3.4397,-3.4397,-3.4397,-3.4397,-3.353,-3.2618,-3.2258,-3.0418,-2.8574,-2.7489,-2.7309,-2.7309,-2.7309,-2.7309,-2.7309,-2.7309,-2.7309,-2.7309,-2.7309,-2.7309,-2.7309,-2.7309,-2.7309,-2.7309,-2.7309,-2.7309,-2.7309,-2.7309,-2.7309,-2.7309,-2.7309,-2.7034,-2.6747,-2.6496,-2.6245,-2.5965,-2.5693,-2.6113,-2.6299,-2.6309,-2.6738,-2.6934,-4.6073,-4.6097,-4.6097,-4.6097,-4.6147,-4.6196,-4.6196,-4.6196,0.0,0.0,0.0,-4.877,-4.9394,-4.9711,0.0,-5.0517,0.0,0.0,0.0,0.0,-4.8909,0.0,0.0,0.0,0.0,0.0,0.0,0.0,0.0,-4.9824,-4.9702,-4.938,-4.9525,-5.0183,-4.9942,-4.9873,-5.0011,-5.0011,-4.9935,-4.9784,-4.7757,-4.6677,-4.6401,-4.4675,-4.392,-4.3967,-4.4282,0.0,-4.3762,-4.3531,-4.3156,-4.2631,-4.1318,-4.04,-3.9714,-3.8716,-3.7841,-3.7187,-3.7296,-3.6804,-3.6097,-3.6037,-3.5301,-3.4439,-3.4397,-3.4397,-3.4397,-3.4397,-3.4397,-3.4397,-3.4397,-3.4397,-3.4397,-3.4397,-3.3658,-3.2679,-3.1621,-2.9521,-2.7773,-2.7357,-2.7309,-2.7309,-2.7309,-2.7309,-2.7309,-2.7309,-2.7309,-2.7309,-2.7309,-2.7309,-2.7309,-2.7309,-2.7309,-2.7309,-2.7309,-2.7309,-2.7309,-2.7309,-2.7309,-2.7309,-2.7309,-2.7034,-2.6747,-2.6496,-2.6245,-2.5965,-2.5693,-2.5762,-2.5801,-2.581,-2.6299,-2.6494,-4.5879,-4.5879,-4.5879,-4.5879,-4.6048,-4.6196,-4.6196,0.0,0.0,0.0,0.0,-4.8477,-4.8946,0.0,0.0,0.0,0.0,0.0,0.0,0.0,0.0,0.0,0.0,0.0,0.0,0.0,0.0,0.0,0.0,-5.0212,-5.0453,-5.062,-5.0603,-5.0436,-5.0166,-5.0011,-5.0011,-5.0011,-5.0011,-4.9964,-4.8205,-4.7156,-4.6743,-4.5056,-4.4231,-4.4123,-4.4186,0.0,-4.4101,-4.3747,-4.3149,-4.2334,-4.0776,-3.9668,-3.8831,-3.7586,-3.688,-3.6591,-3.6944,-3.6452,-3.5704,-3.5929,-3.5542,-3.4981,-3.491,-3.4868,-3.4803,-3.4489,-3.4397,-3.4397,-3.4397,-3.4397,-3.4397,-3.4397,-3.3207,-3.1609,-2.992,-2.8527,-2.7536,-2.7357,-2.7309,-2.7309,-2.7309,-2.7309,-2.7309,-2.7309,-2.7309,-2.7309,-2.7309,-2.7309,-2.7309,-2.7309,-2.7309,-2.7309,-2.7309,-2.7309,-2.7309,-2.7309,-2.7309,-2.7214,-2.7081,-2.6948,-2.6699,-2.6294,-2.6149,-2.5965,-2.5693,-2.5693,-2.5693,-2.5693,-2.5947,-2.6055,-4.5727,-4.5727,-4.5727,-4.5727,-4.5972,-4.6196,-4.6196,-4.6196,0.0,0.0,-4.7281,-4.8266,-4.8832,0.0,0.0,0.0,0.0,0.0,0.0,0.0,0.0,0.0,0.0,0.0,0.0,0.0,0.0,0.0,0.0,0.0,-5.1398,-5.1722,-5.1465,-5.0584,-5.0031,-4.9752,-4.9752,-4.9752,-4.9734,-4.9755,-4.8511,-4.7505,-4.6749,-4.5346,-4.459,-4.4341,-4.4173,0.0,0.0,-4.404,-4.3434,-4.2657,-4.0509,-3.9165,-3.8269,-3.6558,-3.5871,-3.5791,-3.6252,-3.5817,-3.522,-3.5807,-3.5703,-3.5302,-3.5146,-3.5103,-3.5012,-3.4528,-3.4397,-3.4397,-3.4397,-3.4397,-3.4314,-3.3911,-3.2364,-3.0418,-2.8445,-2.7809,-2.7631,-2.7357,-2.7309,-2.7309,-2.7309,-2.7309,-2.7309,-2.7309,-2.7309,-2.7309,-2.7309,-2.7309,-2.7309,-2.7309,-2.7309,-2.7309,-2.7309,-2.7309,-2.7309,-2.7309,-2.7309,-2.7167,-2.69,-2.69,-2.6651,-2.6091,-2.61,-2.5965,-2.5693,-2.5693,-2.5693,-2.5693,-2.5693,-2.5693,-4.6147,-4.6147,-4.6147,-4.6147,-4.6172,-4.6196,-4.6196,0.0,0.0,-4.6765,-4.7522,-4.838,-4.9281,-4.9423,0.0,0.0,0.0,0.0,0.0,0.0,0.0,0.0,0.0,0.0,0.0,0.0,0.0,0.0,0.0,0.0,-5.1508,-5.1741,-5.124,-4.9758,-4.9198,-4.8896,-4.8896,-4.8896,-4.8946,-4.8992,-4.8256,-4.7506,-4.6783,-4.5845,-4.5311,-4.5089,-4.4909,0.0,0.0,-4.4548,-4.4441,-4.4189,-4.2025,-4.0725,-3.9735,-3.7593,-3.6322,-3.5723,-3.5778,-3.548,-3.5179,-3.571,-3.5286,-3.4518,-3.4489,-3.4476,-3.4463,-3.441,-3.4397,-3.4397,-3.4397,-3.4397,-3.3953,-3.2277,-3.1057,-2.9897,-2.8305,-2.7987,-2.7809,-2.7404,-2.7309,-2.7309,-2.7309,-2.7309,-2.7309,-2.7309,-2.7309,-2.7309,-2.7309,-2.7309,-2.7309,-2.7309,-2.7309,-2.7309,-2.7309,-2.7309,-2.7309,-2.7309,-2.7309,-2.7167,-2.69,-2.69,-2.6651,-2.6091,-2.61,-2.5965,-2.5693,-2.5693,-2.5693,-2.5693,-2.5693,-2.5693,-4.6172,-4.6196,-4.6196,-4.6196,-4.6196,-4.6196,-4.6196,0.0,0.0,-4.6535,-4.7533,-4.8446,-4.8379,-4.9171,-5.0064,0.0,0.0,0.0,0.0,0.0,0.0,0.0,0.0,0.0,0.0,0.0,0.0,0.0,0.0,0.0,-5.2684,-5.1774,-5.0892,-5.0107,-4.8833,-4.8137,-4.8137,-4.8137,-4.8145,-4.8145,-4.7077,-4.6631,-4.6717,-4.5556,-4.5091,-4.5182,-4.5129,0.0,0.0,-4.461,-4.4098,-4.3121,-4.1754,-4.024,-3.8692,-3.7242,-3.6292,-3.5764,-3.613,-3.6047,-3.5907,-3.6327,-3.5846,-3.5118,-3.4976,-3.4933,-3.4868,-3.4502,-3.4397,-3.4397,-3.4397,-3.3995,-3.325,-3.1928,-3.0866,-2.9806,-2.8315,-2.7998,-2.7857,-2.7394,-2.7309,-2.7309,-2.7309,-2.7309,-2.7309,-2.7309,-2.7309,-2.7309,-2.7309,-2.7309,-2.7309,-2.7309,-2.7309,-2.7309,-2.7309,-2.7309,-2.7309,-2.7309,-2.7177,-2.6938,-2.6651,-2.6496,-2.6255,-2.5878,-2.5868,-2.583,-2.5693,-2.5693,-2.5693,-2.5693,-2.5693,-2.5693,-4.6122,-4.6172,-4.6196,-4.6196,-4.6372,-4.6547,0.0,0.0,-4.7477,-4.7038,-4.7819,-4.8525,-4.836,-4.9306,-5.0334,0.0,0.0,-5.2451,0.0,0.0,0.0,0.0,0.0,0.0,0.0,0.0,0.0,0.0,0.0,0.0,-5.315,-5.1409,-5.0318,-5.0073,-4.8321,-4.7389,-4.7389,-4.7389,-4.7365,-4.7358,-4.6254,-4.5854,-4.6076,-4.4925,-4.4488,-4.4574,-4.4777,0.0,0.0,-4.4533,-4.3976,-4.293,-4.1596,-4.0227,-3.876,-3.7373,-3.6619,-3.6307,-3.6727,-3.671,-3.6582,-3.6569,-3.6144,-3.5548,-3.5162,-3.5025,-3.4946,-3.4515,-3.4397,-3.4397,-3.4397,-3.3687,-3.2766,-3.184,-3.0866,-2.9806,-2.8315,-2.7998,-2.7857,-2.7394,-2.7309,-2.7309,-2.7309,-2.7309,-2.7309,-2.7309,-2.7309,-2.7309,-2.7309,-2.7309,-2.7309,-2.7309,-2.7309,-2.7309,-2.7309,-2.7309,-2.7309,-2.7309,-2.7034,-2.6805,-2.6496,-2.6245,-2.5955,-2.5693,-2.5693,-2.5693,-2.5693,-2.5693,-2.5693,-2.5693,-2.5693,-2.5693,-4.5998,-4.6097,-4.6196,-4.6196,-4.6818,-4.738,0.0,0.0,-4.8197,-4.858,-4.8482,-4.8678,-4.986,-5.008,-5.0636,-5.2308,-5.2856,0.0,0.0,0.0,0.0,0.0,0.0,0.0,0.0,0.0,0.0,0.0,0.0,0.0,-5.2354,-5.0526,-4.9459,-4.9311,-4.7552,-4.6613,-4.6613,-4.6613,-4.6593,-4.6604,-4.5977,-4.5354,-4.4706,-4.4015,-4.3513,0.0,0.0,0.0,0.0,-4.4348,-4.4572,-4.4343,-4.2011,-4.1069,-4.0781,-3.838,-3.7485,-3.7472,-3.7485,-3.7358,-3.705,-3.6278,-3.5812,-3.5426,-3.4664,-3.441,-3.441,-3.4397,-3.4397,-3.4397,-3.4397,-3.3687,-3.2766,-3.184,-3.0866,-2.9806,-2.8315,-2.7998,-2.7857,-2.7394,-2.7309,-2.7309,-2.7309,-2.7309,-2.7309,-2.7309,-2.7309,-2.7309,-2.7309,-2.7309,-2.7309,-2.7309,-2.7309,-2.7309,-2.7309,-2.7309,-2.7309,-2.7309,-2.7034,-2.6805,-2.6496,-2.6245,-2.5955,-2.5693,-2.5693,-2.5693,-2.5693,-2.5693,-2.5693,-2.5693,-2.5693,-2.5693,-4.6804,-4.6961,-4.7026,-4.6145,-4.6623,-4.7249,-4.6914,0.0,-4.8313,-4.7912,-4.8899,-4.9831,-4.971,-5.0842,-5.2065,-5.2835,-5.3496,0.0,0.0,0.0,0.0,0.0,0.0,0.0,0.0,0.0,0.0,0.0,0.0,0.0,-5.2317,-5.0,-4.8611,-4.8472,-4.6714,-4.5776,-4.5776,-4.5776,-4.5782,-4.5771,-4.4712,-4.4368,-4.4583,-4.3517,-4.3378,0.0,0.0,0.0,0.0,-4.4062,-4.4194,-4.4389,-4.2488,-4.1477,-4.0854,-3.8849,-3.7838,-3.7553,-3.7946,-3.8052,-3.7939,-3.7334,-3.687,-3.6287,-3.5309,-3.4724,-3.4397,-3.4397,-3.4397,-3.4397,-3.4397,-3.3687,-3.2766,-3.184,-3.0744,-2.9578,-2.8269,-2.7857,-2.7631,-2.7357,-2.7309,-2.7309,-2.7309,-2.7309,-2.7309,-2.7309,-2.7309,-2.7309,-2.7309,-2.7309,-2.7309,-2.7309,-2.7309,-2.7309,-2.7309,-2.7309,-2.7309,-2.7309,-2.7034,-2.6805,-2.6496,-2.6245,-2.5955,-2.5693,-2.5693,-2.5693,-2.5693,-2.5693,-2.5693,-2.5693,-2.5693,-2.5693,0.0,-4.6866,-4.7077,-4.6302,-4.695,0.0,0.0,0.0,-4.8859,-4.8644,-4.9563,-5.0449,-5.0634,-5.1731,-5.2772,-5.3286,-5.3788,0.0,0.0,0.0,0.0,0.0,0.0,0.0,0.0,0.0,0.0,0.0,0.0,0.0,-5.1432,-4.9644,-4.8452,-4.8074,-4.6322,-4.5397,-4.5397,-4.5397,-4.5397,-4.5397,-4.4643,-4.4401,-4.4563,-4.3541,-4.3418,0.0,0.0,0.0,0.0,-4.3744,-4.3855,-4.4067,-4.2581,-4.177,-4.1203,-3.9416,-3.8518,-3.8247,-3.8627,-3.8661,-3.8448,-3.7655,-3.6744,-3.5814,-3.5149,-3.4698,-3.4397,-3.4397,-3.4397,-3.4397,-3.4397,-3.3953,-3.3207,-3.1928,-3.0956,-2.9886,-2.8351,-2.7773,-2.7536,-2.7357,-2.7309,-2.7309,-2.7309,-2.7309,-2.7309,-2.7309,-2.7309,-2.7309,-2.7309,-2.7309,-2.7309,-2.7309,-2.7309,-2.7309,-2.7309,-2.7309,-2.7309,-2.7309,-2.7034,-2.6853,-2.6651,-2.6294,-2.6004,-2.5868,-2.5732,-2.5693,-2.5693,-2.5693,-2.5693,-2.5693,-2.5693,-2.5693,0.0,0.0,0.0,0.0,0.0,0.0,0.0,0.0,0.0,0.0,-5.0453,-5.0841,-5.2401,-5.2735,-5.3032,-5.3775,0.0,0.0,0.0,0.0,0.0,0.0,0.0,0.0,0.0,0.0,0.0,0.0,0.0,0.0,-4.9972,-4.9398,-4.8734,-4.795,-4.6329,-4.5484,-4.5483,-4.5432,-4.5397,-4.5414,-4.5478,-4.5152,-4.4511,-4.3906,-4.3521,0.0,0.0,0.0,0.0,-4.3405,-4.3608,-4.3468,-4.2434,-4.199,-4.1784,-3.9968,-3.9305,-3.9305,-3.9305,-3.91,-3.8675,-3.7317,-3.5748,-3.4397,-3.4397,-3.4397,-3.4397,-3.4397,-3.4397,-3.4397,-3.4397,-3.4397,-3.3911,-3.2059,-3.14,-3.0586,-2.8434,-2.7773,-2.7536,-2.7357,-2.7309,-2.7309,-2.7309,-2.7309,-2.7309,-2.7309,-2.7309,-2.7309,-2.7309,-2.7309,-2.7309,-2.7309,-2.7309,-2.7309,-2.7309,-2.7309,-2.7309,-2.7309,-2.7081,-2.69,-2.69,-2.64,-2.61,-2.61,-2.583,-2.5693,-2.5693,-2.5693,-2.5693,-2.5693,-2.5693,-2.5693,-4.6619,0.0,-4.7985,-4.7051,-4.7669,0.0,0.0,0.0,0.0,0.0,0.0,-5.3051,-5.346,-5.4017,-5.45,0.0,0.0,0.0,0.0,0.0,0.0,0.0,0.0,0.0,0.0,0.0,0.0,0.0,0.0,-5.0249,-4.9766,-4.8618,-4.7719,-4.7194,-4.6403,-4.6099,-4.632,-4.5707,-4.5397,-4.5397,-4.4967,-4.4426,-4.3747,-4.3124,-4.2864,0.0,0.0,0.0,-4.3069,-4.3441,-4.3608,-4.3468,-4.2434,-4.199,-4.1784,-3.9968,-3.9305,-3.9305,-3.9305,-3.91,-3.8675,-3.7086,-3.5608,-3.4397,-3.4397,-3.4397,-3.4397,-3.4397,-3.4397,-3.4397,-3.4397,-3.4397,-3.3911,-3.2059,-3.1243,-3.0338,-2.8434,-2.7678,-2.7357,-2.7309,-2.7309,-2.7309,-2.7309,-2.7309,-2.7309,-2.7309,-2.7309,-2.7309,-2.7309,-2.7309,-2.7309,-2.7309,-2.7309,-2.7309,-2.7309,-2.7309,-2.7309,-2.7309,-2.7262,-2.7129,-2.69,-2.6602,-2.6304,-2.61,-2.583,-2.5693,-2.5693,-2.5693,-2.5693,-2.5693,-2.5693,-2.5693,-4.8191,-4.8247,-4.8052,-4.7399,-4.8148,-4.899,0.0,0.0,0.0,0.0,0.0,0.0,-5.3738,0.0,0.0,0.0,0.0,0.0,0.0,0.0,0.0,0.0,0.0,0.0,0.0,0.0,0.0,0.0,0.0,-4.962,-4.9176,-4.8294,-4.7676,-4.7403,-4.6737,-4.6265,-4.6035,-4.5621,-4.5397,-4.5397,-4.5137,-4.4661,-4.3965,-4.34,-4.3072,0.0,0.0,0.0,-4.2501,-4.2638,-4.2597,-4.244,-4.1762,-4.1427,-4.1169,-3.9807,-3.9305,-3.9305,-3.9305,-3.888,-3.8136,-3.6762,-3.5821,-3.5129,-3.4881,-3.4816,-3.475,-3.4476,-3.4397,-3.4314,-3.3869,-3.3771,-3.3292,-3.14,-3.0631,-2.9909,-2.8351,-2.7726,-2.7404,-2.7309,-2.7309,-2.7309,-2.7309,-2.7309,-2.7309,-2.7309,-2.7309,-2.7309,-2.7309,-2.7309,-2.7309,-2.7309,-2.7309,-2.7309,-2.7309,-2.7309,-2.7309,-2.7309,-2.7309,-2.7214,-2.7081,-2.6699,-2.6304,-2.5917,-2.5781,-2.5693,-2.5693,-2.5693,-2.5693,-2.5693,-2.5693,-2.5693,-4.9999,-4.9222,-4.8242,-4.8133,-4.8991,-4.9894,0.0,0.0,0.0,0.0,0.0,0.0,0.0,0.0,0.0,0.0,0.0,0.0,0.0,0.0,0.0,0.0,0.0,0.0,0.0,0.0,0.0,0.0,0.0,-4.9212,-4.8494,-4.82,-4.7987,-4.7825,-4.7068,-4.6238,-4.5414,-4.5397,-4.5397,-4.5397,-4.551,-4.5156,-4.4412,-4.3902,-4.3475,-4.3053,0.0,0.0,-4.1682,-4.1718,-4.1502,-4.1091,-4.0938,-4.0678,-4.0265,-3.9563,-3.9237,-3.9183,-3.922,-3.8532,-3.7546,-3.6512,-3.6088,-3.5874,-3.5325,-3.5221,-3.5195,-3.4672,-3.4541,-3.436,-3.356,-3.3397,-3.299,-3.1019,-3.0388,-2.985,-2.8337,-2.7873,-2.762,-2.7367,-2.7309,-2.7309,-2.7309,-2.7309,-2.7309,-2.7309,-2.7309,-2.7309,-2.7309,-2.7309,-2.7309,-2.7309,-2.7309,-2.7309,-2.7309,-2.7309,-2.7309,-2.7309,-2.7262,-2.7214,-2.7119,-2.6688,-2.6217,-2.5684,-2.5693,-2.5693,-2.5693,-2.5693,-2.5693,-2.5693,-2.5693,-2.5693,-5.0725,-5.0996,-5.1161,-5.0481,-5.051,-5.0721,0.0,0.0,0.0,0.0,0.0,0.0,0.0,0.0,0.0,0.0,0.0,0.0,0.0,0.0,0.0,0.0,0.0,0.0,0.0,0.0,0.0,0.0,0.0,-4.8642,-4.8343,-4.8281,-4.7894,-4.7092,-4.6925,-4.6389,-4.5397,-4.5397,-4.5397,-4.5397,-4.5421,-4.4822,-4.3664,-4.3558,-4.292,-4.1903,0.0,-4.1679,-4.1283,-4.2113,-4.1705,-4.0532,-4.0817,-4.0149,-3.9088,-3.9248,-3.8993,-3.8583,-3.888,-3.8399,-3.7546,-3.6713,-3.5982,-3.5312,-3.4711,-3.4894,-3.5273,-3.5195,-3.5155,-3.5113,-3.4985,-3.5267,-3.5038,-3.2698,-3.2233,-3.1553,-2.8618,-2.8163,-2.8103,-2.743,-2.7309,-2.7309,-2.7309,-2.7309,-2.7309,-2.7309,-2.7309,-2.7309,-2.7309,-2.7309,-2.7309,-2.7309,-2.7309,-2.7309,-2.7309,-2.7309,-2.7309,-2.7309,-2.7081,-2.6747,-2.6284,-2.6197,-2.6014,-2.5693,-2.5693,-2.5693,-2.5693,-2.5693,-2.5693,-2.5693,-2.5693,-2.5693,-5.2163,-5.238,-5.2564,-5.2197,-5.1777,-5.1487,0.0,0.0,0.0,0.0,0.0,0.0,0.0,0.0,0.0,0.0,0.0,0.0,0.0,0.0,0.0,0.0,0.0,0.0,0.0,0.0,0.0,0.0,0.0,0.0,-4.8306,-4.7816,-4.7353,-4.6908,-4.637,-4.5862,-4.5397,-4.5397,-4.5397,-4.5397,-4.4708,-4.4083,-4.3482,-4.2785,-4.2094,-4.1439,0.0,-4.1314,-4.0979,-4.1322,-4.1015,-4.0301,-4.0339,-3.9908,-3.9242,-3.9259,-3.8925,-3.8461,-3.8795,-3.8613,-3.8038,-3.7246,-3.688,-3.6593,-3.5992,-3.6005,-3.6227,-3.6227,-3.5979,-3.5522,-3.4735,-3.4707,-3.4369,-3.2182,-3.1527,-3.0836,-2.883,-2.8301,-2.8026,-2.7446,-2.7309,-2.7309,-2.7309,-2.7309,-2.7309,-2.7309,-2.7309,-2.7309,-2.7309,-2.7309,-2.7309,-2.7309,-2.7309,-2.7309,-2.7309,-2.7309,-2.7309,-2.7309,-2.7034,-2.6699,-2.6342,-2.6197,-2.5955,-2.5693,-2.5693,-2.5693,-2.5693,-2.5693,-2.5693,-2.5693,-2.5693,-2.5693,-5.3356,-5.3332,-5.3445,-5.324,0.0,0.0,0.0,0.0,0.0,0.0,0.0,0.0,0.0,0.0,0.0,0.0,0.0,0.0,0.0,0.0,0.0,0.0,0.0,0.0,0.0,0.0,0.0,0.0,0.0,0.0,-4.8152,-4.7442,-4.6959,-4.6747,-4.5988,-4.5528,-4.5397,-4.5397,-4.5344,-4.5167,-4.4197,-4.3588,-4.3243,-4.2285,-4.1671,-4.1357,-4.1169,-4.1,-4.0833,-4.0593,-4.0188,-3.9706,-3.9668,-3.9532,-3.9283,-3.8967,-3.8776,-3.8624,-3.8732,-3.8725,-3.8541,-3.7745,-3.7595,-3.7677,-3.6972,-3.6894,-3.6998,-3.6998,-3.6776,-3.622,-3.4964,-3.4647,-3.4134,-3.2111,-3.1205,-3.0411,-2.902,-2.8365,-2.7936,-2.7415,-2.7309,-2.7309,-2.7309,-2.7309,-2.7309,-2.7309,-2.7309,-2.7309,-2.7309,-2.7309,-2.7309,-2.7309,-2.7309,-2.7309,-2.7309,-2.7309,-2.7309,-2.7309,-2.6986,-2.6699,-2.64,-2.6149,-2.5917,-2.5693,-2.5693,-2.5693,-2.5693,-2.5693,-2.5693,-2.5693,-2.5693,-2.5693,-5.3607,-5.3757,-5.4124,-5.339,0.0,0.0,0.0,0.0,0.0,0.0,0.0,0.0,0.0,0.0,0.0,0.0,0.0,0.0,0.0,0.0,0.0,0.0,0.0,0.0,0.0,0.0,0.0,0.0,0.0,0.0,-4.7674,-4.7591,-4.716,-4.6284,-4.6186,-4.5905,-4.5397,-4.5397,-4.5113,-4.4558,-4.4474,-4.381,-4.2679,-4.2585,-4.2174,-4.1555,-4.1236,-4.1083,-4.1049,-4.0677,-3.96,-3.8306,-3.8861,-3.8813,-3.8428,-3.7853,-3.8328,-3.9169,-3.861,-3.8654,-3.8769,-3.7927,-3.7573,-3.7298,-3.6402,-3.6567,-3.6998,-3.6998,-3.7377,-3.7639,-3.6948,-3.6791,-3.6257,-3.4261,-3.3195,-3.1891,-2.9245,-2.8534,-2.8145,-2.744,-2.7309,-2.7309,-2.7309,-2.7309,-2.7309,-2.7309,-2.7309,-2.7309,-2.7309,-2.7309,-2.7309,-2.7309,-2.7309,-2.7309,-2.7309,-2.7309,-2.7309,-2.7309,-2.6832,-2.64,-2.6149,-2.5868,-2.5742,-2.5693,-2.5693,-2.5693,-2.5693,-2.5693,-2.5693,-2.5693,-2.5693,-2.5693,-5.3369,-5.2692,-5.2215,-5.2399,0.0,0.0,0.0,0.0,0.0,0.0,0.0,0.0,0.0,0.0,0.0,0.0,0.0,0.0,0.0,0.0,0.0,0.0,0.0,0.0,0.0,0.0,0.0,0.0,0.0,0.0,-4.7611,-4.7049,-4.656,-4.6211,-4.5879,-4.5615,-4.5397,-4.5397,-4.5113,-4.4502,-4.4071,-4.3647,-4.3139,-4.2349,-4.1835,-4.1588,-4.1339,-4.1187,-4.1083,-4.0814,-4.025,-3.9538,-3.9145,-3.8531,-3.7851,-3.7987,-3.8095,-3.822,-3.8369,-3.8384,-3.8299,-3.7834,-3.7785,-3.7812,-3.7376,-3.7377,-3.756,-3.756,-3.773,-3.7769,-3.7155,-3.6724,-3.6069,-3.4691,-3.3044,-3.1569,-3.0684,-2.9147,-2.7984,-2.8124,-2.7715,-2.7309,-2.7309,-2.7309,-2.7309,-2.7309,-2.7309,-2.7309,-2.7309,-2.7309,-2.7309,-2.7309,-2.7309,-2.7309,-2.7309,-2.7309,-2.7309,-2.7309,-2.6938,-2.6699,-2.6602,-2.6159,-2.5965,-2.5965,-2.5781,-2.5693,-2.5693,-2.5693,-2.5693,-2.5693,-2.5693,-2.5693,-5.2527,-5.1646,0.0,0.0,0.0,0.0,0.0,0.0,0.0,0.0,0.0,0.0,0.0,0.0,0.0,0.0,0.0,0.0,0.0,0.0,0.0,0.0,0.0,0.0,0.0,0.0,0.0,0.0,0.0,0.0,0.0,-4.6631,-4.6112,-4.5955,-4.5589,-4.5397,-4.5397,-4.5397,-4.5194,-4.4752,-4.391,-4.3393,-4.3183,-4.211,-4.1588,-4.1588,-4.139,-4.1205,-4.1083,-4.0882,-4.0389,-3.9681,-3.8903,-3.8036,-3.7284,-3.7691,-3.7704,-3.7553,-3.7946,-3.8009,-3.7903,-3.7971,-3.8015,-3.8034,-3.7926,-3.79,-3.79,-3.79,-3.7769,-3.7521,-3.7116,-3.6554,-3.5885,-3.5057,-3.3167,-3.1543,-3.157,-2.9916,-2.8491,-2.8678,-2.8175,-2.7631,-2.7347,-2.7309,-2.7309,-2.7309,-2.7309,-2.7309,-2.7309,-2.7309,-2.7309,-2.7309,-2.7309,-2.7309,-2.7309,-2.7309,-2.7309,-2.7309,-2.7129,-2.6986,-2.69,-2.6448,-2.6245,-2.6245,-2.5965,-2.583,-2.583,-2.5732,-2.5693,-2.5693,-2.5693,-2.5693,-5.1004,-5.0802,0.0,0.0,0.0,0.0,0.0,0.0,0.0,0.0,0.0,0.0,0.0,0.0,0.0,0.0,0.0,0.0,0.0,0.0,0.0,0.0,0.0,0.0,0.0,0.0,0.0,0.0,0.0,0.0,0.0,-4.6459,-4.5955,-4.5423,-4.5397,-4.5397,-4.538,-4.538,-4.538,-4.5353,-4.4078,-4.3166,-4.2585,-4.19,-4.1588,-4.1573,-4.1374,-4.1189,-4.1052,-4.0851,-3.9733,-3.8069,-3.7844,-3.7287,-3.6592,-3.6605,-3.6999,-3.7485,-3.7485,-3.7485,-3.7603,-3.8336,-3.8202,-3.7723,-3.7854,-3.79,-3.79,-3.79,-3.7469,-3.6998,-3.6998,-3.6554,-3.5963,-3.5499,-3.3829,-3.2186,-3.1695,-3.0868,-2.9897,-2.8899,-2.8724,-2.8398,-2.7489,-2.7309,-2.7309,-2.7309,-2.7309,-2.7309,-2.7309,-2.7309,-2.7309,-2.7309,-2.7309,-2.7309,-2.7309,-2.7309,-2.7309,-2.7309,-2.7309,-2.7167,-2.69,-2.6651,-2.6496,-2.6496,-2.6245,-2.61,-2.61,-2.582,-2.5693,-2.5693,-2.5693,-2.5693,-5.0611,0.0,0.0,0.0,0.0,0.0,0.0,0.0,0.0,0.0,0.0,0.0,0.0,0.0,0.0,0.0,0.0,0.0,0.0,0.0,0.0,0.0,0.0,0.0,0.0,0.0,0.0,0.0,0.0,0.0,0.0,-4.6112,-4.5563,-4.5397,-4.5397,-4.5139,-4.463,-4.463,-4.4138,-4.3223,-4.2367,-4.2415,-4.3183,-4.211,-4.1254,-4.0699,-4.0618,-4.0171,-3.9439,-3.8727,-3.7754,-3.6751,-3.658,-3.6302,-3.6035,-3.6442,-3.6999,-3.7431,-3.7026,-3.7119,-3.7468,-3.7374,-3.7479,-3.7723,-3.7854,-3.79,-3.79,-3.79,-3.7469,-3.6998,-3.6998,-3.6279,-3.5487,-3.5339,-3.3789,-3.2438,-3.2947,-3.1564,-3.0306,-3.0678,-2.9635,-2.8631,-2.8305,-2.7715,-2.7309,-2.7309,-2.7309,-2.7309,-2.7309,-2.7309,-2.7309,-2.7309,-2.7309,-2.7309,-2.7309,-2.7309,-2.7309,-2.7309,-2.7309,-2.7262,-2.7167,-2.6938,-2.6699,-2.6496,-2.6245,-2.6004,-2.583,-2.5732,-2.5693,-2.5693,-2.5693,-2.5693,-4.9525,0.0,0.0,0.0,0.0,0.0,0.0,0.0,0.0,0.0,0.0,0.0,0.0,0.0,0.0,0.0,0.0,0.0,0.0,0.0,0.0,0.0,0.0,0.0,0.0,0.0,0.0,0.0,0.0,0.0,0.0,-4.5666,-4.4958,-4.4958,-4.4682,-4.4302,-4.3862,-4.3862,-4.3468,-4.2654,-4.1726,-4.1773,-4.2576,-4.1339,-4.0591,-4.0287,-4.0172,-3.9618,-3.8721,-3.7782,-3.6931,-3.6171,-3.5796,-3.5374,-3.5046,-3.5683,-3.6144,-3.6428,-3.6564,-3.6617,-3.6722,-3.7037,-3.7183,-3.7316,-3.7743,-3.79,-3.79,-3.79,-3.7299,-3.6645,-3.6645,-3.5796,-3.4999,-3.5247,-3.405,-3.3006,-3.3586,-3.2444,-3.1392,-3.1581,-3.0633,-2.9635,-2.8806,-2.8222,-2.7715,-2.7357,-2.7631,-2.7715,-2.7357,-2.7631,-2.7715,-2.7357,-2.7309,-2.7309,-2.7309,-2.7309,-2.7309,-2.7309,-2.7309,-2.7309,-2.7309,-2.7129,-2.6938,-2.6651,-2.64,-2.611,-2.5868,-2.5732,-2.5693,-2.5693,-2.5693,-2.5693,0.0,0.0,0.0,0.0,0.0,0.0,0.0,0.0,0.0,0.0,0.0,0.0,0.0,0.0,0.0,0.0,0.0,0.0,0.0,0.0,0.0,0.0,0.0,0.0,0.0,0.0,0.0,0.0,0.0,0.0,0.0,-4.5176,-4.4276,-4.4207,-4.3552,-4.3155,-4.3086,-4.3036,-4.2951,-4.2815,-4.1596,-4.0981,-4.0913,-3.9946,-3.9692,-3.9972,-3.9662,-3.9125,-3.8425,-3.757,-3.6788,-3.604,-3.5307,-3.4552,-3.3971,-3.4529,-3.4788,-3.5019,-3.6076,-3.6035,-3.5721,-3.7154,-3.7109,-3.6665,-3.7638,-3.79,-3.79,-3.7835,-3.6998,-3.6096,-3.6044,-3.5221,-3.4541,-3.509,-3.4451,-3.3725,-3.3725,-3.3398,-3.2853,-3.1901,-3.1669,-3.1036,-2.9268,-2.8899,-2.8538,-2.7668,-2.8315,-2.8538,-2.7668,-2.8315,-2.8445,-2.7536,-2.7441,-2.7394,-2.7309,-2.7309,-2.7309,-2.7309,-2.7309,-2.7309,-2.7309,-2.7262,-2.7129,-2.6853,-2.6602,-2.6352,-2.6052,-2.583,-2.5693,-2.5693,-2.5693,-2.5693,0.0,0.0,0.0,0.0,0.0,0.0,0.0,0.0,0.0,0.0,0.0,0.0,0.0,0.0,0.0,0.0,0.0,0.0,0.0,0.0,0.0,0.0,0.0,0.0,0.0,0.0,0.0,0.0,0.0,0.0,-4.5446,-4.4699,-4.4035,-4.3448,-4.3276,-4.2896,-4.2275,-4.186,-4.1102,0.0,-3.9292,-3.8719,-3.8323,-3.912,-3.8842,-3.7685,-3.7468,-3.694,-3.6199,-3.5948,-3.572,-3.5485,-3.464,-3.4192,-3.4071,-3.4083,-3.468,-3.5506,-3.5249,-3.5575,-3.6191,-3.678,-3.6751,-3.6665,-3.7638,-3.79,-3.7808,-3.7325,-3.6671,-3.6005,-3.5587,-3.4933,-3.4437,-3.4554,-3.4292,-3.3949,-3.3768,-3.3513,-3.3227,-3.2853,-3.212,-3.1448,-3.1036,-3.0351,-2.9806,-2.9624,-2.9761,-2.9806,-2.9624,-2.9761,-2.9486,-2.8491,-2.8409,-2.8081,-2.7357,-2.7309,-2.7309,-2.7309,-2.7309,-2.7309,-2.7309,-2.7081,-2.6842,-2.6592,-2.6294,-2.6052,-2.5781,-2.5732,-2.5693,-2.5693,-2.5693,-2.5693,0.0,0.0,0.0,0.0,0.0,0.0,0.0,0.0,0.0,0.0,0.0,0.0,0.0,0.0,0.0,0.0,0.0,0.0,0.0,0.0,0.0,0.0,0.0,0.0,0.0,0.0,0.0,0.0,0.0,-4.5468,-4.5016,-4.3868,-4.3034,-4.2637,-4.2275,-4.1895,-4.1481,-4.1214,-4.0552,-3.9584,-3.9011,-3.8298,-3.7541,-3.8401,-3.8122,-3.6984,-3.6739,-3.6384,-3.5938,-3.5222,-3.5115,-3.5285,-3.4125,-3.3655,-3.3668,-3.3543,-3.3919,-3.4489,-3.4707,-3.5009,-3.5463,-3.6487,-3.6601,-3.652,-3.7592,-3.79,-3.7782,-3.7168,-3.6567,-3.5979,-3.5443,-3.4842,-3.4397,-3.4397,-3.4243,-3.4034,-3.3768,-3.3556,-3.3356,-3.3154,-3.2667,-3.2176,-3.1669,-3.0812,-3.0215,-3.0215,-3.0576,-3.0722,-3.026,-3.0215,-2.9988,-2.9486,-2.8991,-2.8678,-2.8667,-2.8667,-2.8491,-2.7998,-2.7998,-2.7715,-2.7129,-2.6842,-2.6651,-2.6496,-2.6245,-2.5965,-2.5693,-2.5693,-2.5693,-2.5693,-2.5693,-2.5693,0.0,0.0,0.0,0.0,0.0,0.0,0.0,0.0,0.0,0.0,0.0,0.0,0.0,0.0,0.0,0.0,0.0,0.0,0.0,0.0,0.0,0.0,0.0,0.0,0.0,0.0,0.0,0.0,0.0,-4.4898,-4.4703,-4.2985,-4.1947,-4.1826,-4.1222,-4.0847,-4.0752,-4.0758,-4.0474,-3.9882,-3.9477,-3.8756,-3.7829,-3.8059,-3.7732,-3.6984,-3.677,-3.6692,-3.6599,-3.5545,-3.5411,-3.5794,-3.4174,-3.3543,-3.3494,-3.3106,-3.3074,-3.3349,-3.4301,-3.4538,-3.4673,-3.6284,-3.6435,-3.6232,-3.7377,-3.7678,-3.7469,-3.6881,-3.6345,-3.5835,-3.5286,-3.4776,-3.4397,-3.4397,-3.4285,-3.4076,-3.3768,-3.3556,-3.3398,-3.3154,-3.3124,-3.2853,-3.1989,-3.1214,-3.0711,-3.0711,-3.1347,-3.1581,-3.08,-3.0711,-3.0621,-3.0441,-2.9715,-2.9452,-3.0125,-3.0215,-2.9761,-2.8771,-2.8678,-2.8175,-2.6948,-2.6651,-2.6496,-2.6448,-2.6149,-2.5917,-2.5693,-2.5693,-2.5693,-2.5693,-2.5693,-2.5693,0.0,0.0,0.0,0.0,0.0,0.0,0.0,0.0,0.0,0.0,0.0,0.0,0.0,0.0,0.0,0.0,0.0,0.0,0.0,0.0,0.0,0.0,0.0,0.0,0.0,0.0,0.0,0.0,-4.5804,-4.4544,-4.3487,-4.2506,-4.1723,-4.1067,-4.0963,-4.0662,-4.012,-4.0239,-4.0018,-3.9495,-3.9466,-3.9327,-3.9078,-3.8919,-3.8185,-3.7016,-3.739,-3.748,-3.74,-3.7795,-3.8023,-3.7892,-3.5805,-3.5021,-3.4805,-3.2994,-3.2955,-3.3813,-3.3975,-3.455,-3.5412,-3.6447,-3.6313,-3.5871,-3.6807,-3.6763,-3.6227,-3.5678,-3.5469,-3.5273,-3.4672,-3.4463,-3.4397,-3.4397,-3.4397,-3.423,-3.381,-3.367,-3.3556,-3.3154,-3.3124,-3.3081,-3.2939,-3.2797,-3.2711,-3.2711,-3.2797,-3.2853,-3.2711,-3.2711,-3.2394,-3.1492,-3.1303,-3.0946,-3.026,-3.0215,-2.9761,-2.8771,-2.8678,-2.8175,-2.6948,-2.6651,-2.64,-2.6149,-2.5868,-2.5732,-2.5693,-2.5693,-2.5693,-2.5693,-2.5693,-2.5693,0.0,0.0,0.0,0.0,0.0,0.0,0.0,0.0,0.0,0.0,0.0,0.0,0.0,0.0,0.0,0.0,0.0,0.0,0.0,0.0,0.0,0.0,0.0,0.0,0.0,0.0,0.0,0.0,-4.5363,-4.403,-4.3232,-4.205,-4.124,-4.0912,-4.1309,-4.1188,-4.0524,-4.104,-4.0878,-3.9952,-4.0084,-3.9882,-3.9424,-3.9562,-3.9025,-3.7996,-3.7698,-3.7556,-3.7492,-3.7415,-3.7384,-3.7242,-3.5872,-3.5106,-3.4587,-3.3234,-3.3051,-3.3498,-3.3799,-3.4359,-3.5063,-3.5993,-3.5995,-3.57,-3.6297,-3.6305,-3.5992,-3.5443,-3.5299,-3.5155,-3.4554,-3.4397,-3.4397,-3.4397,-3.4397,-3.4272,-3.3797,-3.3713,-3.3598,-3.3197,-3.3124,-3.3124,-3.3124,-3.3124,-3.3124,-3.3124,-3.3124,-3.3124,-3.3124,-3.2624,-3.2307,-3.2438,-3.1945,-3.1669,-3.1801,-3.1801,-3.1392,-3.0407,-3.0215,-2.9624,-2.833,-2.7552,-2.6982,-2.6733,-2.6052,-2.5693,-2.5693,-2.5693,-2.5693,-2.5693,-2.5693,-2.5693,0.0,0.0,0.0,0.0,0.0,0.0,0.0,0.0,0.0,0.0,0.0,0.0,0.0,0.0,0.0,0.0,0.0,0.0,0.0,0.0,0.0,0.0,0.0,0.0,0.0,0.0,0.0,0.0,-4.5057,-4.3698,-4.3214,-4.174,-4.0912,-4.0912,-4.1429,-4.1478,-4.0996,-4.1488,-4.1387,-4.0596,-4.0609,-4.0372,-3.9944,-4.0239,-3.9973,-3.9247,-3.8388,-3.8108,-3.8215,-3.7538,-3.7261,-3.7151,-3.6097,-3.5197,-3.4462,-3.3548,-3.3149,-3.3183,-3.3704,-3.4145,-3.462,-3.5433,-3.5571,-3.5439,-3.5591,-3.5678,-3.5587,-3.5182,-3.5064,-3.4959,-3.4515,-3.4397,-3.4397,-3.4397,-3.4397,-3.4272,-3.3797,-3.3641,-3.3484,-3.3154,-3.3124,-3.3124,-3.3124,-3.3124,-3.3124,-3.3124,-3.3124,-3.3124,-3.3124,-3.2438,-3.2264,-3.3025,-3.2438,-3.2264,-3.3038,-3.3124,-3.2667,-3.1669,-3.1392,-3.0744,-2.9453,-2.8226,-2.7484,-2.7189,-2.6187,-2.5693,-2.5693,-2.5693,-2.5693,-2.5693,-2.5693,-2.5693,0.0,0.0,0.0,0.0,0.0,0.0,0.0,0.0,0.0,0.0,0.0,0.0,0.0,0.0,0.0,0.0,0.0,0.0,0.0,0.0,0.0,0.0,0.0,0.0,0.0,0.0,0.0,0.0,-4.5057,-4.3698,-4.3214,-4.174,-4.0912,-4.0912,-4.0946,-4.1033,-4.118,-4.0781,-4.0769,-4.1156,-4.0764,-4.0785,-4.1099,-4.1077,-4.0922,-4.0659,-3.9776,-3.9751,-4.0274,-3.9613,-3.9321,-3.9149,-3.7138,-3.591,-3.5091,-3.3704,-3.3149,-3.3183,-3.3704,-3.4145,-3.4579,-3.5007,-3.5015,-3.4809,-3.4572,-3.4489,-3.4476,-3.445,-3.445,-3.4437,-3.441,-3.4397,-3.4397,-3.4397,-3.4397,-3.4272,-3.3797,-3.3398,-3.3111,-3.3124,-3.3124,-3.3124,-3.3124,-3.3124,-3.3124,-3.3124,-3.3124,-3.3124,-3.3124,-3.3068,-3.3025,-3.3068,-3.3068,-3.3025,-3.3124,-3.3124,-3.2667,-3.1669,-3.1392,-3.0744,-2.9453,-2.8226,-2.7484,-2.7189,-2.6187,-2.5693,-2.5693,-2.5693,-2.5693,-2.5693,-2.5693,-2.5693,0.0,0.0,0.0,0.0,0.0,0.0,0.0,0.0,0.0,0.0,0.0,0.0,0.0,0.0,0.0,0.0,0.0,0.0,0.0,0.0,0.0,0.0,0.0,0.0,0.0,0.0,0.0,0.0,0.0,-4.4187,-4.3249,-4.2189,-4.1395,-4.0912,-4.136,-4.1694,-4.1837,-4.1218,-4.1023,-4.1262,-4.1609,-4.1608,-4.1332,-4.201,-4.1835,-4.0969,-4.0841,-4.0173,-3.9216,-3.897,-3.8354,-3.7491,-3.6761,-3.6019,-3.5237,-3.4249,-3.3818,-3.3758,-3.3729,-3.4067,-3.454,-3.4817,-3.4839,-3.4756,-3.4481,-3.4397,-3.4397,-3.4397,-3.4397,-3.4397,-3.4397,-3.4397,-3.4397,-3.4397,-3.4189,-3.3882,-3.3755,-3.3398,-3.3124,-3.3124,-3.3124,-3.3124,-3.3124,-3.3124,-3.3124,-3.3124,-3.3124,-3.3124,-3.3124,-3.3124,-3.3124,-3.3124,-3.3124,-3.3124,-3.3124,-3.3124,-3.2853,-3.2351,-3.2145,-3.1737,-3.1092,-2.9886,-2.92,-2.9143,-2.8132,-2.6982,-2.5693,-2.5693,-2.5693,-2.5693,-2.5693,-2.5693,0.0,0.0,0.0,0.0,0.0,0.0,0.0,0.0,0.0,0.0,0.0,0.0,0.0,0.0,0.0,0.0,0.0,0.0,0.0,0.0,0.0,0.0,0.0,0.0,0.0,0.0,0.0,0.0,0.0,0.0,-4.3249,-4.2447,-4.1671,-4.0929,-4.1619,-4.1923,-4.1759,-4.134,-4.1158,-4.1181,-4.1748,-4.1911,-4.171,-4.2586,-4.2426,-4.1407,-4.1223,-4.0297,-3.8831,-3.86,-3.7984,-3.7123,-3.6676,-3.619,-3.5666,-3.4935,-3.4602,-3.4434,-3.3871,-3.4039,-3.4453,-3.4272,-3.4135,-3.4079,-3.4112,-3.4123,-3.4162,-3.4345,-3.4397,-3.4397,-3.4397,-3.4397,-3.4397,-3.4397,-3.4063,-3.3713,-3.3713,-3.3398,-3.3124,-3.3124,-3.3124,-3.3124,-3.3124,-3.3124,-3.3124,-3.3124,-3.3124,-3.3124,-3.3124,-3.3124,-3.3124,-3.3124,-3.3124,-3.3124,-3.3124,-3.3124,-3.2995,-3.2723,-3.2519,-3.2257,-3.1994,-3.0824,-3.0215,-3.0215,-2.9189,-2.8038,-2.6706,-2.638,-2.6004,-2.5693,-2.5693,-2.5693,0.0,0.0,0.0,0.0,0.0,0.0,0.0,0.0,0.0,0.0,0.0,0.0,0.0,0.0,0.0,0.0,0.0,0.0,0.0,0.0,0.0,0.0,0.0,0.0,0.0,0.0,0.0,0.0,-4.3902,-4.3224,-4.3224,-4.2465,-4.1671,-4.0929,-4.1602,-4.1619,-4.0912,-4.1086,-4.1086,-4.0888,-4.1184,-4.1643,-4.2223,-4.2771,-4.2658,-4.1997,-4.1024,-4.0174,-3.9462,-3.8769,-3.8477,-3.8323,-3.7015,-3.6449,-3.6301,-3.5672,-3.5359,-3.5157,-3.4148,-3.4094,-3.4345,-3.3326,-3.2857,-3.2829,-3.3417,-3.3587,-3.3705,-3.4241,-3.4397,-3.4397,-3.4397,-3.4397,-3.4397,-3.4397,-3.4063,-3.3713,-3.3713,-3.3398,-3.3124,-3.3124,-3.3124,-3.3124,-3.3124,-3.3124,-3.3124,-3.3124,-3.3124,-3.3124,-3.3124,-3.3124,-3.3124,-3.3124,-3.3124,-3.3124,-3.3124,-3.3124,-3.2982,-3.2723,-3.2519,-3.2257,-3.1994,-3.0869,-3.026,-3.026,-2.928,-2.8773,-2.8727,-2.7699,-2.6686,-2.5732,-2.5684,-2.5693,-5.0891,0.0,0.0,0.0,0.0,0.0,0.0,0.0,0.0,0.0,0.0,0.0,0.0,0.0,0.0,0.0,0.0,0.0,0.0,0.0,0.0,0.0,0.0,0.0,0.0,0.0,0.0,0.0,-4.4423,-4.3949,-4.3847,-4.2666,-4.1671,-4.0929,-4.1101,-4.1119,-4.0912,-4.0958,-4.0958,-4.0912,-4.1525,-4.192,-4.2233,-4.3196,-4.3306,-4.2737,-4.268,-4.1752,-4.0096,-3.8458,-3.7492,-3.7015,-3.663,-3.6506,-3.6376,-3.5668,-3.5374,-3.5185,-3.3994,-3.396,-3.4259,-3.3144,-3.3026,-3.3378,-3.3535,-3.3587,-3.3705,-3.4241,-3.4397,-3.4397,-3.4397,-3.4397,-3.4397,-3.4397,-3.4063,-3.3713,-3.3713,-3.3398,-3.3124,-3.3124,-3.3124,-3.3124,-3.3124,-3.3124,-3.3124,-3.3124,-3.3124,-3.3124,-3.3124,-3.3124,-3.3124,-3.3124,-3.3124,-3.3124,-3.3124,-3.3124,-3.2909,-3.2519,-3.2431,-3.2213,-3.1805,-3.1472,-3.1294,-3.1294,-3.1003,-3.0498,-2.9795,-2.8028,-2.7047,-2.6781,-2.6052,-2.5693,0.0,0.0,0.0,0.0,0.0,0.0,-5.0896,-5.1125,-5.1303,0.0,0.0,0.0,0.0,0.0,0.0,0.0,0.0,0.0,0.0,0.0,0.0,0.0,0.0,0.0,0.0,-4.4788,-4.45,-4.4643,-4.4318,-4.3967,-4.3537,-4.2498,-4.1574,-4.0834,-4.0864,-4.0912,-4.0912,-4.0912,-4.0912,-4.0912,-4.1654,-4.2018,-4.2082,-4.332,-4.3512,-4.2871,-4.3019,-4.2115,-4.0388,-3.8638,-3.7855,-3.7707,-3.7138,-3.7092,-3.7198,-3.6219,-3.6046,-3.6029,-3.4219,-3.3996,-3.4293,-3.2812,-3.2411,-3.2594,-3.3064,-3.3208,-3.3326,-3.3901,-3.4228,-3.4397,-3.4397,-3.4397,-3.4397,-3.4397,-3.4063,-3.3713,-3.3713,-3.3398,-3.3124,-3.3124,-3.3124,-3.3124,-3.3124,-3.3124,-3.3124,-3.3124,-3.3124,-3.3124,-3.3124,-3.3124,-3.3124,-3.3124,-3.3124,-3.3124,-3.3124,-3.2995,-3.2766,-3.2431,-3.2313,-3.2081,-3.1705,-3.1705,-3.1705,-3.1705,-3.1705,-3.1193,-3.0215,-2.9004,-2.8028,-2.7189,-2.6197,-2.5693,0.0,0.0,0.0,0.0,0.0,0.0,-5.0493,-5.1,-5.1405,-5.0349,0.0,0.0,0.0,0.0,0.0,0.0,0.0,0.0,0.0,0.0,0.0,0.0,0.0,0.0,-4.4694,-4.4173,-4.3919,-4.4004,-4.4004,-4.3663,-4.2894,-4.2227,-4.1565,-4.0834,-4.0851,-4.0871,-4.0912,-4.0912,-4.0912,-4.0912,-4.1654,-4.1943,-4.1847,-4.3177,-4.3417,-4.2801,-4.2653,-4.1893,-4.0626,-3.9372,-3.9031,-3.917,-3.7892,-3.7754,-3.8138,-3.6938,-3.6923,-3.716,-3.4685,-3.4307,-3.4605,-3.2592,-3.1621,-3.1412,-3.2436,-3.2673,-3.2738,-3.3404,-3.3979,-3.4397,-3.4397,-3.4397,-3.4397,-3.4397,-3.4063,-3.3713,-3.3713,-3.3398,-3.3124,-3.3124,-3.3124,-3.3124,-3.3124,-3.3124,-3.3124,-3.3124,-3.3124,-3.3124,-3.3124,-3.3124,-3.3124,-3.3124,-3.3124,-3.3124,-3.3124,-3.2896,-3.268,-3.2431,-3.2169,-3.1937,-3.1749,-3.1705,-3.1705,-3.1705,-3.1705,-3.1238,-3.0351,-3.0125,-2.905,-2.7189,-2.6197,-2.5693,0.0,0.0,0.0,0.0,0.0,0.0,-5.1466,-5.1832,-5.1957,0.0,0.0,0.0,0.0,0.0,0.0,0.0,0.0,0.0,0.0,0.0,0.0,0.0,0.0,0.0,-4.4756,-4.4085,-4.3919,-4.4575,-4.461,-4.434,-4.3697,-4.2937,-4.2236,-4.1606,-4.103,-4.0793,-4.0912,-4.0912,-4.0912,-4.0912,-4.1654,-4.1943,-4.183,-4.2586,-4.3155,-4.3508,-4.331,-4.2796,-4.2058,-4.125,-3.9738,-3.7815,-3.7015,-3.6769,-3.6861,-3.6599,-3.6923,-3.7224,-3.5329,-3.5395,-3.5927,-3.3669,-3.2778,-3.2664,-3.2855,-3.248,-3.2189,-3.3287,-3.3979,-3.4397,-3.4397,-3.4397,-3.4397,-3.4397,-3.4063,-3.3713,-3.3713,-3.3398,-3.3124,-3.3124,-3.3124,-3.3124,-3.3124,-3.3124,-3.3124,-3.3124,-3.3124,-3.3124,-3.3124,-3.3124,-3.3124,-3.3124,-3.3124,-3.3124,-3.3124,-3.3038,-3.2896,-3.268,-3.2431,-3.2213,-3.1937,-3.1805,-3.1705,-3.1705,-3.1705,-3.1617,-3.1383,-2.9795,-2.8355,-2.7189,-2.6197,-2.5693,0.0,0.0,0.0,-5.1945,0.0,0.0,0.0,-5.0448,-5.0234,-4.9424,0.0,0.0,0.0,0.0,0.0,0.0,0.0,0.0,0.0,0.0,0.0,0.0,0.0,0.0,-4.4709,-4.4326,-4.4258,-4.4676,-4.4709,-4.4228,-4.3144,-4.3112,-4.2679,-4.163,-4.154,-4.1447,-4.1343,-4.1209,-4.1082,-4.0912,-4.1654,-4.1729,-4.1315,-4.2655,-4.3225,-4.3134,-4.3728,-4.3409,-4.2411,-4.172,-4.0079,-3.7888,-3.7249,-3.6999,-3.6953,-3.6615,-3.6923,-3.724,-3.5508,-3.575,-3.6382,-3.3994,-3.3113,-3.2993,-3.2643,-3.2182,-3.2045,-3.326,-3.3783,-3.4058,-3.4332,-3.4397,-3.4356,-3.4285,-3.3979,-3.367,-3.3556,-3.3313,-3.3124,-3.3124,-3.3124,-3.3124,-3.3124,-3.3124,-3.3124,-3.3124,-3.3124,-3.3124,-3.3124,-3.3124,-3.3124,-3.3124,-3.3124,-3.3124,-3.3124,-3.2982,-3.2853,-3.2711,-3.2376,-3.2125,-3.1994,-3.1805,-3.1705,-3.1705,-3.1705,-3.1705,-3.1705,-3.017,-2.8912,-2.7887,-2.6428,-2.5693,0.0,0.0,0.0,0.0,0.0,-5.0127,0.0,0.0,0.0,0.0,0.0,0.0,0.0,0.0,0.0,0.0,0.0,0.0,0.0,0.0,0.0,0.0,0.0,0.0,0.0,-4.4615,-4.4615,-4.4615,-4.4479,-4.3826,-4.2574,-4.3008,-4.2816,-4.1809,-4.2196,-4.2321,-4.2125,-4.1911,-4.1685,-4.1415,-4.2085,-4.1995,-4.1299,-4.3109,-4.349,-4.2777,-4.3936,-4.3737,-4.2555,-4.1752,-4.0281,-3.8526,-3.7795,-3.7402,-3.723,-3.6692,-3.6923,-3.7272,-3.5687,-3.5982,-3.6739,-3.4404,-3.3401,-3.3024,-3.2445,-3.2073,-3.2019,-3.3117,-3.3496,-3.3718,-3.4254,-3.4397,-3.4356,-3.416,-3.3894,-3.3641,-3.3441,-3.324,-3.3124,-3.3124,-3.3124,-3.3124,-3.3124,-3.3124,-3.3124,-3.3124,-3.3124,-3.3124,-3.3124,-3.3124,-3.3124,-3.3124,-3.3124,-3.3124,-3.3124,-3.2896,-3.2766,-3.2766,-3.2376,-3.2125,-3.2081,-3.1849,-3.1705,-3.1705,-3.1705,-3.1705,-3.1705,-3.0678,-2.9692,-2.868,-2.6839,-2.5868,0.0,0.0,0.0,0.0,-5.0194,0.0,0.0,0.0,-4.9023,-4.8471,0.0,0.0,0.0,0.0,0.0,0.0,0.0,0.0,0.0,0.0,0.0,0.0,0.0,0.0,0.0,-4.4615,-4.4615,-4.4615,-4.3944,-4.347,-4.3274,-4.2518,-4.2398,-4.3064,-4.2905,-4.298,-4.3284,-4.3286,-4.3234,-4.3204,-4.3647,-4.3621,-4.3197,-4.3811,-4.3886,-4.3569,-4.3739,-4.3637,-4.328,-4.1967,-4.0603,-3.9249,-3.7911,-3.7092,-3.6599,-3.6522,-3.6923,-3.7336,-3.6265,-3.6756,-3.7578,-3.5809,-3.4312,-3.3176,-3.3024,-3.2444,-3.1941,-3.2607,-3.3182,-3.3718,-3.4254,-3.4397,-3.4356,-3.416,-3.3894,-3.3641,-3.3441,-3.324,-3.3124,-3.3124,-3.3124,-3.3124,-3.3124,-3.3124,-3.3124,-3.3124,-3.3124,-3.3124,-3.3124,-3.3124,-3.3124,-3.3124,-3.3124,-3.3124,-3.3124,-3.3068,-3.3068,-3.3068,-3.2766,-3.255,-3.2344,-3.1937,-3.1705,-3.1705,-3.1705,-3.1705,-3.1705,-3.0678,-2.9692,-2.868,-2.7558,-2.6552,0.0,0.0,0.0,0.0,0.0,0.0,-4.7417,0.0,-4.6707,0.0,0.0,0.0,0.0,0.0,0.0,0.0,0.0,0.0,0.0,0.0,0.0,0.0,0.0,0.0,0.0,0.0,0.0,0.0,-4.3578,-4.302,-4.2185,-4.2124,-4.2475,-4.316,-4.3354,-4.3757,-4.4477,-4.4317,-4.4036,-4.3633,-4.4265,-4.4123,-4.3338,-4.3786,-4.3672,-4.3096,-4.2955,-4.2611,-4.2126,-4.1523,-4.0509,-3.9235,-3.8309,-3.7342,-3.6492,-3.6492,-3.6923,-3.7397,-3.6801,-3.7461,-3.8281,-3.6522,-3.4985,-3.3742,-3.3288,-3.2613,-3.2097,-3.2698,-3.2948,-3.3208,-3.3783,-3.4162,-3.4314,-3.3937,-3.3768,-3.3598,-3.3283,-3.3154,-3.3124,-3.3124,-3.3124,-3.3124,-3.3124,-3.3124,-3.3124,-3.3124,-3.3124,-3.3124,-3.3124,-3.3124,-3.3124,-3.3124,-3.3124,-3.3124,-3.3124,-3.3124,-3.3124,-3.3124,-3.2736,-3.2431,-3.2169,-3.1893,-3.1705,-3.1705,-3.1705,-3.1705,-3.1705,-3.1282,-3.0543,-2.9521,-2.7934,-2.6648,-4.9792,0.0,0.0,0.0,0.0,0.0,0.0,0.0,0.0,0.0,0.0,0.0,0.0,0.0,0.0,0.0,0.0,0.0,0.0,0.0,0.0,0.0,0.0,0.0,0.0,0.0,0.0,-4.3115,-4.3115,-4.2642,-4.1559,-4.1927,-4.2629,-4.3586,-4.4085,-4.4758,-4.5646,-4.5343,-4.4951,-4.4577,-4.4935,-4.4739,-4.4069,-4.4311,-4.4,-4.3242,-4.287,-4.233,-4.1779,-4.1373,-4.0536,-3.9417,-3.8611,-3.7663,-3.6723,-3.6554,-3.6799,-3.7167,-3.6862,-3.7304,-3.7888,-3.6915,-3.5545,-3.424,-3.3864,-3.3128,-3.2535,-3.3115,-3.3179,-3.3133,-3.3727,-3.4144,-3.4272,-3.3797,-3.3713,-3.3598,-3.3197,-3.3124,-3.3124,-3.3124,-3.3124,-3.3124,-3.3124,-3.3124,-3.3124,-3.3124,-3.3124,-3.3124,-3.3124,-3.3124,-3.3124,-3.3124,-3.3124,-3.3124,-3.3124,-3.3124,-3.3124,-3.3124,-3.2649,-3.23,-3.2125,-3.1849,-3.1705,-3.1705,-3.1705,-3.1705,-3.1705,-3.1705,-3.1193,-3.0158,-2.868,-2.7342,0.0,0.0,0.0,-4.6814,0.0,0.0,0.0,0.0,-4.371,0.0,0.0,0.0,0.0,0.0,0.0,0.0,0.0,0.0,0.0,0.0,0.0,0.0,0.0,0.0,0.0,0.0,0.0,-4.2388,-4.2337,-4.2303,-4.2252,-4.203,-4.2833,-4.4863,-4.5384,-4.6025,-4.685,-4.6312,-4.6312,-4.6791,-4.5968,-4.5792,-4.6192,-4.5893,-4.5363,-4.4701,-4.396,-4.3539,-4.3206,-4.1796,-4.0838,-4.0122,-3.8807,-3.7924,-3.7298,-3.6723,-3.6507,-3.6491,-3.6146,-3.5857,-3.5804,-3.6982,-3.5971,-3.4428,-3.5038,-3.4274,-3.3269,-3.3886,-3.3941,-3.3912,-3.452,-3.4512,-3.4272,-3.3797,-3.3713,-3.3598,-3.3197,-3.3124,-3.3124,-3.3124,-3.3124,-3.3124,-3.3124,-3.3124,-3.3124,-3.3124,-3.3124,-3.3124,-3.3124,-3.3124,-3.3124,-3.3124,-3.3124,-3.3124,-3.3124,-3.3124,-3.3124,-3.3124,-3.2649,-3.24,-3.24,-3.1937,-3.1705,-3.1705,-3.1705,-3.1705,-3.1705,-3.1705,-3.1193,-3.0215,-3.0113,-2.905,0.0,0.0,-4.6289,-4.5918,0.0,0.0,0.0,0.0,0.0,0.0,0.0,0.0,0.0,0.0,0.0,0.0,0.0,0.0,0.0,0.0,0.0,0.0,0.0,0.0,0.0,0.0,0.0,-4.1593,-4.2016,-4.2083,-4.1593,-4.1945,-4.2781,-4.4161,-4.4366,-4.4966,-4.6083,-4.6275,-4.6413,-4.6501,-4.6543,-4.637,-4.5935,-4.5204,-4.4294,-4.3212,-4.2419,-4.173,-4.117,-4.0663,-4.034,-4.0057,-3.8794,-3.8181,-3.7867,-3.6861,-3.6492,-3.6522,-3.6633,-3.6444,-3.6222,-3.6656,-3.6026,-3.5144,-3.5352,-3.4718,-3.3982,-3.4183,-3.4461,-3.4578,-3.4174,-3.4699,-3.5032,-3.4189,-3.3852,-3.3641,-3.3356,-3.3197,-3.3124,-3.3124,-3.3124,-3.3124,-3.3124,-3.3124,-3.3124,-3.3124,-3.3124,-3.3124,-3.3124,-3.3124,-3.3124,-3.3124,-3.3124,-3.3124,-3.3124,-3.3124,-3.3025,-3.2853,-3.2562,-3.23,-3.2125,-3.1849,-3.1705,-3.1705,-3.1705,-3.1705,-3.1705,-3.1705,-3.1528,-3.1193,-3.1193,-2.9749,-4.5956,-4.5734,0.0,-4.5199,-4.5125,0.0,-4.3954,0.0,0.0,0.0,0.0,0.0,0.0,0.0,0.0,0.0,0.0,0.0,0.0,-4.0096,0.0,0.0,0.0,0.0,0.0,0.0,-4.1474,-4.1221,-4.2134,-4.2489,0.0,0.0,-4.3082,-4.3927,-4.4102,-4.4558,-4.5298,-4.5907,-4.628,-4.6389,-4.6829,-4.6724,-4.6158,-4.5379,-4.4448,-4.345,-4.2419,-4.1559,-4.0874,-4.062,-4.035,-3.9995,-3.875,-3.8306,-3.8137,-3.6937,-3.6429,-3.6365,-3.6554,-3.6429,-3.6133,-3.6133,-3.5848,-3.5504,-3.5504,-3.5296,-3.5096,-3.5096,-3.5464,-3.5642,-3.4765,-3.512,-3.5426,-3.4356,-3.3894,-3.3641,-3.3441,-3.324,-3.3124,-3.3124,-3.3124,-3.3124,-3.3124,-3.3124,-3.3124,-3.3124,-3.3124,-3.3124,-3.3124,-3.3124,-3.3124,-3.3124,-3.3124,-3.3124,-3.3124,-3.3124,-3.2995,-3.2723,-3.2519,-3.2257,-3.1994,-3.1805,-3.1705,-3.1705,-3.1705,-3.1705,-3.1705,-3.1705,-3.1705,-3.1705,-3.1327,-3.0125]},{"header":{"parameterUnit":"m.s-1","parameterCategory":1,"la1":30.6,"la2":29.2853,"lo1":-89.7004,"lo2":-87.6739,"dy":0.0162,"dx":0.0183,"nx":112,"ny":82,"refTime":"2023-03-03T18:00:00:Z","depth":0,"parameterNumber":3,"parameterNumberName":"V-component_of_WINDS"},"data":[0.0,0.0,0.0,0.0,0.0,0.0,0.0,0.0,0.0,0.0,0.0,0.0,0.0,0.0,0.0,0.0,0.0,0.0,0.0,0.0,0.0,0.0,0.0,0.0,0.0,0.0,0.0,0.0,0.0,0.0,0.0,0.0,0.0,0.0,0.0,0.0,0.0,0.0,0.0,0.0,0.0,0.0,0.0,0.0,0.0,0.0,0.0,0.0,0.0,0.0,0.0,0.0,0.0,0.0,0.0,0.0,0.0,0.0,0.0,0.0,0.0,0.0,0.0,0.0,0.0,0.0,0.0,0.0,0.0,0.0,0.0,0.0,0.0,0.0,0.0,0.0,0.0,0.0,0.0,0.0,0.0,0.0,0.0,0.0,0.0,0.0,0.0,0.0,0.0,0.0,-3.8575,-3.824,-3.8202,-3.8202,-3.8202,-3.8899,-3.9552,-4.0114,0.0,0.0,0.0,0.0,0.0,0.0,0.0,0.0,0.0,0.0,0.0,0.0,0.0,0.0,0.0,0.0,0.0,0.0,0.0,0.0,0.0,0.0,0.0,0.0,0.0,0.0,0.0,0.0,0.0,0.0,0.0,0.0,0.0,0.0,0.0,0.0,0.0,0.0,0.0,0.0,0.0,0.0,0.0,0.0,0.0,0.0,0.0,0.0,0.0,0.0,0.0,0.0,0.0,0.0,0.0,0.0,0.0,0.0,0.0,0.0,0.0,0.0,0.0,0.0,0.0,0.0,0.0,0.0,0.0,0.0,0.0,0.0,0.0,0.0,0.0,0.0,0.0,0.0,0.0,0.0,0.0,0.0,0.0,0.0,0.0,0.0,0.0,0.0,0.0,0.0,0.0,0.0,0.0,0.0,0.0,0.0,0.0,0.0,0.0,0.0,0.0,0.0,0.0,0.0,-3.8277,-3.8202,-3.8202,-3.8202,-3.8202,-3.9276,-4.0095,-4.0422,0.0,0.0,0.0,0.0,0.0,0.0,0.0,0.0,0.0,0.0,0.0,0.0,0.0,0.0,0.0,0.0,0.0,0.0,0.0,0.0,0.0,0.0,0.0,0.0,0.0,0.0,0.0,0.0,0.0,0.0,0.0,0.0,0.0,0.0,0.0,0.0,0.0,0.0,0.0,0.0,0.0,0.0,0.0,0.0,0.0,0.0,0.0,0.0,0.0,0.0,0.0,0.0,0.0,0.0,0.0,0.0,0.0,0.0,0.0,0.0,0.0,0.0,0.0,0.0,0.0,0.0,0.0,0.0,0.0,0.0,0.0,0.0,0.0,0.0,0.0,0.0,0.0,0.0,0.0,0.0,0.0,0.0,0.0,0.0,0.0,0.0,0.0,0.0,0.0,0.0,0.0,0.0,0.0,0.0,0.0,0.0,0.0,0.0,0.0,0.0,0.0,0.0,0.0,-3.8361,-3.7491,-3.7491,-3.7078,-3.6986,-3.7453,-3.8357,-3.9373,-4.0422,-4.1581,0.0,0.0,0.0,0.0,0.0,0.0,0.0,0.0,0.0,0.0,0.0,0.0,0.0,0.0,0.0,0.0,0.0,0.0,0.0,0.0,0.0,0.0,0.0,0.0,0.0,0.0,0.0,0.0,0.0,0.0,0.0,0.0,0.0,0.0,0.0,0.0,0.0,0.0,0.0,0.0,0.0,0.0,0.0,0.0,0.0,0.0,0.0,0.0,0.0,0.0,0.0,0.0,0.0,0.0,0.0,0.0,0.0,0.0,0.0,0.0,0.0,0.0,0.0,0.0,0.0,0.0,0.0,0.0,0.0,0.0,0.0,0.0,0.0,0.0,0.0,0.0,0.0,0.0,0.0,0.0,0.0,0.0,0.0,0.0,0.0,0.0,0.0,0.0,0.0,0.0,0.0,0.0,0.0,0.0,0.0,0.0,0.0,0.0,0.0,0.0,0.0,0.0,-3.7529,-3.6975,-3.7169,-3.6439,-3.6267,-3.713,-3.7955,-3.9018,-4.0407,-4.1405,0.0,0.0,0.0,0.0,0.0,0.0,0.0,0.0,0.0,0.0,0.0,0.0,0.0,0.0,0.0,0.0,0.0,0.0,0.0,0.0,0.0,0.0,0.0,0.0,0.0,0.0,0.0,0.0,0.0,0.0,0.0,0.0,0.0,0.0,0.0,0.0,0.0,0.0,0.0,0.0,0.0,0.0,0.0,0.0,0.0,0.0,0.0,0.0,0.0,0.0,0.0,0.0,0.0,0.0,0.0,0.0,0.0,0.0,0.0,0.0,0.0,0.0,0.0,0.0,0.0,0.0,0.0,0.0,0.0,0.0,0.0,0.0,0.0,0.0,0.0,0.0,0.0,0.0,0.0,0.0,0.0,0.0,0.0,0.0,0.0,0.0,0.0,0.0,0.0,0.0,0.0,0.0,0.0,0.0,0.0,0.0,0.0,0.0,0.0,0.0,0.0,0.0,-3.7453,-3.7208,-3.8,-3.7323,-3.7169,-3.8037,-3.9242,-4.0099,-4.0476,-4.1817,0.0,0.0,0.0,0.0,0.0,0.0,0.0,0.0,0.0,0.0,0.0,0.0,0.0,0.0,0.0,0.0,0.0,0.0,0.0,0.0,0.0,0.0,0.0,0.0,0.0,0.0,0.0,0.0,0.0,0.0,0.0,0.0,0.0,0.0,0.0,0.0,0.0,0.0,0.0,0.0,0.0,0.0,0.0,0.0,0.0,0.0,0.0,0.0,0.0,0.0,0.0,0.0,0.0,0.0,0.0,0.0,0.0,0.0,0.0,0.0,0.0,0.0,0.0,0.0,0.0,0.0,0.0,0.0,0.0,0.0,0.0,0.0,0.0,0.0,0.0,0.0,0.0,0.0,0.0,0.0,0.0,0.0,0.0,0.0,0.0,0.0,0.0,0.0,0.0,0.0,0.0,0.0,0.0,0.0,0.0,0.0,0.0,0.0,0.0,0.0,0.0,0.0,-3.7529,-3.7014,0.0,-3.6596,-3.6439,-3.7323,-3.7943,-3.9001,-4.0612,0.0,0.0,0.0,0.0,0.0,0.0,0.0,0.0,0.0,0.0,0.0,0.0,0.0,0.0,0.0,0.0,0.0,0.0,0.0,0.0,0.0,0.0,0.0,0.0,0.0,0.0,0.0,0.0,0.0,0.0,0.0,0.0,0.0,0.0,0.0,0.0,0.0,0.0,0.0,0.0,0.0,0.0,0.0,0.0,0.0,0.0,0.0,0.0,0.0,0.0,0.0,0.0,0.0,0.0,0.0,0.0,0.0,0.0,0.0,0.0,0.0,0.0,0.0,0.0,0.0,0.0,0.0,0.0,0.0,0.0,0.0,0.0,0.0,0.0,0.0,0.0,0.0,0.0,0.0,0.0,0.0,0.0,0.0,0.0,0.0,0.0,0.0,0.0,0.0,0.0,0.0,0.0,0.0,0.0,0.0,0.0,0.0,0.0,0.0,0.0,0.0,0.0,-3.8654,-3.763,-3.7078,0.0,-3.6621,-3.6503,-3.7424,-3.784,-3.8851,-4.0775,0.0,0.0,0.0,0.0,0.0,0.0,0.0,0.0,0.0,0.0,0.0,0.0,0.0,0.0,0.0,0.0,0.0,0.0,0.0,0.0,0.0,0.0,0.0,0.0,0.0,0.0,0.0,0.0,0.0,0.0,0.0,0.0,0.0,0.0,0.0,0.0,0.0,0.0,0.0,0.0,0.0,0.0,0.0,0.0,0.0,0.0,0.0,0.0,0.0,0.0,0.0,0.0,0.0,0.0,0.0,0.0,0.0,0.0,0.0,0.0,0.0,0.0,0.0,0.0,0.0,0.0,0.0,0.0,0.0,0.0,0.0,0.0,0.0,0.0,0.0,0.0,0.0,0.0,0.0,0.0,0.0,0.0,0.0,0.0,0.0,0.0,0.0,0.0,0.0,0.0,0.0,0.0,0.0,0.0,0.0,0.0,0.0,0.0,0.0,0.0,0.0,0.0,-3.8676,-3.7729,-3.7539,-3.8389,-3.7729,-3.7639,-3.8708,-3.9416,-4.0155,0.0,0.0,0.0,0.0,0.0,0.0,0.0,0.0,0.0,0.0,0.0,0.0,0.0,0.0,0.0,0.0,0.0,0.0,0.0,0.0,0.0,0.0,0.0,0.0,0.0,0.0,0.0,0.0,0.0,0.0,0.0,0.0,0.0,0.0,0.0,0.0,0.0,0.0,0.0,0.0,0.0,0.0,0.0,0.0,0.0,0.0,0.0,0.0,0.0,0.0,0.0,0.0,0.0,0.0,0.0,0.0,0.0,0.0,0.0,0.0,0.0,0.0,0.0,0.0,0.0,0.0,0.0,0.0,0.0,0.0,0.0,0.0,0.0,0.0,0.0,0.0,0.0,0.0,0.0,0.0,0.0,0.0,0.0,0.0,0.0,0.0,0.0,0.0,0.0,0.0,0.0,0.0,0.0,0.0,0.0,0.0,0.0,0.0,0.0,0.0,0.0,0.0,0.0,-3.8789,-3.8375,-3.8263,-3.8686,-3.8472,-3.8472,-3.8782,-3.955,-4.0329,-4.105,0.0,0.0,0.0,0.0,0.0,0.0,0.0,0.0,0.0,0.0,0.0,0.0,0.0,0.0,0.0,0.0,0.0,0.0,0.0,0.0,0.0,0.0,0.0,0.0,0.0,0.0,0.0,0.0,0.0,0.0,0.0,0.0,0.0,0.0,0.0,0.0,0.0,0.0,0.0,0.0,0.0,0.0,0.0,0.0,0.0,0.0,0.0,0.0,0.0,0.0,0.0,0.0,0.0,0.0,0.0,0.0,0.0,0.0,0.0,0.0,0.0,0.0,0.0,0.0,0.0,0.0,0.0,0.0,0.0,0.0,0.0,0.0,0.0,0.0,0.0,0.0,0.0,0.0,0.0,0.0,0.0,0.0,0.0,0.0,0.0,0.0,0.0,0.0,0.0,0.0,0.0,0.0,0.0,0.0,0.0,0.0,0.0,0.0,0.0,0.0,0.0,0.0,-3.938,-3.8959,-3.89,-3.9262,-3.9328,-3.9469,-3.981,-4.0323,-4.0919,-4.159,0.0,0.0,0.0,0.0,0.0,0.0,0.0,0.0,0.0,0.0,0.0,0.0,0.0,0.0,0.0,0.0,0.0,0.0,0.0,0.0,0.0,0.0,0.0,0.0,0.0,0.0,0.0,0.0,0.0,0.0,0.0,0.0,0.0,0.0,0.0,0.0,0.0,0.0,0.0,0.0,0.0,0.0,0.0,0.0,0.0,0.0,0.0,0.0,0.0,0.0,0.0,0.0,0.0,0.0,0.0,0.0,0.0,0.0,0.0,0.0,0.0,0.0,0.0,0.0,0.0,0.0,0.0,0.0,0.0,0.0,0.0,0.0,0.0,0.0,0.0,0.0,0.0,0.0,0.0,0.0,0.0,0.0,0.0,0.0,0.0,0.0,0.0,0.0,0.0,0.0,0.0,0.0,0.0,0.0,0.0,0.0,0.0,0.0,0.0,0.0,0.0,0.0,-4.0211,-3.9609,-3.9491,-4.0062,-4.0167,-4.0524,-4.1324,-4.1482,-4.1767,-4.2366,0.0,0.0,0.0,0.0,0.0,0.0,0.0,0.0,0.0,0.0,0.0,0.0,0.0,0.0,0.0,0.0,0.0,0.0,0.0,0.0,0.0,0.0,0.0,0.0,0.0,0.0,0.0,0.0,0.0,0.0,0.0,0.0,0.0,0.0,0.0,0.0,0.0,0.0,0.0,0.0,0.0,0.0,0.0,0.0,0.0,0.0,0.0,0.0,0.0,0.0,0.0,0.0,0.0,0.0,0.0,0.0,0.0,0.0,0.0,0.0,-3.3446,0.0,0.0,0.0,0.0,0.0,0.0,0.0,0.0,0.0,0.0,0.0,0.0,0.0,0.0,0.0,0.0,0.0,0.0,0.0,0.0,0.0,0.0,0.0,0.0,0.0,0.0,0.0,0.0,0.0,0.0,0.0,0.0,0.0,0.0,0.0,0.0,0.0,0.0,0.0,0.0,0.0,-4.0211,-4.0426,-4.0606,-4.0368,-4.0823,-4.1182,-4.1369,-4.1886,-4.2246,-4.2396,-4.2851,0.0,0.0,0.0,0.0,0.0,0.0,0.0,0.0,0.0,0.0,0.0,0.0,0.0,0.0,0.0,0.0,0.0,0.0,0.0,0.0,0.0,0.0,0.0,0.0,0.0,0.0,0.0,0.0,0.0,0.0,0.0,0.0,0.0,0.0,0.0,0.0,0.0,0.0,0.0,0.0,0.0,0.0,0.0,0.0,0.0,0.0,0.0,0.0,0.0,0.0,0.0,0.0,0.0,0.0,0.0,0.0,0.0,0.0,0.0,0.0,-3.3449,0.0,0.0,0.0,0.0,0.0,0.0,0.0,0.0,0.0,0.0,0.0,0.0,0.0,0.0,0.0,0.0,0.0,0.0,0.0,0.0,0.0,0.0,0.0,0.0,0.0,0.0,0.0,0.0,0.0,0.0,0.0,0.0,0.0,0.0,0.0,0.0,0.0,0.0,0.0,0.0,-4.1255,-4.1217,-4.127,-4.1339,-4.1692,-4.2021,-4.2297,-4.2381,-4.2396,-4.2396,-4.2671,0.0,0.0,0.0,0.0,0.0,0.0,0.0,0.0,0.0,0.0,0.0,0.0,0.0,0.0,0.0,0.0,0.0,0.0,0.0,0.0,0.0,0.0,0.0,0.0,0.0,0.0,0.0,0.0,0.0,0.0,0.0,0.0,0.0,0.0,0.0,0.0,0.0,0.0,0.0,0.0,0.0,0.0,0.0,0.0,0.0,0.0,0.0,0.0,0.0,0.0,0.0,0.0,0.0,-3.0801,-3.1406,-3.1038,-3.1656,-3.1845,-3.1753,-3.2668,-3.2815,-3.2539,-3.2984,0.0,0.0,0.0,0.0,0.0,0.0,0.0,0.0,0.0,0.0,0.0,0.0,0.0,0.0,0.0,0.0,0.0,0.0,0.0,0.0,0.0,0.0,0.0,0.0,-3.9392,-3.929,0.0,0.0,0.0,0.0,0.0,0.0,0.0,0.0,0.0,0.0,0.0,0.0,-4.2261,-4.1961,-4.1788,-4.2036,-4.2366,-4.2656,-4.2931,-4.2611,-4.2351,-4.2231,-4.2231,-4.2231,0.0,0.0,0.0,0.0,0.0,0.0,0.0,0.0,0.0,0.0,0.0,0.0,0.0,0.0,0.0,0.0,0.0,0.0,0.0,0.0,0.0,0.0,0.0,0.0,0.0,0.0,0.0,0.0,0.0,0.0,0.0,0.0,-2.7317,-2.6069,0.0,0.0,0.0,0.0,0.0,0.0,0.0,0.0,0.0,0.0,0.0,0.0,0.0,-2.6478,-2.646,-2.8423,-2.8855,-2.7861,-3.0045,-3.0704,-3.0045,-3.0963,-3.1499,-3.1717,-3.1862,0.0,-3.2515,-3.2714,0.0,0.0,0.0,0.0,0.0,0.0,0.0,0.0,0.0,0.0,0.0,0.0,0.0,0.0,0.0,0.0,0.0,0.0,0.0,0.0,0.0,0.0,-3.8362,-3.8434,-3.8391,-3.8362,0.0,-3.958,-4.0554,-4.0554,-4.0253,0.0,0.0,0.0,0.0,0.0,0.0,0.0,-4.1654,-4.2432,-4.2462,-4.0831,-4.2177,-4.2776,-4.1728,-4.2126,-4.2156,-4.1587,-4.1504,-4.1504,-4.1504,-4.2188,0.0,0.0,0.0,0.0,0.0,0.0,0.0,0.0,0.0,0.0,0.0,0.0,0.0,0.0,0.0,0.0,0.0,0.0,0.0,0.0,0.0,0.0,0.0,0.0,0.0,0.0,0.0,0.0,0.0,-2.6237,-2.5362,-2.4785,-2.5052,-2.5223,0.0,0.0,0.0,0.0,0.0,0.0,0.0,0.0,0.0,-2.4341,-2.4864,-2.5109,-2.503,-2.657,-2.7332,-2.7389,-2.8945,-2.9988,-3.0487,-3.0916,-3.1318,-3.1705,-3.1705,-3.1849,-3.2034,-3.2102,-3.2235,-3.2415,0.0,0.0,0.0,0.0,-3.6838,-3.8595,-3.8687,-3.8789,0.0,-3.8991,0.0,0.0,0.0,0.0,0.0,0.0,0.0,0.0,0.0,0.0,-3.8202,-3.8202,-3.8202,-3.8202,-3.8202,-3.8728,-3.925,0.0,-3.9393,-3.9469,-4.0137,0.0,0.0,0.0,0.0,-4.308,-4.2551,-4.2931,-4.2961,-4.2132,-4.2781,-4.2955,-4.2051,-4.1901,-4.1722,-4.1437,-4.1422,-4.1422,-4.1422,-4.204,-4.2278,0.0,0.0,0.0,0.0,0.0,0.0,0.0,0.0,0.0,0.0,0.0,0.0,0.0,0.0,0.0,0.0,0.0,0.0,0.0,0.0,0.0,0.0,0.0,0.0,0.0,0.0,0.0,0.0,-2.4485,-2.4202,-2.4202,-2.4202,-2.4202,0.0,0.0,0.0,0.0,0.0,0.0,-2.4202,-2.4202,-2.4202,-2.4202,-2.4202,-2.4202,-2.4202,-2.5216,-2.6071,-2.6819,-2.8107,-2.9371,-3.0589,-3.0883,-3.1241,-3.1705,-3.1705,-3.1705,-3.1705,-3.1705,-3.1705,-3.1705,-3.1957,-3.3066,-3.4541,-3.4802,-3.6082,-3.7739,-3.7815,-3.7953,-3.8127,-3.8165,0.0,-3.8202,-3.8202,0.0,0.0,0.0,0.0,-3.8202,-3.8202,-3.8202,-3.8202,-3.8202,-3.8202,-3.8202,-3.8202,-3.824,-3.8352,0.0,-3.8686,-3.8981,-3.9817,0.0,0.0,0.0,0.0,-4.323,-4.3105,-4.3185,-4.317,-4.2826,-4.3095,-4.2925,-4.1991,-4.1767,-4.1527,-4.1145,-4.113,-4.1205,-4.1407,-4.1919,-4.2356,-4.2771,0.0,0.0,0.0,0.0,0.0,0.0,0.0,0.0,0.0,0.0,0.0,0.0,0.0,0.0,0.0,0.0,0.0,0.0,0.0,0.0,0.0,0.0,0.0,0.0,0.0,0.0,0.0,0.0,0.0,-2.4202,-2.4202,0.0,0.0,0.0,0.0,-2.4202,-2.4202,-2.4202,-2.4202,-2.4202,-2.4202,-2.4202,-2.4202,-2.4202,-2.4202,-2.5216,-2.5742,-2.579,-2.7778,-2.898,-2.951,-3.0532,-3.1241,-3.1705,-3.1705,-3.1705,-3.1705,-3.1705,-3.1705,-3.1793,-3.2618,-3.3479,-3.443,-3.5332,-3.6362,-3.7341,-3.7534,-3.7739,-3.7929,-3.8127,-3.8202,-3.8202,-3.8202,-3.8202,0.0,0.0,-3.8202,-3.8202,-3.8202,-3.8202,-3.8202,-3.8202,-3.8202,-3.8202,-3.8202,-3.8366,-3.8441,0.0,-3.8389,-3.859,-3.8826,0.0,-4.1186,-4.1429,-4.2521,-4.3105,-4.253,-4.2955,-4.2826,-4.1609,-4.2596,-4.2527,-4.0666,-4.1647,-4.1826,-4.0531,-4.0442,-4.0726,-4.1354,-4.1488,-4.2199,-4.351,-4.4268,0.0,0.0,0.0,0.0,0.0,0.0,0.0,0.0,0.0,0.0,0.0,0.0,0.0,0.0,0.0,0.0,0.0,0.0,0.0,0.0,0.0,0.0,0.0,0.0,0.0,0.0,0.0,0.0,-2.4202,-2.4202,0.0,-2.4202,-2.4202,-2.4202,-2.4202,-2.4202,-2.4202,-2.4202,-2.4202,-2.4202,-2.4202,-2.4202,-2.4202,-2.4202,-2.4538,-2.5546,-2.7171,-2.7583,-2.8773,-3.0686,-3.074,-3.0994,-3.1439,-3.1439,-3.1528,-3.1705,-3.1705,-3.1705,-3.1793,-3.2661,-3.3522,-3.443,-3.5359,-3.648,-3.7495,-3.7586,-3.7801,-3.8104,-3.8165,-3.8202,-3.8202,-3.8202,-3.8202,-3.8202,-3.8202,-3.8202,-3.8202,-3.8202,-3.8202,-3.8202,-3.8202,-3.8536,-3.8841,-3.8841,-3.9184,-3.9421,-3.9089,-3.8868,-3.8892,-3.9543,-4.0448,-4.1305,-4.1953,-4.2761,-4.32,-4.3015,-4.3155,-4.311,-4.2686,-4.3021,-4.288,-4.1796,-4.1737,-4.1752,-4.1707,-4.1743,-4.1849,-4.2034,-4.3005,-4.382,-4.4357,-4.5032,-4.5814,0.0,0.0,0.0,0.0,0.0,0.0,0.0,0.0,0.0,0.0,0.0,0.0,0.0,0.0,0.0,0.0,0.0,0.0,0.0,0.0,0.0,0.0,0.0,0.0,0.0,0.0,-2.4053,-2.4053,-2.4152,-2.4202,-2.4202,-2.4202,-2.4202,-2.4202,-2.4202,-2.4202,-2.4202,-2.4202,-2.4202,-2.4202,-2.4339,-2.4413,-2.4413,-2.4743,-2.5956,-2.7942,-2.7762,-2.9011,-3.1368,-3.1087,-3.1196,-3.1568,-3.1669,-3.1696,-3.1705,-3.1705,-3.1705,-3.1837,-3.2993,-3.3985,-3.4897,-3.5776,-3.673,-3.7495,-3.7663,-3.7915,-3.8202,-3.8202,-3.8202,-3.8202,-3.8202,-3.8202,-3.8202,-3.8202,-3.8202,-3.8202,-3.8202,-3.8202,-3.8202,-3.8202,-3.8551,-3.8928,-3.916,-3.9387,-3.9561,-3.951,-3.9303,-3.9269,-3.9676,-4.0382,-4.1143,-4.1938,-4.2402,-4.2796,-4.323,-4.3135,-4.309,-4.3275,-4.329,-4.3075,-4.2455,-4.2162,-4.2233,-4.275,-4.2821,-4.2911,-4.3144,-4.418,-4.4834,-4.5079,-4.5864,-4.6436,-4.6779,0.0,0.0,0.0,0.0,0.0,0.0,0.0,0.0,0.0,0.0,0.0,0.0,0.0,0.0,0.0,0.0,0.0,0.0,0.0,0.0,0.0,0.0,0.0,-2.3397,-2.3596,-2.3805,-2.3805,-2.4003,-2.4202,-2.4202,-2.4202,-2.4202,-2.4202,-2.4202,-2.4211,-2.422,-2.4211,-2.4211,-2.422,-2.4615,-2.4785,-2.4785,-2.5748,-2.6774,-2.7837,-2.8411,-2.9615,-3.1402,-3.1598,-3.185,-3.2079,-3.2354,-3.2202,-3.1765,-3.1765,-3.1797,-3.2006,-3.3661,-3.4856,-3.5749,-3.6652,-3.7148,-3.738,-3.7777,-3.8028,-3.8202,-3.8202,-3.8202,-3.8202,-3.8202,-3.8202,-3.8202,-3.8202,-3.8202,-3.8202,-3.8202,-3.8202,-3.8202,-3.8202,-3.8217,-3.8405,-3.9059,-3.8876,-3.8779,-3.9431,-3.9715,-3.9712,-3.9216,-3.9831,-4.0651,-4.1347,-4.1467,0.0,-4.3125,-4.2776,-4.2626,-4.32,-4.329,-4.3075,-4.2455,-4.294,-4.3352,-4.3482,-4.3516,-4.3852,-4.4539,-4.4744,-4.5113,-4.5694,-4.6599,-4.6729,-4.6012,0.0,0.0,0.0,0.0,0.0,0.0,0.0,0.0,0.0,0.0,0.0,0.0,0.0,0.0,0.0,0.0,0.0,0.0,0.0,0.0,0.0,0.0,-2.3197,-2.3347,-2.3447,-2.3506,-2.3506,-2.3596,-2.3596,-2.3596,-2.3637,-2.3678,-2.3904,-2.3922,-2.4108,-2.4592,-2.4367,-2.4339,-2.4652,-2.4721,-2.4785,-2.4785,-2.5071,-2.6449,-2.8896,-2.8422,-2.9404,-3.1619,-3.153,-3.1598,-3.1804,-3.2091,-3.2474,-3.2839,-3.2839,-3.3654,-3.4845,-3.4464,-3.4472,-3.4856,-3.6441,-3.7226,-3.7534,-3.7815,-3.8028,-3.8202,-3.8202,-3.8202,-3.8202,-3.8202,-3.8202,-3.8202,-3.8202,-3.8202,-3.8202,-3.8202,-3.8202,-3.8202,-3.8202,-3.8565,-3.901,-3.9337,-4.0027,-4.0598,-4.0642,-4.1068,-4.1047,-4.001,-4.0554,-4.1324,-4.2036,-4.2491,0.0,-4.3245,-4.314,-4.2955,-4.2671,-4.3045,-4.3075,-4.2455,-4.3031,-4.3448,-4.3436,-4.4075,-4.4271,-4.3876,-4.495,-4.5644,-4.5904,-4.6312,-4.6474,0.0,0.0,0.0,0.0,0.0,0.0,0.0,0.0,0.0,0.0,0.0,0.0,0.0,0.0,0.0,0.0,0.0,0.0,0.0,0.0,0.0,0.0,-2.2996,-2.2896,-2.3046,-2.3147,-2.3247,-2.3247,-2.3347,-2.3397,-2.3397,-2.3379,-2.3488,-2.3596,-2.3876,-2.4235,-2.4614,-2.4652,-2.4753,-2.4776,-2.5157,-2.5197,-2.5032,-2.5652,-2.7068,-2.9259,-2.9,-2.9882,-3.1743,-3.1821,-3.1797,-3.1713,-3.2103,-3.2522,-3.2959,-3.2959,-3.3991,0.0,0.0,0.0,0.0,0.0,-3.7264,-3.7625,-3.7739,-3.7953,-3.8202,-3.8202,-3.8202,-3.8202,-3.8202,-3.8202,-3.8202,-3.8202,-3.8202,-3.8202,-3.8202,-3.8202,-3.8202,-3.8202,-3.8583,-3.9022,-3.9422,-4.0,-4.0462,-4.067,-4.0791,0.0,-4.0323,-4.0636,-4.11,-4.1512,-4.1624,-4.1855,-4.2447,-4.2282,-4.2058,-4.2006,-4.2282,-4.2473,-4.241,-4.2799,0.0,0.0,0.0,-4.5114,-4.4999,-4.5261,0.0,0.0,0.0,-4.582,-4.5589,0.0,0.0,0.0,-4.5693,-4.565,0.0,0.0,0.0,0.0,0.0,0.0,0.0,0.0,0.0,0.0,0.0,0.0,0.0,0.0,0.0,0.0,-2.2745,-2.2594,-2.2594,-2.2695,-2.2795,-2.2946,-2.3147,-2.3297,-2.3297,-2.3297,-2.3297,-2.3347,-2.3937,-2.4323,-2.4419,0.0,0.0,0.0,0.0,-2.5754,-2.5488,-2.6665,-2.7942,-2.9301,-2.9796,-3.067,-3.1894,-3.2346,-3.2324,-3.1889,-3.243,-3.2707,-3.2767,-3.2767,-3.3633,-3.4977,-3.5185,-3.6303,-3.7723,-3.7189,-3.7264,-3.7625,-3.7625,0.0,0.0,-3.8202,-3.8202,-3.8202,-3.8202,-3.8202,-3.8202,-3.8202,-3.8202,-3.8202,-3.8202,-3.8202,-3.8202,-3.8202,-3.8366,-3.8676,-3.9285,-3.9306,-3.9401,-4.001,-3.9846,-3.9798,-4.0307,-4.0397,-4.0427,-4.0502,-4.0023,-4.0068,-4.1235,-4.0876,-4.0763,-4.146,0.0,0.0,-4.2479,-4.2685,-4.3576,-4.548,-4.5647,-4.5979,-4.6611,-4.5507,-4.4867,-4.4813,-4.5127,-4.4966,-4.4338,-4.4514,-4.4615,-4.4632,-4.5952,-4.6194,0.0,0.0,0.0,0.0,0.0,0.0,0.0,0.0,0.0,0.0,0.0,0.0,0.0,0.0,0.0,-2.2996,-2.2745,-2.2594,-2.2594,-2.1869,-2.1658,-2.2594,-2.2695,-2.2745,-2.2745,-2.2745,-2.2846,-2.3046,-2.3427,-2.3815,-2.435,-2.4427,-2.4707,-2.5286,-2.5096,-2.5332,-2.5892,-2.5811,-2.7139,-2.9787,0.0,0.0,-3.2388,-3.2895,-3.3076,-3.3006,-3.3493,-3.3934,-3.4378,-3.4378,-3.5177,-3.6378,-3.6327,-3.6673,-3.7147,-3.7021,-3.7264,-3.7625,-3.7625,-3.7877,-3.8202,-3.8202,-3.8202,-3.8202,-3.8202,-3.8202,0.0,-3.8202,-3.8202,-3.8202,-3.8202,-3.8202,-3.8202,-3.8202,-3.8366,-3.8582,-3.8885,-3.9447,-3.9996,-4.0308,-4.0689,-4.0876,-4.0472,-4.0397,-4.0576,-4.1115,-4.1085,-4.11,-4.1392,-4.1265,-4.1468,-4.2209,-4.2239,-4.2515,-4.3298,-4.4413,-4.4986,-4.4818,-4.5439,-4.559,-4.5135,-4.4989,-4.4693,-4.4257,-4.4414,-4.4518,-4.4542,-4.457,-4.4615,-4.4615,-4.4902,-4.4953,0.0,0.0,0.0,0.0,0.0,0.0,0.0,0.0,0.0,0.0,0.0,-2.3347,0.0,0.0,-2.2795,-2.2072,-2.1818,-2.1556,-2.0987,-2.0885,-2.1089,-2.1666,-2.1768,-2.1768,-2.1768,-2.2283,-2.2644,-2.2795,-2.323,-2.3695,-2.4155,-2.4642,-2.5048,-2.5362,-2.5424,-2.5607,-2.6012,-2.5819,-2.684,-2.9071,-2.9414,-3.0325,-3.1681,-3.2792,-3.3147,-3.2924,-3.3421,-3.3958,-3.4499,-3.5794,-3.6493,-3.6873,-3.7491,-3.7614,-3.7442,-3.7442,-3.7519,-3.7625,-3.7625,-3.7877,-3.8202,-3.8202,-3.8202,-3.8202,-3.8202,-3.8202,-3.8202,-3.8202,-3.8202,-3.8202,-3.8202,-3.8202,-3.8202,-3.8202,-3.8427,-3.8686,-3.8797,-3.932,-3.9793,-3.9866,-4.0172,-4.0292,-3.9963,-4.0215,-4.0429,-4.0411,-4.0697,-4.0952,-4.0952,-4.1245,-4.1727,-4.2459,-4.2505,-4.2834,-4.3563,-4.4578,-4.5341,-4.575,-4.5774,-4.5616,-4.5251,-4.5116,-4.4929,-4.465,-4.4512,-4.4868,-4.5715,-4.5314,-4.5145,-4.5162,-4.5517,-4.5326,0.0,0.0,0.0,0.0,0.0,0.0,0.0,0.0,-2.3913,-2.3631,-2.3368,-2.3041,-2.2841,-2.2844,-2.2535,-2.1395,-2.1038,-2.057,-1.9642,-1.9952,-2.0261,-2.0261,-2.0629,-2.0834,-2.0577,-2.1607,-2.2283,-2.2283,-2.3057,-2.3693,-2.3959,-2.4859,-2.5383,-2.5491,-2.5699,-2.5901,-2.6131,-2.6058,-2.6827,-2.8542,-2.945,-3.0407,-3.1318,-3.2785,-3.3217,-3.2842,-3.3338,-3.3825,-3.4305,-3.6485,-3.7124,-3.6899,-3.817,-3.8332,-3.7892,-3.7765,-3.765,-3.7534,-3.7586,-3.7839,-3.8127,-3.8202,-3.8202,-3.8202,-3.8202,-3.8202,-3.8202,-3.8202,-3.8202,-3.8202,-3.8202,-3.8202,-3.8202,-3.8202,-3.8501,-3.8745,-3.8782,-3.9104,-3.9337,-3.9388,-3.9517,-3.961,-3.961,-4.0216,-4.0443,-3.9717,-4.025,-4.0668,-4.0668,-4.1176,-4.1844,-4.2741,-4.2693,-4.2941,-4.3814,-4.4527,-4.5417,-4.6609,-4.6394,-4.6096,-4.5798,-4.5557,-4.5353,-4.5215,-4.48,-4.519,-4.6363,-4.5923,-4.5703,-4.572,-4.6447,-4.6075,-3.2034,-3.2034,-3.1406,-2.8799,-2.787,-2.6852,0.0,0.0,-2.2512,-2.2105,-2.2085,-2.2154,-2.2113,-2.2379,-2.2594,-2.2443,-2.1556,-2.0885,-2.0731,-1.9131,-1.7996,-1.7996,-1.9702,-2.0518,-1.9487,-2.0416,-2.1089,-2.1089,-2.2578,-2.3633,-2.3959,-2.4286,-2.4887,-2.592,-2.5262,-2.5436,-2.6509,-2.6205,-2.7252,-2.9713,-2.9817,-3.1,-3.3039,-3.3685,-3.4007,-3.3948,-3.4424,-3.4643,-3.4751,-3.5488,-3.6184,-3.6854,-3.7407,-3.7758,-3.7835,-3.7288,-3.7204,-3.7341,-3.7534,-3.7739,-3.7967,-3.8127,-3.8202,-3.8202,-3.8202,-3.8202,-3.8202,-3.8202,-3.8202,-3.8202,-3.8202,-3.8202,-3.8202,-3.8202,-3.8352,-3.859,-3.8745,-3.898,-3.9177,-3.9373,-3.9915,-4.0389,-4.0389,-4.094,-4.116,-4.0478,-4.0959,-4.1393,-4.1393,-4.1459,-4.2024,-4.3444,-4.2976,-4.3146,-4.4469,-4.5253,-4.5748,-4.5897,-4.7073,-4.7173,-4.5847,-4.6057,-4.5858,-4.5189,-4.48,-4.4682,-4.4852,-4.5415,-4.5703,-4.572,-4.6447,-4.6363,-3.0856,-3.0652,0.0,0.0,-2.6527,-2.5808,-2.3282,-2.2535,-2.2296,-2.1976,-2.1982,-2.2064,-2.2328,-2.2491,-2.2182,0.0,-2.0783,-2.021,-1.8283,-1.8297,-1.8035,-1.6736,-1.7989,-1.8767,-1.8304,-1.9849,-2.0885,-2.0885,-2.2164,-2.319,-2.3654,-2.3928,-2.456,-2.5601,-2.5298,-2.5601,-2.6582,-2.6223,-2.6986,-2.8913,-2.9331,-3.0487,-3.2297,-3.2724,-3.3099,-3.3434,-3.3779,-3.3933,-3.4004,-3.4736,-3.5564,-3.6446,-3.6811,-3.7359,-3.7864,-3.7611,-3.7444,-3.7341,-3.7534,-3.7739,-3.7929,-3.8127,-3.8202,-3.8202,-3.8202,-3.8202,-3.8202,-3.8202,-3.8202,-3.8202,-3.8202,-3.8202,-3.8202,-3.8202,-3.8366,-3.8516,-3.8627,-3.922,-3.9773,-3.9844,-4.0531,-4.1075,-4.1075,-4.1656,-4.2061,-4.1754,-4.1965,-4.2158,-4.2158,-4.2475,-4.3111,-4.4158,-4.3992,-4.4231,-4.5268,-4.4837,-4.4887,-4.5748,-4.5963,-4.5829,-4.5308,-4.5951,-4.6187,-4.5958,-4.5891,-4.6295,-4.7158,-4.7056,-4.6959,-4.6993,-4.775,-4.7699,-2.9703,0.0,0.0,-2.5878,-2.5189,-2.4616,-2.2704,-2.2174,-2.2077,-2.1882,-2.1927,-2.2081,-2.2397,-2.2525,-2.1971,-2.0004,-2.0107,-1.9487,-1.673,-1.7457,-1.7713,-1.6099,-1.663,-1.7107,-1.7107,-1.8871,-2.0107,-2.0416,-2.1603,-2.2647,-2.3414,-2.3897,-2.4546,-2.5414,-2.5527,-2.5876,-2.6582,-2.6289,-2.6786,-2.8047,-2.8827,-2.9903,-3.126,-3.1897,-3.2441,-3.291,-3.3179,-3.3284,-3.3319,-3.388,-3.4647,-3.5509,-3.5816,-3.6511,-3.7334,-3.7756,-3.7591,-3.7264,-3.7457,-3.7663,-3.7853,-3.8066,-3.8165,-3.8202,-3.8202,-3.8202,-3.8202,-3.8202,-3.8202,-3.8202,-3.8202,-3.8202,-3.8202,-3.8202,-3.8315,-3.8441,-3.8553,-3.922,-3.992,-4.0216,-4.0925,-4.1558,-4.1754,-4.2412,-4.2881,-4.2881,-4.2881,-4.2881,-4.2881,-4.3295,-4.378,-4.434,-4.439,-4.4605,-4.5152,-4.4406,-4.4274,-4.5135,-4.5069,-4.5078,-4.5216,-4.5915,-4.6465,-4.6817,-4.6781,-4.7327,-4.8392,-4.8071,-4.7889,-4.7906,-4.8663,-4.8714,0.0,0.0,-2.7127,-2.4908,-2.4125,-2.3592,-2.2122,-2.1622,-2.143,-2.143,-2.173,-2.2004,-2.2013,-2.2354,-2.2232,-2.1038,-1.9952,-1.8864,-1.7687,-1.663,-1.5998,-1.5891,-1.5945,-1.5945,0.0,-1.6995,-1.8146,-1.9176,-2.069,-2.2149,-2.353,-2.4131,-2.4826,-2.5549,-2.5834,-2.6205,-2.6582,-2.6582,-2.6945,-2.7617,-2.8675,-2.9566,-3.0307,-3.1815,-3.2629,-3.291,-3.3179,-3.3284,-3.3248,-3.2777,-3.3077,-3.3909,-3.4231,-3.4924,-3.5925,-3.7388,-3.7512,-3.7017,-3.7226,-3.7419,-3.7663,-3.7853,-3.8028,-3.8202,-3.8202,-3.8202,-3.8202,-3.8202,-3.8202,-3.8202,-3.8202,-3.8202,-3.8202,-3.8202,-3.8202,-3.8315,-3.8708,-3.8819,-3.9169,-4.027,-4.1042,-4.1722,-4.2443,-4.3113,-4.3568,-4.3568,-4.3568,-4.3568,-4.3568,-4.3598,-4.3598,-4.3631,-4.3631,-4.3631,-4.3664,-4.4274,-4.4373,-4.3698,-4.4986,-4.5858,-4.6077,-4.6229,-4.6686,-4.7544,-4.7051,-4.6802,-4.6853,-4.7564,-4.7889,-4.7906,-4.8663,-4.8984,0.0,0.0,-2.5953,-2.4324,-2.3471,-2.283,-2.212,-2.1847,-2.1867,-2.2165,-2.2319,-2.2231,-2.1763,-2.2374,-2.2006,-1.9168,-1.9642,-1.9435,-1.6836,-1.6789,-1.6736,-1.5998,-1.5891,0.0,0.0,0.0,0.0,-1.8094,-1.996,-2.1515,-2.2401,-2.3548,-2.4594,-2.5522,-2.5852,-2.6214,-2.6582,-2.6591,-2.7086,-2.8008,-2.9527,-3.0226,-3.0258,-3.1437,-3.1841,-3.1671,-3.2079,-3.2418,-3.2719,-3.2166,-3.271,-3.384,-3.4163,-3.4856,-3.5817,-3.6928,-3.7161,-3.7088,-3.7692,-3.776,-3.7625,-3.7815,-3.8028,-3.8202,-3.8202,-3.8202,-3.8202,-3.8202,-3.8202,-3.8202,-3.8202,-3.8202,-3.8202,-3.8202,-3.8202,-3.8277,-3.8538,-3.9096,-3.9819,-4.0758,-4.1641,-4.2443,-4.3143,-4.3462,-4.3598,-4.3598,-4.3598,-4.3598,-4.3598,-4.3598,-4.3598,-4.3598,-4.3598,-4.3598,-4.3598,-4.3843,-4.3876,-4.3615,-4.4062,-4.4477,-4.4762,-4.5303,-4.582,-4.6342,-4.7128,-4.753,-4.7547,-4.8274,-4.8646,-4.8646,-4.8883,-4.9001,0.0,-2.5509,-2.4737,-2.3578,-2.2946,-2.2534,-2.2244,-2.2192,-2.2295,-2.2723,-2.28,-2.2656,-2.2341,-2.2413,-2.1607,-1.8861,-1.9152,-1.8812,-1.6258,-1.6524,-1.6736,-1.5998,-1.5891,-1.5891,0.0,0.0,0.0,-1.7575,-1.8933,-2.03,-2.1655,-2.2781,-2.3974,-2.5308,-2.5808,-2.6214,-2.6582,-2.6591,-2.7239,-2.8568,-2.9346,-2.9967,-3.0514,-3.1343,-3.1548,-3.13,-3.1974,-3.2454,-3.2743,-3.219,-3.2512,-3.3437,-3.431,-3.4876,-3.5413,-3.7073,-3.7372,-3.7074,-3.76,-3.7721,-3.7625,-3.7739,-3.7991,-3.8202,-3.8202,-3.8202,-3.8202,-3.8202,-3.8202,-3.8202,-3.8202,-3.8202,-3.8202,-3.8202,-3.824,-3.8352,-3.8538,-3.9349,-4.0274,-4.1129,-4.2013,-4.2803,-4.3492,-4.3598,-4.3598,-4.3598,-4.3598,-4.3598,-4.3598,-4.3598,-4.3598,-4.3598,-4.3598,-4.3598,-4.3598,-4.3598,-4.3598,-4.3598,-4.3598,-4.3833,-4.4394,-4.4934,-4.545,-4.5988,-4.6993,-4.7513,-4.7513,-4.8257,-4.8612,-4.8612,-4.8883,-4.9001,-2.4933,-2.4106,-2.3529,-2.2846,-2.2644,-2.2594,-2.2594,-2.2594,-2.2705,-2.3032,-2.3134,-2.3254,0.0,0.0,-2.1118,-1.9909,-1.8499,-1.7213,-1.6045,-1.5891,-1.5891,0.0,0.0,0.0,0.0,0.0,0.0,-1.7424,0.0,-1.8699,-2.1304,-2.1993,-2.3172,-2.504,-2.5719,-2.6188,-2.6582,-2.6591,-2.7471,-2.9116,-2.8249,-2.8892,-3.0915,-3.1448,-3.1713,-3.1748,-3.2812,-3.3284,-3.3248,-3.2719,-3.2503,-3.2672,-3.4563,-3.4897,-3.4739,-3.7758,-3.8157,-3.7077,-3.7077,-3.7321,-3.7625,-3.7625,-3.7877,-3.8202,-3.8202,-3.8202,-3.8202,-3.8202,-3.8202,-3.8202,-3.8202,-3.8202,-3.8202,-3.8202,-3.8366,-3.8553,-3.8782,-3.9565,-4.0478,-4.1393,-4.2158,-4.2851,-4.3492,-4.3598,-4.3598,-4.3598,-4.3598,-4.3598,-4.3598,-4.3598,-4.3598,-4.3598,-4.3598,-4.3598,-4.3598,-4.3598,-4.3598,-4.3598,-4.3598,-4.4003,-4.491,-4.5076,-4.5542,-4.638,-4.6613,-4.6735,-4.6735,-4.7496,-4.7821,-4.7838,-4.8612,-4.8951,-2.4884,-2.4264,-2.3628,-2.3488,-2.2996,-2.2594,-2.2594,-2.2594,-2.2705,-2.3032,-2.3331,-2.3334,0.0,0.0,0.0,-1.8884,-1.8021,0.0,-1.6045,-1.5891,0.0,-1.5891,0.0,-1.5891,-1.5891,-1.5891,0.0,0.0,-1.7114,-1.838,-2.0159,-2.1851,-2.3451,-2.504,-2.6,-2.6481,-2.6591,-2.6591,-2.7062,-2.7962,-2.8167,-2.8754,-2.9766,-3.1101,-3.1713,-3.1748,-3.2812,-3.3284,-3.3248,-3.2719,-3.2503,-3.2672,-3.4563,-3.5188,-3.536,-3.7965,-3.8705,-3.8424,-3.8424,-3.8057,-3.7625,-3.7625,-3.7877,-3.8202,-3.8202,-3.8202,-3.8202,-3.8202,-3.8202,-3.8202,-3.8202,-3.8202,-3.8202,-3.8202,-3.824,-3.8523,-3.9442,-3.9799,-4.0447,-4.2013,-4.2865,-4.3402,-4.3568,-4.3598,-4.3598,-4.3598,-4.3598,-4.3598,-4.3598,-4.3598,-4.3598,-4.3598,-4.3598,-4.3598,-4.3598,-4.3598,-4.3598,-4.3598,-4.3598,-4.377,-4.4164,-4.4294,-4.4536,-4.4848,-4.56,-4.5974,-4.5974,-4.6718,-4.7073,-4.7107,-4.7851,-4.8189,-2.4452,-2.4016,-2.3678,-2.3678,-2.3138,-2.2594,-2.2594,-2.2594,-2.2705,-2.3032,-2.3408,0.0,0.0,0.0,0.0,0.0,0.0,0.0,-1.5998,-1.5891,-1.5891,0.0,-1.5891,0.0,-1.5891,-1.5891,-1.5891,0.0,-1.6493,-1.7556,-1.9125,-2.0903,-2.2687,-2.4508,-2.573,-2.6399,-2.6591,-2.6591,-2.6985,-2.7818,-2.8462,-2.9055,-2.9692,-3.133,-3.2054,-3.2135,0.0,-3.3753,-3.3909,-3.3164,-3.2971,-3.33,-3.4756,-3.528,-3.5476,-3.7661,-3.8271,-3.8114,-3.8382,-3.8085,-3.7615,-3.79,-3.8031,-3.8104,-3.8165,-3.8202,-3.8202,-3.8202,-3.8202,-3.8202,-3.8202,-3.8202,-3.8202,-3.8202,-3.8523,-3.9023,-3.9748,-4.0466,-4.1377,-4.2772,-4.3325,-4.3598,-4.3598,-4.3598,-4.3598,-4.3598,-4.3598,-4.3598,-4.3598,-4.3598,-4.3598,-4.3598,-4.3598,-4.3598,-4.3598,-4.3598,-4.3598,-4.3598,-4.3598,-4.3658,-4.3763,-4.3939,-4.4085,-4.4196,-4.4805,-4.5139,-4.5213,-4.5957,-4.6312,-4.6329,-4.7073,-4.7428,-2.3728,-2.3529,-2.3529,-2.3529,-2.3088,-2.2594,-2.2594,-2.2594,-2.2688,-2.2972,0.0,-2.344,-2.2479,-2.1254,-1.9968,-1.8699,0.0,-1.5891,-1.5891,-1.5891,-1.5891,-1.5891,-1.5891,-1.5891,-1.5891,-1.5891,-1.5891,-1.5891,-1.5922,-1.6673,-1.8343,-1.9872,-2.1794,-2.4181,-2.545,-2.6269,-2.6582,-2.6591,-2.7053,-2.8019,-2.8826,-2.9476,-3.0035,-3.18,-3.2583,-3.2665,-3.3672,0.0,-3.4607,-3.3753,-3.3609,-3.3979,-3.4875,-3.5214,-3.5457,-3.7208,-3.7601,-3.7316,-3.785,-3.7862,-3.7748,-3.8328,-3.8241,-3.7967,-3.8127,-3.8202,-3.8202,-3.8202,-3.8202,-3.8202,-3.8202,-3.8202,-3.8202,-3.8202,-3.8914,-3.9657,-3.9925,-4.1295,-4.2663,-4.3462,-4.3598,-4.3598,-4.3598,-4.3598,-4.3598,-4.3598,-4.3598,-4.3598,-4.3598,-4.3598,-4.3598,-4.3598,-4.3598,-4.3598,-4.3598,-4.3598,-4.3598,-4.3598,-4.3598,-4.3598,-4.3598,-4.3793,-4.3969,-4.4097,-4.4224,-4.4412,-4.4615,-4.5229,-4.5551,-4.5568,-4.6312,-4.665,-2.2846,-2.2795,-2.2795,-2.2795,-2.2695,-2.2594,-2.2594,-2.2594,0.0,0.0,0.0,-2.3328,-2.2121,-2.1101,0.0,-1.8699,0.0,0.0,0.0,0.0,-1.5891,0.0,0.0,0.0,0.0,0.0,0.0,0.0,0.0,-1.6792,-1.8029,-2.0013,-2.2635,-2.6054,-2.6345,-2.6518,-2.6591,-2.6591,-2.6691,-2.689,-2.8483,-2.9238,-2.9419,-3.2013,-3.3171,-3.3207,-3.4209,0.0,-3.4114,-3.3934,-3.3717,-3.3532,-3.444,-3.5274,-3.6074,-3.7143,-3.8007,-3.8593,-3.8705,-3.8446,-3.8121,-3.8393,-3.8356,-3.8165,-3.8202,-3.8202,-3.8202,-3.8202,-3.8202,-3.8202,-3.8202,-3.8202,-3.8202,-3.8202,-3.8804,-3.9555,-4.0382,-4.1965,-4.3281,-4.3568,-4.3598,-4.3598,-4.3598,-4.3598,-4.3598,-4.3598,-4.3598,-4.3598,-4.3598,-4.3598,-4.3598,-4.3598,-4.3598,-4.3598,-4.3598,-4.3598,-4.3598,-4.3598,-4.3598,-4.3598,-4.3598,-4.3793,-4.3969,-4.4097,-4.4224,-4.4412,-4.4615,-4.4733,-4.4801,-4.4818,-4.5551,-4.5889,-2.3188,-2.3188,-2.3188,-2.3188,-2.2896,-2.2594,-2.2594,0.0,0.0,0.0,0.0,-2.2156,-2.0903,0.0,0.0,0.0,0.0,0.0,0.0,0.0,0.0,0.0,0.0,0.0,0.0,0.0,0.0,0.0,0.0,-1.6618,-1.7311,-2.0068,-2.2861,-2.556,-2.6254,-2.6591,-2.6591,-2.6591,-2.6591,-2.6636,-2.8608,-2.9466,-2.9279,-3.1916,-3.318,-3.3324,-3.3982,0.0,-3.4378,-3.4102,-3.4168,-3.4435,-3.4749,-3.5483,-3.6369,-3.7017,-3.7529,-3.7974,-3.8257,-3.8161,-3.7955,-3.8361,-3.8533,-3.8596,-3.8687,-3.8725,-3.8652,-3.8304,-3.8202,-3.8202,-3.8202,-3.8202,-3.8202,-3.8202,-3.9139,-4.0366,-4.1657,-4.2694,-4.3432,-4.3568,-4.3598,-4.3598,-4.3598,-4.3598,-4.3598,-4.3598,-4.3598,-4.3598,-4.3598,-4.3598,-4.3598,-4.3598,-4.3598,-4.3598,-4.3598,-4.3598,-4.3598,-4.3598,-4.3598,-4.3658,-4.3763,-4.3868,-4.3998,-4.4196,-4.4281,-4.4412,-4.4615,-4.4615,-4.4615,-4.4615,-4.4942,-4.5128,-2.3488,-2.3488,-2.3488,-2.3488,-2.3046,-2.2594,-2.2594,-2.2594,0.0,0.0,-2.1859,-2.1049,-1.9544,0.0,0.0,0.0,0.0,0.0,0.0,0.0,0.0,0.0,0.0,0.0,0.0,0.0,0.0,0.0,0.0,0.0,-1.7322,-2.0309,-2.2847,-2.4603,-2.5837,-2.6454,-2.6454,-2.6454,-2.6653,-2.6944,-2.8933,-2.9829,-2.9782,-3.2047,-3.3221,-3.3489,-3.3742,0.0,0.0,-3.433,-3.4626,-3.5242,-3.5059,-3.5575,-3.6395,-3.6638,-3.6822,-3.7063,-3.754,-3.766,-3.7686,-3.8314,-3.8624,-3.878,-3.8948,-3.8986,-3.8884,-3.8347,-3.8202,-3.8202,-3.8202,-3.8202,-3.8277,-3.8583,-3.9788,-4.1295,-4.2772,-4.3235,-4.3372,-4.3568,-4.3598,-4.3598,-4.3598,-4.3598,-4.3598,-4.3598,-4.3598,-4.3598,-4.3598,-4.3598,-4.3598,-4.3598,-4.3598,-4.3598,-4.3598,-4.3598,-4.3598,-4.3598,-4.3598,-4.3687,-4.3898,-4.3898,-4.4027,-4.4293,-4.431,-4.4412,-4.4615,-4.4615,-4.4615,-4.4615,-4.4615,-4.4615,-2.2695,-2.2695,-2.2695,-2.2695,-2.2644,-2.2594,-2.2594,0.0,0.0,-2.1251,-2.1283,-2.0786,-1.8548,-1.8111,0.0,0.0,0.0,0.0,0.0,0.0,0.0,0.0,0.0,0.0,0.0,0.0,0.0,0.0,0.0,0.0,-1.9451,-2.1102,-2.268,-2.4202,-2.5407,-2.6067,-2.6067,-2.6067,-2.6714,-2.8072,-2.9282,-3.0411,-3.1407,-3.2928,-3.3758,-3.4054,-3.4227,0.0,0.0,-3.4727,-3.48,-3.4836,-3.4719,-3.5168,-3.5935,-3.5831,-3.6322,-3.6993,-3.7049,-3.7307,-3.7725,-3.8378,-3.8424,-3.8252,-3.8304,-3.8289,-3.8275,-3.8217,-3.8202,-3.8202,-3.8202,-3.8202,-3.8546,-3.9859,-4.0842,-4.1722,-4.2865,-4.3096,-4.3235,-4.3539,-4.3598,-4.3598,-4.3598,-4.3598,-4.3598,-4.3598,-4.3598,-4.3598,-4.3598,-4.3598,-4.3598,-4.3598,-4.3598,-4.3598,-4.3598,-4.3598,-4.3598,-4.3598,-4.3598,-4.3687,-4.3898,-4.3898,-4.4027,-4.4293,-4.431,-4.4412,-4.4615,-4.4615,-4.4615,-4.4615,-4.4615,-4.4615,-2.2644,-2.2594,-2.2594,-2.2594,-2.2594,-2.2594,-2.2594,0.0,0.0,-2.2071,-2.1163,-2.0129,-1.8935,-1.7775,-1.663,0.0,0.0,0.0,0.0,0.0,0.0,0.0,0.0,0.0,0.0,0.0,0.0,0.0,0.0,0.0,-1.8915,-2.0656,-2.2063,-2.31,-2.4748,-2.5663,-2.5663,-2.5663,-2.5937,-2.655,-2.8287,-2.9493,-3.0266,-3.2122,-3.3366,-3.4125,-3.4162,0.0,0.0,-3.4775,-3.492,-3.5231,-3.574,-3.6074,-3.6318,-3.6838,-3.7012,-3.7035,-3.7414,-3.7738,-3.8086,-3.8871,-3.8863,-3.8577,-3.8759,-3.8797,-3.8725,-3.8318,-3.8202,-3.8202,-3.8202,-3.8509,-3.9103,-4.0139,-4.0961,-4.1787,-4.2881,-4.3113,-4.3204,-4.3522,-4.3598,-4.3598,-4.3598,-4.3598,-4.3598,-4.3598,-4.3598,-4.3598,-4.3598,-4.3598,-4.3598,-4.3598,-4.3598,-4.3598,-4.3598,-4.3598,-4.3598,-4.3598,-4.3704,-4.3852,-4.4027,-4.4097,-4.4241,-4.4485,-4.4468,-4.4514,-4.4615,-4.4615,-4.4615,-4.4615,-4.4615,-4.4615,-2.2745,-2.2644,-2.2594,-2.2594,-2.268,-2.2766,0.0,0.0,-2.2455,-2.1872,-2.0359,-1.8992,-1.8443,-1.7219,-1.6052,0.0,0.0,-1.4484,0.0,0.0,0.0,0.0,0.0,0.0,0.0,0.0,0.0,0.0,0.0,0.0,-1.8236,-2.0251,-2.1618,-2.2228,-2.4158,-2.5197,-2.5197,-2.5197,-2.545,-2.5914,-2.7723,-2.8932,-2.9637,-3.1457,-3.2769,-3.3666,-3.3819,0.0,0.0,-3.4715,-3.498,-3.531,-3.6399,-3.67,-3.6701,-3.7783,-3.792,-3.7597,-3.8032,-3.8347,-3.855,-3.9045,-3.9014,-3.8793,-3.888,-3.8899,-3.8812,-3.8333,-3.8202,-3.8202,-3.8202,-3.8752,-3.9484,-4.0209,-4.0961,-4.1787,-4.2881,-4.3113,-4.3204,-4.3522,-4.3598,-4.3598,-4.3598,-4.3598,-4.3598,-4.3598,-4.3598,-4.3598,-4.3598,-4.3598,-4.3598,-4.3598,-4.3598,-4.3598,-4.3598,-4.3598,-4.3598,-4.3598,-4.3793,-4.3956,-4.4097,-4.4224,-4.4395,-4.4615,-4.4615,-4.4615,-4.4615,-4.4615,-4.4615,-4.4615,-4.4615,-4.4615,-2.2996,-2.2795,-2.2594,-2.2594,-2.2835,-2.3109,0.0,0.0,-2.1207,-2.006,-1.8671,-1.7357,-1.6502,-1.6332,-1.6453,-1.6996,-1.6034,0.0,0.0,0.0,0.0,0.0,0.0,0.0,0.0,0.0,0.0,0.0,0.0,0.0,-1.8027,-2.0094,-2.1441,-2.1826,-2.3774,-2.4785,-2.4785,-2.4785,-2.5562,-2.6975,-2.8106,-2.9172,-3.0225,-3.1324,-3.2051,0.0,0.0,0.0,0.0,-3.457,-3.4823,-3.4957,-3.6279,-3.6817,-3.6962,-3.838,-3.8902,-3.8888,-3.8902,-3.9024,-3.9128,-3.8649,-3.8656,-3.8746,-3.833,-3.8217,-3.8217,-3.8202,-3.8202,-3.8202,-3.8202,-3.8752,-3.9484,-4.0209,-4.0961,-4.1787,-4.2881,-4.3113,-4.3204,-4.3522,-4.3598,-4.3598,-4.3598,-4.3598,-4.3598,-4.3598,-4.3598,-4.3598,-4.3598,-4.3598,-4.3598,-4.3598,-4.3598,-4.3598,-4.3598,-4.3598,-4.3598,-4.3598,-4.3793,-4.3956,-4.4097,-4.4224,-4.4395,-4.4615,-4.4615,-4.4615,-4.4615,-4.4615,-4.4615,-4.4615,-4.4615,-4.4615,-2.3783,-2.3031,-2.2493,-2.3007,-2.2113,-2.1222,-2.2001,0.0,-2.0445,-1.9784,-1.8893,-1.8075,-1.7542,-1.7135,-1.6604,-1.5901,-1.5593,0.0,0.0,0.0,0.0,0.0,0.0,0.0,0.0,0.0,0.0,0.0,0.0,0.0,-1.8014,-1.9885,-2.1137,-2.1454,-2.3354,-2.4404,-2.4404,-2.4404,-2.46,-2.5111,-2.68,-2.7994,-2.8746,-3.0471,-3.1806,0.0,0.0,0.0,0.0,-3.427,-3.445,-3.4993,-3.6772,-3.7182,-3.7027,-3.8849,-3.9268,-3.8972,-3.938,-3.9576,-3.9631,-3.9774,-3.9539,-3.9255,-3.8958,-3.8565,-3.8202,-3.8202,-3.8202,-3.8202,-3.8202,-3.8752,-3.9484,-4.0209,-4.1078,-4.1949,-4.2912,-4.3204,-4.3372,-4.3568,-4.3598,-4.3598,-4.3598,-4.3598,-4.3598,-4.3598,-4.3598,-4.3598,-4.3598,-4.3598,-4.3598,-4.3598,-4.3598,-4.3598,-4.3598,-4.3598,-4.3598,-4.3598,-4.3793,-4.3956,-4.4097,-4.4224,-4.4395,-4.4615,-4.4615,-4.4615,-4.4615,-4.4615,-4.4615,-4.4615,-4.4615,-4.4615,0.0,-2.3048,-2.2203,-2.2645,-2.1458,0.0,0.0,0.0,-1.9369,-1.9223,-1.8408,-1.7679,-1.7682,-1.7372,-1.6893,-1.6164,-1.6188,0.0,0.0,0.0,0.0,0.0,0.0,0.0,0.0,0.0,0.0,0.0,0.0,0.0,-1.7647,-1.9932,-2.1257,-2.1341,-2.3221,-2.4202,-2.4202,-2.4202,-2.4202,-2.4202,-2.6035,-2.7275,-2.8049,-2.9646,-3.1185,0.0,0.0,0.0,0.0,-3.3947,-3.4186,-3.4739,-3.6934,-3.7528,-3.7427,-3.9416,-3.9887,-3.9606,-3.9999,-4.021,-4.0252,-4.0116,-3.9576,-3.8999,-3.8866,-3.8536,-3.8202,-3.8202,-3.8202,-3.8202,-3.8202,-3.8546,-3.9139,-4.0139,-4.0894,-4.1706,-4.2834,-4.3281,-4.3432,-4.3568,-4.3598,-4.3598,-4.3598,-4.3598,-4.3598,-4.3598,-4.3598,-4.3598,-4.3598,-4.3598,-4.3598,-4.3598,-4.3598,-4.3598,-4.3598,-4.3598,-4.3598,-4.3598,-4.3793,-4.3927,-4.4027,-4.4196,-4.4367,-4.4468,-4.457,-4.4615,-4.4615,-4.4615,-4.4615,-4.4615,-4.4615,-4.4615,0.0,0.0,0.0,0.0,0.0,0.0,0.0,0.0,0.0,0.0,-1.7311,-1.6519,-1.7026,-1.7135,-1.7231,-1.7473,0.0,0.0,0.0,0.0,0.0,0.0,0.0,0.0,0.0,0.0,0.0,0.0,0.0,0.0,-1.7146,-2.0021,-2.1634,-2.1474,-2.3162,-2.4121,-2.4248,-2.422,-2.4202,-2.4211,-2.5599,-2.6863,-2.7949,-2.8855,-3.0262,0.0,0.0,0.0,0.0,-3.3683,-3.3994,-3.4268,-3.6806,-3.7808,-3.8037,-3.9968,-4.0702,-4.0702,-4.0702,-4.0845,-4.0844,-3.9843,-3.8927,-3.8202,-3.8202,-3.8202,-3.8202,-3.8202,-3.8202,-3.8202,-3.8202,-3.8202,-3.8583,-4.0034,-4.0554,-4.1147,-4.2756,-4.3281,-4.3432,-4.3568,-4.3598,-4.3598,-4.3598,-4.3598,-4.3598,-4.3598,-4.3598,-4.3598,-4.3598,-4.3598,-4.3598,-4.3598,-4.3598,-4.3598,-4.3598,-4.3598,-4.3598,-4.3598,-4.3763,-4.3898,-4.3898,-4.4155,-4.431,-4.431,-4.4514,-4.4615,-4.4615,-4.4615,-4.4615,-4.4615,-4.4615,-4.4615,-2.1801,0.0,-2.0368,-2.0948,-1.9502,0.0,0.0,0.0,0.0,0.0,0.0,-1.7237,-1.737,-1.7551,-1.7708,0.0,0.0,0.0,0.0,0.0,0.0,0.0,0.0,0.0,0.0,0.0,0.0,0.0,0.0,-1.7363,-1.7501,-1.8968,-2.0194,-2.1012,-2.2257,-2.3489,-2.4629,-2.4367,-2.4202,-2.4202,-2.5312,-2.6365,-2.7403,-2.8408,-2.9736,0.0,0.0,0.0,-3.2677,-3.3636,-3.3994,-3.4268,-3.6806,-3.7808,-3.8037,-3.9968,-4.0702,-4.0702,-4.0702,-4.0845,-4.0844,-4.0032,-3.903,-3.8202,-3.8202,-3.8202,-3.8202,-3.8202,-3.8202,-3.8202,-3.8202,-3.8202,-3.8583,-4.0034,-4.0625,-4.1281,-4.2756,-4.3342,-4.3568,-4.3598,-4.3598,-4.3598,-4.3598,-4.3598,-4.3598,-4.3598,-4.3598,-4.3598,-4.3598,-4.3598,-4.3598,-4.3598,-4.3598,-4.3598,-4.3598,-4.3598,-4.3598,-4.3598,-4.3628,-4.3734,-4.3898,-4.4056,-4.4212,-4.431,-4.4514,-4.4615,-4.4615,-4.4615,-4.4615,-4.4615,-4.4615,-4.4615,-2.0829,-2.0046,-1.9597,-1.9998,-1.8724,-1.7529,0.0,0.0,0.0,0.0,0.0,0.0,-1.7461,0.0,0.0,0.0,0.0,0.0,0.0,0.0,0.0,0.0,0.0,0.0,0.0,0.0,0.0,0.0,0.0,-1.7328,-1.7414,-1.9206,-2.0545,-2.1167,-2.2732,-2.3892,-2.4542,-2.4321,-2.4202,-2.4202,-2.5408,-2.6505,-2.7606,-2.8522,-2.988,0.0,0.0,0.0,-3.2392,-3.3014,-3.3732,-3.4521,-3.6625,-3.7878,-3.8644,-4.0156,-4.0702,-4.0702,-4.0702,-4.0704,-4.0628,-4.0118,-3.9522,-3.9015,-3.8739,-3.8667,-3.8594,-3.8289,-3.8202,-3.8277,-3.862,-3.8679,-3.9066,-4.0554,-4.1113,-4.1642,-4.2834,-4.3312,-4.3539,-4.3598,-4.3598,-4.3598,-4.3598,-4.3598,-4.3598,-4.3598,-4.3598,-4.3598,-4.3598,-4.3598,-4.3598,-4.3598,-4.3598,-4.3598,-4.3598,-4.3598,-4.3598,-4.3598,-4.3598,-4.3658,-4.3763,-4.3998,-4.4212,-4.444,-4.4542,-4.4615,-4.4615,-4.4615,-4.4615,-4.4615,-4.4615,-4.4615,-2.0201,-1.9513,-1.9125,-1.9081,-1.8378,-1.7668,0.0,0.0,0.0,0.0,0.0,0.0,0.0,0.0,0.0,0.0,0.0,0.0,0.0,0.0,0.0,0.0,0.0,0.0,0.0,0.0,0.0,0.0,0.0,-1.7427,-1.7292,-1.9596,-2.1052,-2.1418,-2.3211,-2.4198,-2.4211,-2.4202,-2.4202,-2.4202,-2.5422,-2.6665,-2.7887,-2.8647,-3.0019,-3.1785,0.0,0.0,-3.1984,-3.2448,-3.3383,-3.471,-3.6378,-3.7767,-3.9054,-4.026,-4.0631,-4.0575,-4.0702,-4.0604,-4.0351,-4.0108,-3.9992,-3.9842,-3.9233,-3.9117,-3.9088,-3.8507,-3.8362,-3.8498,-3.912,-3.9362,-3.9754,-4.1164,-4.1729,-4.2139,-4.2914,-4.3333,-4.3564,-4.3585,-4.3598,-4.3598,-4.3598,-4.3598,-4.3598,-4.3598,-4.3598,-4.3598,-4.3598,-4.3598,-4.3598,-4.3598,-4.3598,-4.3598,-4.3598,-4.3598,-4.3598,-4.3598,-4.3628,-4.3658,-4.3717,-4.3981,-4.4286,-4.4598,-4.4615,-4.4615,-4.4615,-4.4615,-4.4615,-4.4615,-4.4615,-4.4615,-1.9092,-1.8813,-1.8874,-1.8686,-1.8322,-1.8023,0.0,0.0,0.0,0.0,0.0,0.0,0.0,0.0,0.0,0.0,0.0,0.0,0.0,0.0,0.0,0.0,0.0,0.0,0.0,0.0,0.0,0.0,0.0,-1.7046,-1.7536,-1.7932,-1.9047,-2.0905,-2.1323,-2.2376,-2.4202,-2.4202,-2.4202,-2.4202,-2.4405,-2.5488,-2.7351,-2.7483,-2.8611,-3.0514,0.0,-3.1407,-3.125,-3.2608,-3.3472,-3.4161,-3.6191,-3.7276,-3.7912,-3.9939,-4.0378,-4.0041,-4.0704,-4.073,-4.0351,-3.9977,-3.9613,-3.9218,-3.8551,-3.8754,-3.9175,-3.9088,-3.9044,-3.9082,-3.9197,-3.96,-4.0218,-4.1199,-4.2007,-4.2642,-4.3033,-4.368,-4.4113,-4.3684,-4.3598,-4.3598,-4.3598,-4.3598,-4.3598,-4.3598,-4.3598,-4.3598,-4.3598,-4.3598,-4.3598,-4.3598,-4.3598,-4.3598,-4.3598,-4.3598,-4.3598,-4.3598,-4.3763,-4.3969,-4.4179,-4.4253,-4.4384,-4.4615,-4.4615,-4.4615,-4.4615,-4.4615,-4.4615,-4.4615,-4.4615,-4.4615,-1.9373,-1.9065,-1.9132,-1.8998,-1.8781,-1.8549,0.0,0.0,0.0,0.0,0.0,0.0,0.0,0.0,0.0,0.0,0.0,0.0,0.0,0.0,0.0,0.0,0.0,0.0,0.0,0.0,0.0,0.0,0.0,0.0,-1.7582,-1.8715,-1.9857,-2.0885,-2.2055,-2.3179,-2.4202,-2.4202,-2.4202,-2.4202,-2.5294,-2.6292,-2.7237,-2.8319,-2.9406,-3.0454,0.0,-3.1274,-3.1231,-3.2067,-3.2991,-3.4042,-3.5846,-3.7133,-3.8145,-4.0038,-4.0308,-3.9915,-4.0704,-4.0957,-4.088,-4.0469,-4.0513,-4.0641,-3.9973,-3.9987,-4.0234,-4.0234,-3.9958,-3.9712,-3.9782,-4.0014,-4.0509,-4.1751,-4.2028,-4.2345,-4.3454,-4.3684,-4.3676,-4.3605,-4.3598,-4.3598,-4.3598,-4.3598,-4.3598,-4.3598,-4.3598,-4.3598,-4.3598,-4.3598,-4.3598,-4.3598,-4.3598,-4.3598,-4.3598,-4.3598,-4.3598,-4.3598,-4.3793,-4.3998,-4.4167,-4.4253,-4.4395,-4.4615,-4.4615,-4.4615,-4.4615,-4.4615,-4.4615,-4.4615,-4.4615,-4.4615,-1.975,-1.9477,-1.9452,-1.9444,0.0,0.0,0.0,0.0,0.0,0.0,0.0,0.0,0.0,0.0,0.0,0.0,0.0,0.0,0.0,0.0,0.0,0.0,0.0,0.0,0.0,0.0,0.0,0.0,0.0,0.0,-1.7943,-1.9591,-2.0723,-2.1242,-2.2929,-2.3954,-2.4202,-2.4202,-2.4301,-2.4587,-2.6099,-2.7105,-2.7615,-2.913,-3.0068,-3.0532,-3.0883,-3.1107,-3.1261,-3.1572,-3.2616,-3.4137,-3.5483,-3.7107,-3.8857,-3.9914,-4.0154,-4.0083,-4.0548,-4.0986,-4.1239,-4.0832,-4.1208,-4.1662,-4.1062,-4.0974,-4.1091,-4.1091,-4.0844,-4.0581,-4.0489,-4.0478,-4.086,-4.242,-4.2268,-4.2243,-4.3844,-4.3783,-4.3432,-4.3555,-4.3598,-4.3598,-4.3598,-4.3598,-4.3598,-4.3598,-4.3598,-4.3598,-4.3598,-4.3598,-4.3598,-4.3598,-4.3598,-4.3598,-4.3598,-4.3598,-4.3598,-4.3598,-4.3822,-4.3998,-4.4155,-4.4281,-4.444,-4.4615,-4.4615,-4.4615,-4.4615,-4.4615,-4.4615,-4.4615,-4.4615,-4.4615,-1.9578,-1.9566,-1.97,-1.9432,0.0,0.0,0.0,0.0,0.0,0.0,0.0,0.0,0.0,0.0,0.0,0.0,0.0,0.0,0.0,0.0,0.0,0.0,0.0,0.0,0.0,0.0,0.0,0.0,0.0,0.0,-1.902,-1.9228,-2.0261,-2.2325,-2.2526,-2.3138,-2.4202,-2.4202,-2.4686,-2.5596,-2.5742,-2.6781,-2.8585,-2.8724,-2.9325,-3.0261,-3.0793,-3.1029,-3.1074,-3.1496,-3.2717,-3.434,-3.5067,-3.7155,-3.962,-3.9198,-3.969,-4.0561,-4.0069,-4.0379,-4.0944,-4.0583,-4.0646,-4.0792,-4.034,-4.0612,-4.1091,-4.1091,-4.1512,-4.1802,-4.1215,-4.104,-4.1435,-4.2975,-4.2968,-4.2902,-4.3976,-4.4255,-4.4179,-4.3701,-4.3598,-4.3598,-4.3598,-4.3598,-4.3598,-4.3598,-4.3598,-4.3598,-4.3598,-4.3598,-4.3598,-4.3598,-4.3598,-4.3598,-4.3598,-4.3598,-4.3598,-4.3598,-4.3894,-4.4155,-4.4281,-4.4468,-4.4587,-4.4615,-4.4615,-4.4615,-4.4615,-4.4615,-4.4615,-4.4615,-4.4615,-4.4615,-1.9491,-1.9178,-1.9005,-1.9072,0.0,0.0,0.0,0.0,0.0,0.0,0.0,0.0,0.0,0.0,0.0,0.0,0.0,0.0,0.0,0.0,0.0,0.0,0.0,0.0,0.0,0.0,0.0,0.0,0.0,0.0,-1.9176,-2.0518,-2.165,-2.2476,-2.3188,-2.3746,-2.4202,-2.4202,-2.4686,-2.5693,-2.635,-2.701,-2.7814,-2.9037,-2.984,-3.0216,-3.0589,-3.0826,-3.1029,-3.1318,-3.1945,-3.2884,-3.4632,-3.6885,-3.9282,-3.9422,-3.9535,-3.9578,-3.9732,-4.0097,-4.0447,-4.0483,-4.0875,-4.1355,-4.1328,-4.1512,-4.1715,-4.1715,-4.1903,-4.1947,-4.1265,-4.0786,-4.0768,-4.1896,-4.1822,-4.1704,-4.2623,-4.3313,-4.361,-4.3101,-4.3295,-4.3598,-4.3598,-4.3598,-4.3598,-4.3598,-4.3598,-4.3598,-4.3598,-4.3598,-4.3598,-4.3598,-4.3598,-4.3598,-4.3598,-4.3598,-4.3598,-4.3598,-4.3852,-4.3998,-4.4056,-4.4298,-4.4412,-4.4412,-4.4542,-4.4615,-4.4615,-4.4615,-4.4615,-4.4615,-4.4615,-4.4615,-1.9118,-1.8798,0.0,0.0,0.0,0.0,0.0,0.0,0.0,0.0,0.0,0.0,0.0,0.0,0.0,0.0,0.0,0.0,0.0,0.0,0.0,0.0,0.0,0.0,0.0,0.0,0.0,0.0,0.0,0.0,0.0,-2.1497,-2.2677,-2.3038,-2.3795,-2.4202,-2.4202,-2.4202,-2.4538,-2.5255,-2.658,-2.7379,-2.7709,-2.9417,-3.0216,-3.0216,-3.0487,-3.0769,-3.1029,-3.1229,-3.1769,-3.2711,-3.4875,-3.6892,-3.8608,-3.903,-3.9044,-3.8972,-3.938,-3.9618,-3.9854,-4.0542,-4.1035,-4.1416,-4.1937,-4.2092,-4.2092,-4.2092,-4.1947,-4.1671,-4.1221,-4.0597,-4.0383,-4.1411,-4.1049,-4.0739,-4.18,-4.2428,-4.2741,-4.2617,-4.2974,-4.3372,-4.3552,-4.3598,-4.3598,-4.3598,-4.3598,-4.3598,-4.3598,-4.3598,-4.3598,-4.3598,-4.3598,-4.3598,-4.3598,-4.3598,-4.3598,-4.3598,-4.3734,-4.3822,-4.3898,-4.4126,-4.4224,-4.4224,-4.4412,-4.4514,-4.4514,-4.457,-4.4615,-4.4615,-4.4615,-4.4615,-1.8564,-1.849,0.0,0.0,0.0,0.0,0.0,0.0,0.0,0.0,0.0,0.0,0.0,0.0,0.0,0.0,0.0,0.0,0.0,0.0,0.0,0.0,0.0,0.0,0.0,0.0,0.0,0.0,0.0,0.0,0.0,-2.1912,-2.3038,-2.4152,-2.4202,-2.4202,-2.4192,-2.4192,-2.4192,-2.4242,-2.6224,-2.7699,-2.8724,-2.9749,-3.0216,-3.0204,-3.0476,-3.0758,-3.1005,-3.1205,-3.2463,-3.4428,-3.5992,-3.7125,-3.7892,-3.7906,-3.8313,-3.8902,-3.8902,-3.8902,-3.9195,-4.0842,-4.0967,-4.0719,-4.1765,-4.2092,-4.2092,-4.2092,-4.1613,-4.1091,-4.1091,-4.0597,-4.047,-4.1933,-4.1038,-4.0283,-4.1681,-4.1716,-4.1722,-4.2443,-4.2585,-4.2803,-4.3462,-4.3598,-4.3598,-4.3598,-4.3598,-4.3598,-4.3598,-4.3598,-4.3598,-4.3598,-4.3598,-4.3598,-4.3598,-4.3598,-4.3598,-4.3598,-4.3598,-4.3687,-4.3898,-4.4027,-4.4097,-4.4097,-4.4224,-4.431,-4.431,-4.4497,-4.4615,-4.4615,-4.4615,-4.4615,-1.8671,0.0,0.0,0.0,0.0,0.0,0.0,0.0,0.0,0.0,0.0,0.0,0.0,0.0,0.0,0.0,0.0,0.0,0.0,0.0,0.0,0.0,0.0,0.0,0.0,0.0,0.0,0.0,0.0,0.0,0.0,-2.2677,-2.3845,-2.4202,-2.4202,-2.4064,-2.373,-2.373,-2.3903,-2.4268,-2.5583,-2.6697,-2.7709,-2.9417,-3.0111,-2.991,-2.9987,-3.0065,-3.0126,-3.0943,-3.2032,-3.3236,-3.4713,-3.6065,-3.7316,-3.7737,-3.8313,-3.8846,-3.8341,-3.8522,-3.9054,-3.9817,-4.028,-4.0719,-4.1765,-4.2092,-4.2092,-4.2092,-4.1613,-4.1091,-4.1091,-4.0292,-3.9586,-4.0032,-4.0002,-3.9879,-3.979,-4.0674,-4.1426,-4.1176,-4.1933,-4.2648,-4.2865,-4.3295,-4.3598,-4.3598,-4.3598,-4.3598,-4.3598,-4.3598,-4.3598,-4.3598,-4.3598,-4.3598,-4.3598,-4.3598,-4.3598,-4.3598,-4.3598,-4.3628,-4.3687,-4.3852,-4.3998,-4.4097,-4.4224,-4.4367,-4.4514,-4.457,-4.4615,-4.4615,-4.4615,-4.4615,-1.8455,0.0,0.0,0.0,0.0,0.0,0.0,0.0,0.0,0.0,0.0,0.0,0.0,0.0,0.0,0.0,0.0,0.0,0.0,0.0,0.0,0.0,0.0,0.0,0.0,0.0,0.0,0.0,0.0,0.0,0.0,-2.283,-2.3904,-2.3904,-2.3758,-2.3556,-2.3261,-2.3261,-2.3418,-2.3765,-2.5133,-2.6103,-2.6734,-2.8678,-2.9694,-2.9811,-2.9998,-2.9922,-2.9779,-3.0869,-3.1822,-3.2712,-3.3895,-3.5143,-3.637,-3.695,-3.7428,-3.7805,-3.7864,-3.8084,-3.8444,-3.9544,-4.0048,-4.0457,-4.1734,-4.2092,-4.2092,-4.2092,-4.1424,-4.0699,-4.0699,-3.9755,-3.887,-3.9146,-3.9343,-3.9334,-3.8892,-3.9799,-4.0634,-4.0512,-4.1209,-4.1933,-4.2506,-4.2943,-4.3295,-4.3568,-4.3372,-4.3295,-4.3568,-4.3372,-4.3295,-4.3568,-4.3598,-4.3598,-4.3598,-4.3598,-4.3598,-4.3598,-4.3598,-4.3598,-4.3598,-4.3734,-4.3852,-4.4027,-4.4155,-4.4327,-4.4468,-4.457,-4.4615,-4.4615,-4.4615,-4.4615,0.0,0.0,0.0,0.0,0.0,0.0,0.0,0.0,0.0,0.0,0.0,0.0,0.0,0.0,0.0,0.0,0.0,0.0,0.0,0.0,0.0,0.0,0.0,0.0,0.0,0.0,0.0,0.0,0.0,0.0,0.0,-2.2586,-2.348,-2.3444,-2.3096,-2.2885,-2.2849,-2.2943,-2.3018,-2.3066,-2.4932,-2.5857,-2.6002,-2.7841,-2.9037,-2.9645,-3.0091,-3.0022,-2.9618,-3.0696,-3.1629,-3.245,-3.3359,-3.4252,-3.5101,-3.5756,-3.6103,-3.6342,-3.7358,-3.756,-3.7724,-3.9755,-4.0144,-4.0101,-4.1618,-4.2092,-4.2092,-4.202,-4.1091,-4.0089,-4.0031,-3.9117,-3.8362,-3.8971,-3.894,-3.8797,-3.8797,-3.9104,-3.9589,-4.0285,-4.0443,-4.0907,-4.219,-4.2443,-4.271,-4.3325,-4.2881,-4.271,-4.3325,-4.2881,-4.2772,-4.3432,-4.3492,-4.3522,-4.3598,-4.3598,-4.3598,-4.3598,-4.3598,-4.3598,-4.3598,-4.3628,-4.3734,-4.3927,-4.4056,-4.4184,-4.4338,-4.4514,-4.4615,-4.4615,-4.4615,-4.4615,0.0,0.0,0.0,0.0,0.0,0.0,0.0,0.0,0.0,0.0,0.0,0.0,0.0,0.0,0.0,0.0,0.0,0.0,0.0,0.0,0.0,0.0,0.0,0.0,0.0,0.0,0.0,0.0,0.0,0.0,-2.1677,-2.2837,-2.3352,-2.3041,-2.295,-2.2748,-2.2419,-2.3144,-2.373,0.0,-2.5274,-2.6178,-2.6959,-2.8163,-2.8545,-2.8269,-2.8556,-2.8474,-2.8218,-2.9502,-3.0172,-3.0508,-3.2444,-3.3309,-3.3628,-3.491,-3.5991,-3.6768,-3.6581,-3.7162,-3.8221,-3.9356,-3.9757,-4.0101,-4.1618,-4.2092,-4.199,-4.1453,-4.0728,-3.9987,-3.9523,-3.8797,-3.8246,-3.8376,-3.8506,-3.8627,-3.876,-3.898,-3.925,-3.9589,-4.0111,-4.0615,-4.0907,-4.1393,-4.1787,-4.1917,-4.1819,-4.1787,-4.1917,-4.1819,-4.2013,-4.2741,-4.282,-4.3035,-4.3568,-4.3598,-4.3598,-4.3598,-4.3598,-4.3598,-4.3598,-4.3763,-4.391,-4.4039,-4.4196,-4.4338,-4.4542,-4.457,-4.4615,-4.4615,-4.4615,-4.4615,0.0,0.0,0.0,0.0,0.0,0.0,0.0,0.0,0.0,0.0,0.0,0.0,0.0,0.0,0.0,0.0,0.0,0.0,0.0,0.0,0.0,0.0,0.0,0.0,0.0,0.0,0.0,0.0,0.0,-2.1992,-2.1895,-2.2533,-2.2821,-2.2611,-2.2419,-2.2217,-2.1998,-2.2494,-2.3119,-2.3844,-2.4734,-2.5893,-2.7213,-2.8221,-2.8402,-2.7869,-2.8191,-2.8235,-2.8141,-2.897,-2.9465,-2.9871,-3.1822,-3.2572,-3.2727,-3.4208,-3.5124,-3.5714,-3.6019,-3.6731,-3.7699,-3.9042,-3.9682,-4.0206,-4.1659,-4.2092,-4.1961,-4.1279,-4.0612,-3.9958,-3.9363,-3.8696,-3.8202,-3.8202,-3.8366,-3.8553,-3.876,-3.8943,-3.9141,-3.9337,-3.9717,-4.0091,-4.0443,-4.1075,-4.1492,-4.1492,-4.1227,-4.1142,-4.1459,-4.1492,-4.1656,-4.2013,-4.238,-4.2617,-4.26,-4.26,-4.2741,-4.3113,-4.3113,-4.3295,-4.3734,-4.391,-4.4027,-4.4097,-4.4224,-4.4412,-4.4615,-4.4615,-4.4615,-4.4615,-4.4615,-4.4615,0.0,0.0,0.0,0.0,0.0,0.0,0.0,0.0,0.0,0.0,0.0,0.0,0.0,0.0,0.0,0.0,0.0,0.0,0.0,0.0,0.0,0.0,0.0,0.0,0.0,0.0,0.0,0.0,0.0,-2.1959,-2.2045,-2.2198,-2.2245,-2.2181,-2.1861,-2.1776,-2.1954,-2.2188,-2.2782,-2.3727,-2.4728,-2.6018,-2.7548,-2.842,-2.8498,-2.7933,-2.8406,-2.8603,-2.8659,-2.8977,-2.9386,-2.9902,-3.1453,-3.204,-3.2204,-3.3542,-3.4175,-3.4534,-3.5597,-3.6316,-3.7101,-3.891,-3.9675,-4.0151,-4.1512,-4.1845,-4.1613,-4.096,-4.0365,-3.9799,-3.9189,-3.8623,-3.8202,-3.8202,-3.8329,-3.8516,-3.876,-3.8943,-3.9104,-3.9337,-3.9388,-3.9589,-4.0216,-4.0771,-4.1127,-4.1127,-4.0668,-4.0512,-4.106,-4.1127,-4.1194,-4.1327,-4.1852,-4.2061,-4.1558,-4.1492,-4.1819,-4.2554,-4.2617,-4.2974,-4.3868,-4.4027,-4.4097,-4.4126,-4.4281,-4.444,-4.4615,-4.4615,-4.4615,-4.4615,-4.4615,-4.4615,0.0,0.0,0.0,0.0,0.0,0.0,0.0,0.0,0.0,0.0,0.0,0.0,0.0,0.0,0.0,0.0,0.0,0.0,0.0,0.0,0.0,0.0,0.0,0.0,0.0,0.0,0.0,0.0,-2.1237,-2.2148,-2.2758,-2.2482,-2.2126,-2.1778,-2.1723,-2.2078,-2.2931,-2.4119,-2.5188,-2.6141,-2.7506,-2.8377,-2.885,-2.9195,-2.8774,-2.7957,-2.8626,-2.902,-2.922,-2.9728,-2.9975,-3.0141,-3.1331,-3.1742,-3.1893,-3.2994,-3.4126,-3.5091,-3.5259,-3.617,-3.7479,-3.8999,-3.9283,-3.9318,-4.0789,-4.0829,-4.0234,-3.9625,-3.9392,-3.9175,-3.8507,-3.8275,-3.8202,-3.8202,-3.8202,-3.8352,-3.8723,-3.8819,-3.8943,-3.9337,-3.9388,-3.9424,-3.9517,-3.961,-3.9681,-3.9681,-3.961,-3.9589,-3.9681,-3.9681,-3.9915,-4.0581,-4.0703,-4.0974,-4.1459,-4.1492,-4.1819,-4.2554,-4.2617,-4.2974,-4.3868,-4.4027,-4.4155,-4.4281,-4.4468,-4.457,-4.4615,-4.4615,-4.4615,-4.4615,-4.4615,-4.4615,0.0,0.0,0.0,0.0,0.0,0.0,0.0,0.0,0.0,0.0,0.0,0.0,0.0,0.0,0.0,0.0,0.0,0.0,0.0,0.0,0.0,0.0,0.0,0.0,0.0,0.0,0.0,0.0,-2.1213,-2.1953,-2.2866,-2.23,-2.187,-2.1696,-2.1906,-2.2131,-2.229,-2.3994,-2.5544,-2.7075,-2.846,-2.9042,-2.8907,-2.9542,-2.9541,-2.8958,-2.9123,-2.921,-2.9292,-2.9232,-2.9208,-2.9294,-3.0234,-3.0855,-3.1348,-3.2305,-3.3487,-3.4688,-3.5077,-3.5892,-3.7029,-3.8514,-3.8939,-3.9131,-4.0224,-4.0321,-3.9973,-3.9363,-3.9204,-3.9044,-3.8376,-3.8202,-3.8202,-3.8202,-3.8202,-3.8315,-3.8708,-3.8782,-3.8907,-3.9301,-3.9388,-3.9388,-3.9388,-3.9388,-3.9388,-3.9388,-3.9388,-3.9388,-3.9388,-3.9753,-3.9985,-3.9879,-4.025,-4.0443,-4.0339,-4.0339,-4.0634,-4.1376,-4.1492,-4.1917,-4.2802,-4.3353,-4.371,-4.3839,-4.4338,-4.4615,-4.4615,-4.4615,-4.4615,-4.4615,-4.4615,-4.4615,0.0,0.0,0.0,0.0,0.0,0.0,0.0,0.0,0.0,0.0,0.0,0.0,0.0,0.0,0.0,0.0,0.0,0.0,0.0,0.0,0.0,0.0,0.0,0.0,0.0,0.0,0.0,0.0,-2.113,-2.1787,-2.2857,-2.2135,-2.1696,-2.1696,-2.197,-2.217,-2.2201,-2.4195,-2.5799,-2.7061,-2.8699,-2.9198,-2.869,-2.9843,-3.0327,-3.0184,-2.9858,-2.9773,-2.9857,-2.9328,-2.9112,-2.9157,-2.969,-3.0394,-3.1166,-3.1836,-3.3004,-3.4287,-3.4978,-3.5746,-3.6642,-3.7915,-3.848,-3.876,-3.9441,-3.9625,-3.9523,-3.9073,-3.8942,-3.8826,-3.8333,-3.8202,-3.8202,-3.8202,-3.8202,-3.8315,-3.8708,-3.887,-3.9031,-3.9337,-3.9388,-3.9388,-3.9388,-3.9388,-3.9388,-3.9388,-3.9388,-3.9388,-3.9388,-3.9879,-4.0021,-3.9445,-3.9879,-4.0021,-3.946,-3.9388,-3.9717,-4.0443,-4.0634,-4.1078,-4.1965,-4.2847,-4.335,-4.3512,-4.4236,-4.4615,-4.4615,-4.4615,-4.4615,-4.4615,-4.4615,-4.4615,0.0,0.0,0.0,0.0,0.0,0.0,0.0,0.0,0.0,0.0,0.0,0.0,0.0,0.0,0.0,0.0,0.0,0.0,0.0,0.0,0.0,0.0,0.0,0.0,0.0,0.0,0.0,0.0,-2.113,-2.1787,-2.2857,-2.2135,-2.1696,-2.1696,-2.1714,-2.2337,-2.3596,-2.5918,-2.6729,-2.6093,-2.8411,-2.9159,-2.8578,-3.0188,-3.1048,-3.1199,-3.0937,-3.1127,-3.1536,-3.1019,-3.079,-3.0724,-3.0546,-3.0942,-3.1665,-3.1984,-3.3004,-3.4287,-3.4978,-3.5746,-3.6519,-3.7377,-3.7797,-3.7987,-3.8228,-3.8304,-3.8289,-3.826,-3.826,-3.8246,-3.8217,-3.8202,-3.8202,-3.8202,-3.8202,-3.8315,-3.8708,-3.9104,-3.9373,-3.9388,-3.9388,-3.9388,-3.9388,-3.9388,-3.9388,-3.9388,-3.9388,-3.9388,-3.9388,-3.9409,-3.9445,-3.9409,-3.9409,-3.9445,-3.9388,-3.9388,-3.9717,-4.0443,-4.0634,-4.1078,-4.1965,-4.2847,-4.335,-4.3512,-4.4236,-4.4615,-4.4615,-4.4615,-4.4615,-4.4615,-4.4615,-4.4615,0.0,0.0,0.0,0.0,0.0,0.0,0.0,0.0,0.0,0.0,0.0,0.0,0.0,0.0,0.0,0.0,0.0,0.0,0.0,0.0,0.0,0.0,0.0,0.0,0.0,0.0,0.0,0.0,0.0,-2.2031,-2.2875,-2.2373,-2.1952,-2.1696,-2.1934,-2.2756,-2.4216,-2.4766,-2.5386,-2.6034,-2.7086,-2.7867,-2.8274,-2.8805,-2.9772,-3.1083,-3.0636,-3.0548,-3.0639,-3.0446,-2.9965,-2.9357,-2.9241,-2.9692,-3.0497,-3.111,-3.2233,-3.3611,-3.4927,-3.5821,-3.6557,-3.7501,-3.7853,-3.7929,-3.8127,-3.8202,-3.8202,-3.8202,-3.8202,-3.8202,-3.8202,-3.8202,-3.8202,-3.8202,-3.8389,-3.8634,-3.8745,-3.9104,-3.9388,-3.9388,-3.9388,-3.9388,-3.9388,-3.9388,-3.9388,-3.9388,-3.9388,-3.9388,-3.9388,-3.9388,-3.9388,-3.9388,-3.9388,-3.9388,-3.9388,-3.9388,-3.9589,-3.995,-4.0141,-4.0439,-4.0888,-4.1706,-4.2189,-4.2205,-4.2909,-4.371,-4.4615,-4.4615,-4.4615,-4.4615,-4.4615,-4.4615,0.0,0.0,0.0,0.0,0.0,0.0,0.0,0.0,0.0,0.0,0.0,0.0,0.0,0.0,0.0,0.0,0.0,0.0,0.0,0.0,0.0,0.0,0.0,0.0,0.0,0.0,0.0,0.0,0.0,0.0,-2.2875,-2.251,-2.2099,-2.1705,-2.2071,-2.2703,-2.3566,-2.3748,-2.4063,-2.4561,-2.5772,-2.6508,-2.6893,-2.759,-2.8819,-3.0431,-3.0088,-3.0091,-3.0338,-3.0158,-2.9677,-2.9003,-2.8655,-2.9111,-2.9994,-3.0368,-3.1361,-3.2748,-3.4242,-3.5171,-3.5911,-3.6914,-3.7333,-3.7436,-3.7802,-3.7897,-3.7941,-3.8144,-3.8202,-3.8202,-3.8202,-3.8202,-3.8202,-3.8202,-3.8501,-3.8782,-3.8782,-3.9104,-3.9388,-3.9388,-3.9388,-3.9388,-3.9388,-3.9388,-3.9388,-3.9388,-3.9388,-3.9388,-3.9388,-3.9388,-3.9388,-3.9388,-3.9388,-3.9388,-3.9388,-3.9388,-3.9496,-3.9696,-3.9889,-4.0101,-4.0312,-4.1091,-4.1492,-4.1492,-4.2173,-4.297,-4.3902,-4.4121,-4.4367,-4.4615,-4.4615,-4.4615,0.0,0.0,0.0,0.0,0.0,0.0,0.0,0.0,0.0,0.0,0.0,0.0,0.0,0.0,0.0,0.0,0.0,0.0,0.0,0.0,0.0,0.0,0.0,0.0,0.0,0.0,0.0,0.0,-2.2551,-2.2922,-2.2922,-2.2519,-2.2099,-2.1705,-2.2062,-2.2071,-2.1696,-2.3009,-2.3009,-2.1741,-2.4441,-2.527,-2.4562,-2.6791,-2.8369,-2.9339,-2.9329,-2.9931,-3.0831,-3.029,-3.0062,-2.9941,-2.8919,-2.9319,-3.0392,-2.9866,-3.0535,-3.1795,-3.2905,-3.3798,-3.457,-3.566,-3.6172,-3.646,-3.7114,-3.7302,-3.7433,-3.8028,-3.8202,-3.8202,-3.8202,-3.8202,-3.8202,-3.8202,-3.8501,-3.8782,-3.8782,-3.9104,-3.9388,-3.9388,-3.9388,-3.9388,-3.9388,-3.9388,-3.9388,-3.9388,-3.9388,-3.9388,-3.9388,-3.9388,-3.9388,-3.9388,-3.9388,-3.9388,-3.9388,-3.9388,-3.9481,-3.9696,-3.9889,-4.0101,-4.0312,-4.1057,-4.1459,-4.1459,-4.2109,-4.2458,-4.2489,-4.3166,-4.3869,-4.457,-4.4598,-4.4615,-2.0497,0.0,0.0,0.0,0.0,0.0,0.0,0.0,0.0,0.0,0.0,0.0,0.0,0.0,0.0,0.0,0.0,0.0,0.0,0.0,0.0,0.0,0.0,0.0,0.0,0.0,0.0,0.0,-2.3496,-2.343,-2.3621,-2.2806,-2.2099,-2.1705,-2.1797,-2.1806,-2.1696,-2.2065,-2.2065,-2.1696,-2.2781,-2.3717,-2.4506,-2.5065,-2.6408,-2.8287,-2.7982,-2.8561,-2.9805,-2.9576,-2.9292,-2.8919,-2.8619,-2.8714,-2.9129,-2.9534,-2.9946,-3.0586,-3.2756,-3.396,-3.471,-3.5856,-3.6599,-3.707,-3.7244,-3.7302,-3.7433,-3.8028,-3.8202,-3.8202,-3.8202,-3.8202,-3.8202,-3.8202,-3.8501,-3.8782,-3.8782,-3.9104,-3.9388,-3.9388,-3.9388,-3.9388,-3.9388,-3.9388,-3.9388,-3.9388,-3.9388,-3.9388,-3.9388,-3.9388,-3.9388,-3.9388,-3.9388,-3.9388,-3.9388,-3.9388,-3.9568,-3.9889,-3.996,-4.0137,-4.0436,-4.0646,-4.0783,-4.0783,-4.0956,-4.1309,-4.1771,-4.2953,-4.3601,-4.381,-4.4338,-4.4615,0.0,0.0,0.0,0.0,0.0,0.0,-2.0692,-2.1111,-2.1447,0.0,0.0,0.0,0.0,0.0,0.0,0.0,0.0,0.0,0.0,0.0,0.0,0.0,0.0,0.0,0.0,-2.3006,-2.3475,-2.4365,-2.4063,-2.381,-2.3823,-2.2954,-2.228,-2.1883,-2.1785,-2.1696,-2.1696,-2.1696,-2.1696,-2.1696,-2.2089,-2.2814,-2.3748,-2.4136,-2.5376,-2.7181,-2.6946,-2.781,-2.9343,-2.8853,-2.8982,-2.946,-2.9015,-2.8979,-2.9193,-2.9199,-2.932,-2.9833,-3.1979,-3.3118,-3.3847,-3.5418,-3.5996,-3.6199,-3.6722,-3.6881,-3.7012,-3.7651,-3.8014,-3.8202,-3.8202,-3.8202,-3.8202,-3.8202,-3.8501,-3.8782,-3.8782,-3.9104,-3.9388,-3.9388,-3.9388,-3.9388,-3.9388,-3.9388,-3.9388,-3.9388,-3.9388,-3.9388,-3.9388,-3.9388,-3.9388,-3.9388,-3.9388,-3.9388,-3.9388,-3.9496,-3.9661,-3.996,-4.0081,-4.0242,-4.0489,-4.0489,-4.0489,-4.0489,-4.0489,-4.0836,-4.1492,-4.23,-4.2953,-4.3512,-4.4253,-4.4615,0.0,0.0,0.0,0.0,0.0,0.0,-2.085,-2.1714,-2.2352,-2.0791,0.0,0.0,0.0,0.0,0.0,0.0,0.0,0.0,0.0,0.0,0.0,0.0,0.0,0.0,-2.3019,-2.3797,-2.4345,-2.4392,-2.4392,-2.4203,-2.3776,-2.3166,-2.2626,-2.2171,-2.1893,-2.1731,-2.1696,-2.1696,-2.1696,-2.1696,-2.2089,-2.2419,-2.2721,-2.3749,-2.4878,-2.6036,-2.6202,-2.7401,-2.9247,-2.8214,-2.8947,-3.0603,-2.9605,-2.9496,-2.9797,-2.8859,-2.8847,-2.9492,-3.0889,-3.1713,-3.2482,-3.442,-3.4735,-3.4582,-3.571,-3.6128,-3.6359,-3.7099,-3.7738,-3.8202,-3.8202,-3.8202,-3.8202,-3.8202,-3.8501,-3.8782,-3.8782,-3.9104,-3.9388,-3.9388,-3.9388,-3.9388,-3.9388,-3.9388,-3.9388,-3.9388,-3.9388,-3.9388,-3.9388,-3.9388,-3.9388,-3.9388,-3.9388,-3.9388,-3.9388,-3.9553,-3.9732,-3.996,-4.0172,-4.0331,-4.0455,-4.0489,-4.0489,-4.0489,-4.0489,-4.0802,-4.1393,-4.1558,-4.2269,-4.3512,-4.4253,-4.4615,0.0,0.0,0.0,0.0,0.0,0.0,-2.2311,-2.2001,-2.1654,0.0,0.0,0.0,0.0,0.0,0.0,0.0,0.0,0.0,0.0,0.0,0.0,0.0,0.0,0.0,-2.4809,-2.4689,-2.4785,-2.5091,-2.5111,-2.4832,-2.4221,-2.3739,-2.3231,-2.259,-2.222,-2.1919,-2.1696,-2.1696,-2.1696,-2.1696,-2.2089,-2.2419,-2.2712,-2.3485,-2.423,-2.4993,-2.5258,-2.6677,-2.8771,-2.8152,-2.8541,-2.9544,-2.8919,-2.8727,-2.8799,-2.8595,-2.8847,-2.9411,-3.024,-3.1177,-3.2137,-3.2585,-3.3428,-3.4271,-3.4547,-3.506,-3.5828,-3.6968,-3.7738,-3.8202,-3.8202,-3.8202,-3.8202,-3.8202,-3.8501,-3.8782,-3.8782,-3.9104,-3.9388,-3.9388,-3.9388,-3.9388,-3.9388,-3.9388,-3.9388,-3.9388,-3.9388,-3.9388,-3.9388,-3.9388,-3.9388,-3.9388,-3.9388,-3.9388,-3.9388,-3.946,-3.9553,-3.9732,-3.996,-4.0137,-4.0331,-4.0436,-4.0489,-4.0489,-4.0489,-4.0558,-4.0715,-4.1771,-4.2738,-4.3512,-4.4253,-4.4615,0.0,0.0,0.0,-2.1119,0.0,0.0,0.0,-2.2395,-2.23,-2.2005,0.0,0.0,0.0,0.0,0.0,0.0,0.0,0.0,0.0,0.0,0.0,0.0,0.0,0.0,-2.5489,-2.5334,-2.5295,-2.547,-2.5489,-2.515,-2.441,-2.4267,-2.384,-2.3076,-2.2262,-2.198,-2.2215,-2.1509,-2.1329,-2.1696,-2.2089,-2.2363,-2.2432,-2.3522,-2.4145,-2.4466,-2.5119,-2.6276,-2.7608,-2.7094,-2.7546,-2.8681,-2.8841,-2.8907,-2.8871,-2.8607,-2.8847,-2.9423,-3.006,-3.1008,-3.1977,-3.2048,-3.304,-3.409,-3.3803,-3.4511,-3.5668,-3.6939,-3.752,-3.7825,-3.813,-3.8202,-3.824,-3.8329,-3.8575,-3.8819,-3.8943,-3.9177,-3.9388,-3.9388,-3.9388,-3.9388,-3.9388,-3.9388,-3.9388,-3.9388,-3.9388,-3.9388,-3.9388,-3.9388,-3.9388,-3.9388,-3.9388,-3.9388,-3.9388,-3.9481,-3.9589,-3.9681,-3.998,-4.0207,-4.0312,-4.0436,-4.0489,-4.0489,-4.0489,-4.0489,-4.0489,-4.1525,-4.2363,-4.3045,-4.4093,-4.4615,0.0,0.0,0.0,0.0,0.0,-2.2057,0.0,0.0,0.0,0.0,0.0,0.0,0.0,0.0,0.0,0.0,0.0,0.0,0.0,0.0,0.0,0.0,0.0,0.0,0.0,-2.5693,-2.5693,-2.5693,-2.5615,-2.5303,-2.458,-2.4333,-2.3917,-2.3235,-2.2024,-2.1739,-2.2575,-2.147,-2.1182,-2.1789,-2.2318,-2.2447,-2.2133,-2.3589,-2.4231,-2.4264,-2.5111,-2.5956,-2.6656,-2.6026,-2.6724,-2.8184,-2.8675,-2.9025,-2.9088,-2.8667,-2.8847,-2.9383,-2.9878,-3.0799,-3.1656,-3.1664,-3.2609,-3.3679,-3.3452,-3.4319,-3.5639,-3.678,-3.7201,-3.7447,-3.8043,-3.8202,-3.824,-3.8441,-3.8649,-3.887,-3.9068,-3.9265,-3.9388,-3.9388,-3.9388,-3.9388,-3.9388,-3.9388,-3.9388,-3.9388,-3.9388,-3.9388,-3.9388,-3.9388,-3.9388,-3.9388,-3.9388,-3.9388,-3.9388,-3.9553,-3.9661,-3.9661,-3.998,-4.0207,-4.0242,-4.0401,-4.0489,-4.0489,-4.0489,-4.0489,-4.0489,-4.1176,-4.182,-4.252,-4.3798,-4.4468,0.0,0.0,0.0,0.0,-2.0343,0.0,0.0,0.0,-2.2277,-2.3184,0.0,0.0,0.0,0.0,0.0,0.0,0.0,0.0,0.0,0.0,0.0,0.0,0.0,0.0,0.0,-2.5693,-2.5693,-2.5693,-2.5371,-2.5098,-2.5047,-2.3447,-2.2603,-2.2597,-2.1275,-2.1079,-2.2173,-2.1996,-2.197,-2.2073,-2.3208,-2.3133,-2.2129,-2.3356,-2.4202,-2.465,-2.4746,-2.5704,-2.7044,-2.616,-2.6875,-2.8451,-2.7734,-2.7887,-2.8595,-2.8534,-2.8847,-2.9301,-2.9236,-2.9964,-3.084,-3.0248,-3.1099,-3.2531,-3.3679,-3.464,-3.5552,-3.6214,-3.6852,-3.7447,-3.8043,-3.8202,-3.824,-3.8441,-3.8649,-3.887,-3.9068,-3.9265,-3.9388,-3.9388,-3.9388,-3.9388,-3.9388,-3.9388,-3.9388,-3.9388,-3.9388,-3.9388,-3.9388,-3.9388,-3.9388,-3.9388,-3.9388,-3.9388,-3.9388,-3.9409,-3.9409,-3.9409,-3.9661,-3.9839,-4.0031,-4.0331,-4.0489,-4.0489,-4.0489,-4.0489,-4.0489,-4.1176,-4.182,-4.252,-4.3257,-4.3972,0.0,0.0,0.0,0.0,0.0,0.0,-2.249,0.0,-2.2028,0.0,0.0,0.0,0.0,0.0,0.0,0.0,0.0,0.0,0.0,0.0,0.0,0.0,0.0,0.0,0.0,0.0,0.0,0.0,-2.5223,-2.49,-2.4355,-2.3832,-2.3242,-2.2708,-2.1557,-2.1224,-2.1753,-2.096,-2.1004,-2.1873,-2.2615,-2.2847,-2.2621,-2.3651,-2.4145,-2.4135,-2.4426,-2.4788,-2.5187,-2.4826,-2.5251,-2.6216,-2.6329,-2.7255,-2.851,-2.851,-2.8847,-2.935,-2.9536,-3.0335,-3.1277,-3.14,-3.1432,-3.1603,-3.2641,-3.3479,-3.4269,-3.4911,-3.5877,-3.6881,-3.752,-3.7941,-3.8277,-3.8612,-3.876,-3.8907,-3.9228,-3.9337,-3.9388,-3.9388,-3.9388,-3.9388,-3.9388,-3.9388,-3.9388,-3.9388,-3.9388,-3.9388,-3.9388,-3.9388,-3.9388,-3.9388,-3.9388,-3.9388,-3.9388,-3.9388,-3.9388,-3.9388,-3.9711,-3.996,-4.0172,-4.0366,-4.0489,-4.0489,-4.0489,-4.0489,-4.0489,-4.0768,-4.1276,-4.1965,-4.3015,-4.3914,-1.9238,0.0,0.0,0.0,0.0,0.0,0.0,0.0,0.0,0.0,0.0,0.0,0.0,0.0,0.0,0.0,0.0,0.0,0.0,0.0,0.0,0.0,0.0,0.0,0.0,0.0,0.0,-2.4893,-2.4893,-2.4619,-2.3994,-2.3902,-2.3448,-2.2568,-2.1621,-2.1169,-2.1346,-2.0604,-2.0663,-2.1502,-2.2282,-2.2673,-2.2697,-2.3623,-2.4077,-2.4155,-2.4378,-2.4378,-2.4121,-2.3887,-2.4117,-2.475,-2.5496,-2.6741,-2.8179,-2.8431,-2.8751,-2.9169,-2.9585,-3.0343,-3.1232,-3.2019,-3.1656,-3.1033,-3.1787,-3.2413,-3.3036,-3.3698,-3.4887,-3.6158,-3.6806,-3.7589,-3.8315,-3.8708,-3.8782,-3.8907,-3.9301,-3.9388,-3.9388,-3.9388,-3.9388,-3.9388,-3.9388,-3.9388,-3.9388,-3.9388,-3.9388,-3.9388,-3.9388,-3.9388,-3.9388,-3.9388,-3.9388,-3.9388,-3.9388,-3.9388,-3.9388,-3.9388,-3.9783,-4.0066,-4.0207,-4.0401,-4.0489,-4.0489,-4.0489,-4.0489,-4.0489,-4.0489,-4.0836,-4.1509,-4.252,-4.3439,0.0,0.0,0.0,-1.8855,0.0,0.0,0.0,0.0,-2.1674,0.0,0.0,0.0,0.0,0.0,0.0,0.0,0.0,0.0,0.0,0.0,0.0,0.0,0.0,0.0,0.0,0.0,0.0,-2.4473,-2.4443,-2.4424,-2.4394,-2.3118,-2.2238,-2.1942,-2.0982,-2.0612,-2.092,-2.1904,-2.1904,-2.0955,-2.2793,-2.3144,-2.2156,-2.2944,-2.4057,-2.5226,-2.4871,-2.4821,-2.5008,-2.4131,-2.4296,-2.5132,-2.5625,-2.637,-2.7348,-2.8179,-2.8522,-2.8574,-2.901,-2.9427,-3.0043,-3.11,-3.12,-3.0999,-3.1548,-3.1891,-3.2268,-3.2867,-3.409,-3.5347,-3.5982,-3.7171,-3.8315,-3.8708,-3.8782,-3.8907,-3.9301,-3.9388,-3.9388,-3.9388,-3.9388,-3.9388,-3.9388,-3.9388,-3.9388,-3.9388,-3.9388,-3.9388,-3.9388,-3.9388,-3.9388,-3.9388,-3.9388,-3.9388,-3.9388,-3.9388,-3.9388,-3.9388,-3.9783,-4.0011,-4.0011,-4.0331,-4.0489,-4.0489,-4.0489,-4.0489,-4.0489,-4.0489,-4.0836,-4.1492,-4.1542,-4.2269,0.0,0.0,-1.8059,-1.8203,0.0,0.0,0.0,0.0,0.0,0.0,0.0,0.0,0.0,0.0,0.0,0.0,0.0,0.0,0.0,0.0,0.0,0.0,0.0,0.0,0.0,0.0,0.0,-2.4014,-2.4258,-2.4297,-2.4014,-2.3792,-2.3047,-2.1599,-2.1221,-2.0908,-2.0578,-2.0241,-2.0604,-2.1684,-2.1641,-2.2055,-2.2902,-2.3095,-2.3614,-2.4448,-2.4183,-2.3971,-2.3769,-2.3477,-2.3526,-2.3891,-2.5253,-2.5997,-2.6453,-2.7966,-2.851,-2.8598,-2.9401,-2.9975,-3.0394,-3.0758,-3.0566,-3.0215,-3.0394,-3.0851,-3.1344,-3.153,-3.2917,-3.4503,-3.5311,-3.6406,-3.7567,-3.8389,-3.8686,-3.887,-3.9141,-3.9301,-3.9388,-3.9388,-3.9388,-3.9388,-3.9388,-3.9388,-3.9388,-3.9388,-3.9388,-3.9388,-3.9388,-3.9388,-3.9388,-3.9388,-3.9388,-3.9388,-3.9388,-3.9388,-3.9445,-3.9589,-3.9854,-4.0066,-4.0207,-4.0401,-4.0489,-4.0489,-4.0489,-4.0489,-4.0489,-4.0489,-4.0627,-4.0836,-4.0836,-4.1804,-1.7125,-1.727,0.0,-1.7577,-1.7605,0.0,-1.9112,0.0,0.0,0.0,0.0,0.0,0.0,0.0,0.0,0.0,0.0,0.0,0.0,-2.3091,0.0,0.0,0.0,0.0,0.0,0.0,-2.3945,-2.3799,-2.4326,-2.4531,0.0,0.0,-2.3881,-2.2201,-2.1808,-2.1134,-2.0227,-1.9664,-1.9884,-2.0897,-2.0727,-2.1293,-2.245,-2.2749,-2.3323,-2.4023,-2.4183,-2.3994,-2.3539,-2.3393,-2.3237,-2.3266,-2.5105,-2.5777,-2.6027,-2.7834,-2.859,-2.8797,-2.9469,-2.9963,-3.0319,-3.0319,-3.008,-2.9792,-2.9792,-3.0279,-3.0778,-3.0778,-3.2213,-3.3971,-3.4841,-3.5973,-3.7169,-3.824,-3.8649,-3.887,-3.9068,-3.9265,-3.9388,-3.9388,-3.9388,-3.9388,-3.9388,-3.9388,-3.9388,-3.9388,-3.9388,-3.9388,-3.9388,-3.9388,-3.9388,-3.9388,-3.9388,-3.9388,-3.9388,-3.9388,-3.9496,-3.9696,-3.9889,-4.0101,-4.0312,-4.0436,-4.0489,-4.0489,-4.0489,-4.0489,-4.0489,-4.0489,-4.0489,-4.0489,-4.0734,-4.1558]}]]